[[{"header":{"parameterUnit":"m.s-1","parameterCategory":1,"la1":31.0,"la2":29.5877,"lo1":-88.7671,"lo2":-86.6584,"dy":0.0162,"dx":0.0185,"nx":115,"ny":88,"refTime":"2023-09-22T18:00:00:Z","depth":0,"parameterNumber":2,"parameterNumberName":"U-component_of_WINDS"},"data":[0.0,0.0,0.0,0.0,0.0,0.0,0.0,0.0,0.0,0.0,0.0,0.0,0.0,0.0,0.0,0.0,0.0,0.0,0.0,0.0,0.0,0.0,0.0,0.0,0.0,0.0,0.0,0.0,0.0,0.0,0.0,0.0,0.0,0.0,0.0,0.0,0.0,0.0,0.0,0.0,0.0,0.0,0.0,0.0,0.0,0.0,0.0,0.0,0.0,0.0,0.0,0.0,0.0,0.0,0.0,0.0,0.0,0.0,0.0,0.0,0.0,0.0,0.0,0.0,0.0,0.0,0.0,0.0,0.0,0.0,0.0,0.0,0.0,0.0,0.0,0.0,0.0,0.0,0.0,0.0,0.0,0.0,0.0,0.0,0.0,0.0,0.0,0.0,0.0,0.0,0.0,0.0,0.0,0.0,0.0,0.0,0.0,0.0,0.0,0.0,0.0,0.0,0.0,0.0,0.0,0.0,0.0,0.0,0.0,0.0,0.0,0.0,0.0,0.0,0.0,0.0,0.0,0.0,0.0,0.0,0.0,0.0,0.0,0.0,0.0,0.0,0.0,0.0,0.0,0.0,0.0,0.0,0.0,0.0,0.0,0.0,0.0,0.0,0.0,0.0,0.0,0.0,0.0,0.0,0.0,0.0,0.0,0.0,0.0,0.0,0.0,0.0,0.0,0.0,0.0,0.0,0.0,0.0,0.0,0.0,0.0,0.0,0.0,0.0,0.0,0.0,0.0,0.0,0.0,0.0,0.0,0.0,0.0,0.0,0.0,0.0,0.0,0.0,0.0,0.0,0.0,0.0,0.0,0.0,0.0,0.0,0.0,0.0,0.0,0.0,0.0,0.0,0.0,0.0,0.0,0.0,0.0,0.0,0.0,0.0,0.0,0.0,0.0,0.0,0.0,0.0,0.0,0.0,0.0,0.0,0.0,0.0,0.0,0.0,0.0,0.0,0.0,0.0,0.0,0.0,0.0,0.0,0.0,0.0,0.0,0.0,0.0,0.0,0.0,0.0,0.0,0.0,0.0,0.0,0.0,0.0,0.0,0.0,0.0,0.0,0.0,0.0,0.0,0.0,0.0,0.0,0.0,0.0,0.0,0.0,0.0,0.0,0.0,0.0,0.0,0.0,0.0,0.0,0.0,0.0,0.0,0.0,0.0,0.0,0.0,0.0,0.0,0.0,0.0,0.0,0.0,0.0,0.0,0.0,0.0,0.0,0.0,0.0,0.0,0.0,0.0,0.0,0.0,0.0,0.0,0.0,0.0,0.0,0.0,0.0,0.0,0.0,0.0,0.0,0.0,0.0,0.0,0.0,0.0,0.0,0.0,0.0,0.0,0.0,0.0,0.0,0.0,0.0,0.0,0.0,0.0,0.0,0.0,0.0,0.0,0.0,0.0,0.0,0.0,0.0,0.0,0.0,0.0,0.0,0.0,0.0,0.0,0.0,0.0,0.0,0.0,0.0,0.0,0.0,0.0,0.0,0.0,0.0,0.0,0.0,0.0,0.0,0.0,0.0,0.0,0.0,0.0,0.0,0.0,0.0,0.0,0.0,0.0,0.0,0.0,0.0,0.0,0.0,0.0,0.0,0.0,0.0,0.0,0.0,0.0,0.0,0.0,0.0,0.0,0.0,0.0,0.0,0.0,0.0,0.0,0.0,0.0,0.0,0.0,0.0,0.0,0.0,0.0,0.0,0.0,0.0,0.0,0.0,0.0,0.0,0.0,0.0,0.0,0.0,0.0,0.0,0.0,0.0,0.0,0.0,0.0,0.0,0.0,0.0,0.0,0.0,0.0,0.0,0.0,0.0,0.0,0.0,0.0,0.0,0.0,0.0,0.0,0.0,0.0,0.0,0.0,0.0,0.0,0.0,0.0,0.0,0.0,0.0,0.0,0.0,0.0,0.0,0.0,0.0,0.0,0.0,0.0,0.0,0.0,0.0,0.0,0.0,0.0,0.0,0.0,0.0,0.0,0.0,0.0,0.0,0.0,0.0,0.0,0.0,0.0,0.0,0.0,0.0,0.0,0.0,0.0,0.0,0.0,0.0,0.0,0.0,0.0,0.0,0.0,0.0,0.0,0.0,0.0,0.0,0.0,0.0,0.0,0.0,0.0,0.0,0.0,0.0,0.0,0.0,0.0,0.0,0.0,0.0,0.0,0.0,0.0,0.0,0.0,0.0,0.0,0.0,0.0,0.0,0.0,0.0,0.0,0.0,0.0,0.0,0.0,0.0,0.0,0.0,0.0,0.0,0.0,0.0,0.0,0.0,0.0,0.0,0.0,0.0,0.0,0.0,0.0,0.0,0.0,0.0,0.0,0.0,0.0,0.0,0.0,0.0,0.0,0.0,0.0,0.0,0.0,0.0,0.0,0.0,0.0,0.0,0.0,0.0,0.0,0.0,0.0,0.0,0.0,0.0,0.0,0.0,0.0,0.0,0.0,0.0,0.0,0.0,0.0,0.0,0.0,0.0,0.0,0.0,0.0,0.0,0.0,0.0,0.0,0.0,0.0,0.0,0.0,0.0,0.0,0.0,0.0,0.0,0.0,0.0,0.0,0.0,0.0,0.0,0.0,0.0,0.0,0.0,0.0,0.0,0.0,0.0,0.0,0.0,0.0,0.0,0.0,0.0,0.0,0.0,0.0,0.0,0.0,0.0,0.0,0.0,0.0,0.0,0.0,0.0,0.0,0.0,0.0,0.0,0.0,0.0,0.0,0.0,0.0,0.0,0.0,0.0,0.0,0.0,0.0,0.0,0.0,0.0,0.0,0.0,0.0,0.0,0.0,0.0,0.0,0.0,0.0,0.0,0.0,0.0,0.0,0.0,0.0,0.0,0.0,0.0,0.0,0.0,0.0,0.0,0.0,0.0,0.0,0.0,0.0,0.0,0.0,0.0,0.0,0.0,0.0,0.0,0.0,0.0,0.0,0.0,0.0,0.0,0.0,0.0,0.0,0.0,0.0,0.0,0.0,0.0,0.0,0.0,0.0,0.0,0.0,0.0,0.0,0.0,0.0,0.0,0.0,0.0,0.0,0.0,0.0,0.0,0.0,0.0,0.0,0.0,0.0,0.0,0.0,0.0,0.0,0.0,0.0,0.0,0.0,0.0,0.0,0.0,0.0,0.0,0.0,0.0,0.0,0.0,0.0,0.0,0.0,0.0,0.0,0.0,0.0,0.0,0.0,0.0,0.0,0.0,0.0,0.0,0.0,0.0,0.0,0.0,0.0,0.0,0.0,0.0,0.0,0.0,0.0,0.0,0.0,0.0,0.0,0.0,0.0,0.0,0.0,0.0,0.0,0.0,0.0,0.0,0.0,0.0,0.0,0.0,0.0,0.0,0.0,0.0,0.0,0.0,0.0,0.0,0.0,0.0,0.0,0.0,0.0,0.0,0.0,0.0,0.0,0.0,0.0,0.0,0.0,0.0,0.0,0.0,0.0,0.0,0.0,0.0,0.0,0.0,0.0,0.0,0.0,0.0,0.0,0.0,0.0,0.0,0.0,0.0,0.0,0.0,0.0,0.0,0.0,0.0,0.0,0.0,0.0,0.0,0.0,0.0,0.0,0.0,0.0,0.0,0.0,0.0,0.0,0.0,0.0,0.0,0.0,0.0,0.0,0.0,0.0,0.0,0.0,0.0,0.0,0.0,0.0,0.0,0.0,0.0,0.0,0.0,0.0,0.0,0.0,0.0,0.0,0.0,0.0,0.0,0.0,0.0,0.0,0.0,0.0,0.0,0.0,0.0,0.0,0.0,0.0,0.0,0.0,0.0,0.0,0.0,0.0,0.0,0.0,0.0,0.0,0.0,0.0,0.0,0.0,0.0,0.0,0.0,0.0,0.0,0.0,0.0,0.0,0.0,0.0,0.0,0.0,0.0,0.0,0.0,0.0,0.0,0.0,0.0,0.0,0.0,0.0,0.0,0.0,0.0,0.0,0.0,0.0,0.0,0.0,0.0,0.0,0.0,0.0,0.0,0.0,0.0,0.0,0.0,0.0,0.0,0.0,0.0,0.0,0.0,0.0,0.0,0.0,0.0,0.0,0.0,0.0,0.0,0.0,0.0,0.0,0.0,0.0,0.0,0.0,0.0,0.0,0.0,0.0,0.0,0.0,0.0,0.0,0.0,0.0,0.0,0.0,0.0,0.0,0.0,0.0,0.0,0.0,0.0,0.0,0.0,0.0,0.0,0.0,0.0,0.0,0.0,0.0,0.0,0.0,0.0,0.0,0.0,0.0,0.0,0.0,0.0,0.0,0.0,0.0,0.0,-2.4987,0.0,0.0,0.0,0.0,0.0,0.0,0.0,0.0,0.0,0.0,0.0,0.0,0.0,0.0,0.0,0.0,0.0,0.0,0.0,0.0,0.0,0.0,0.0,0.0,0.0,0.0,0.0,0.0,0.0,0.0,0.0,0.0,0.0,0.0,0.0,0.0,0.0,0.0,0.0,0.0,0.0,0.0,0.0,0.0,0.0,0.0,0.0,0.0,0.0,0.0,0.0,0.0,0.0,0.0,0.0,0.0,0.0,0.0,0.0,0.0,0.0,0.0,0.0,0.0,0.0,0.0,0.0,0.0,0.0,0.0,0.0,0.0,0.0,0.0,0.0,0.0,0.0,0.0,0.0,0.0,0.0,0.0,0.0,0.0,0.0,0.0,0.0,0.0,0.0,0.0,0.0,0.0,0.0,0.0,0.0,0.0,0.0,0.0,0.0,0.0,0.0,0.0,0.0,0.0,0.0,0.0,0.0,0.0,0.0,0.0,-2.5388,-2.5321,-2.5286,-2.5273,-2.5282,0.0,0.0,0.0,0.0,0.0,0.0,0.0,0.0,0.0,0.0,0.0,0.0,0.0,0.0,0.0,0.0,0.0,0.0,0.0,0.0,0.0,0.0,0.0,0.0,0.0,0.0,0.0,0.0,0.0,0.0,0.0,0.0,0.0,0.0,0.0,0.0,0.0,0.0,0.0,0.0,0.0,0.0,0.0,0.0,0.0,0.0,0.0,0.0,0.0,0.0,0.0,0.0,0.0,0.0,0.0,0.0,0.0,0.0,0.0,0.0,0.0,0.0,0.0,0.0,0.0,0.0,0.0,0.0,0.0,0.0,0.0,0.0,0.0,0.0,0.0,0.0,0.0,0.0,0.0,0.0,0.0,0.0,0.0,0.0,0.0,0.0,0.0,0.0,0.0,0.0,0.0,0.0,0.0,0.0,0.0,0.0,0.0,0.0,0.0,0.0,0.0,0.0,0.0,0.0,0.0,0.0,0.0,0.0,0.0,0.0,0.0,0.0,-2.5524,-2.5518,-2.5457,0.0,0.0,0.0,0.0,0.0,0.0,0.0,0.0,0.0,0.0,0.0,0.0,0.0,0.0,0.0,0.0,0.0,0.0,0.0,0.0,0.0,0.0,0.0,0.0,0.0,0.0,0.0,0.0,0.0,0.0,0.0,0.0,0.0,0.0,0.0,0.0,0.0,0.0,0.0,0.0,0.0,0.0,0.0,0.0,0.0,0.0,0.0,0.0,0.0,0.0,0.0,0.0,0.0,0.0,0.0,0.0,0.0,0.0,0.0,0.0,0.0,0.0,0.0,0.0,0.0,0.0,0.0,0.0,0.0,0.0,0.0,0.0,0.0,0.0,0.0,0.0,0.0,0.0,0.0,0.0,0.0,0.0,0.0,0.0,0.0,0.0,0.0,0.0,0.0,0.0,0.0,0.0,0.0,0.0,0.0,0.0,0.0,0.0,0.0,0.0,0.0,0.0,0.0,0.0,0.0,0.0,0.0,0.0,0.0,0.0,-2.5658,-2.5591,-2.5571,0.0,-2.5406,0.0,0.0,0.0,0.0,0.0,0.0,0.0,0.0,0.0,0.0,0.0,0.0,0.0,0.0,0.0,0.0,0.0,0.0,0.0,0.0,0.0,0.0,0.0,0.0,0.0,0.0,0.0,0.0,0.0,0.0,0.0,0.0,0.0,0.0,0.0,0.0,0.0,0.0,0.0,0.0,0.0,0.0,0.0,0.0,0.0,0.0,0.0,0.0,0.0,0.0,0.0,0.0,0.0,0.0,0.0,0.0,0.0,0.0,0.0,0.0,0.0,0.0,0.0,0.0,0.0,0.0,0.0,0.0,0.0,0.0,0.0,0.0,0.0,0.0,0.0,0.0,0.0,0.0,0.0,0.0,0.0,0.0,0.0,0.0,0.0,0.0,0.0,0.0,0.0,0.0,0.0,0.0,0.0,0.0,0.0,0.0,0.0,0.0,0.0,0.0,0.0,0.0,0.0,0.0,0.0,0.0,0.0,0.0,0.0,0.0,-2.5693,-2.5663,-2.5669,-2.5609,0.0,0.0,0.0,0.0,0.0,0.0,0.0,0.0,0.0,0.0,0.0,0.0,0.0,0.0,0.0,0.0,0.0,0.0,0.0,0.0,0.0,0.0,0.0,0.0,0.0,0.0,0.0,0.0,0.0,0.0,0.0,0.0,0.0,0.0,0.0,0.0,0.0,0.0,0.0,0.0,0.0,0.0,0.0,0.0,0.0,0.0,0.0,0.0,0.0,0.0,0.0,0.0,0.0,0.0,0.0,0.0,0.0,0.0,0.0,0.0,0.0,0.0,0.0,0.0,0.0,0.0,0.0,0.0,0.0,0.0,0.0,0.0,0.0,0.0,0.0,0.0,0.0,0.0,0.0,0.0,0.0,0.0,0.0,0.0,0.0,0.0,0.0,0.0,0.0,0.0,0.0,0.0,0.0,0.0,0.0,0.0,0.0,0.0,0.0,0.0,0.0,0.0,0.0,0.0,0.0,0.0,0.0,0.0,0.0,0.0,-2.5703,-2.5699,-2.5702,-2.5685,-2.5618,-2.5515,0.0,0.0,0.0,0.0,0.0,0.0,0.0,0.0,0.0,0.0,0.0,0.0,0.0,0.0,0.0,0.0,0.0,0.0,0.0,0.0,0.0,0.0,0.0,0.0,0.0,0.0,0.0,0.0,0.0,0.0,0.0,0.0,0.0,0.0,0.0,0.0,0.0,0.0,0.0,0.0,0.0,0.0,0.0,0.0,0.0,0.0,0.0,0.0,0.0,0.0,0.0,0.0,0.0,0.0,0.0,0.0,0.0,0.0,0.0,0.0,0.0,0.0,0.0,0.0,0.0,0.0,0.0,0.0,0.0,0.0,0.0,0.0,0.0,0.0,0.0,0.0,0.0,0.0,0.0,0.0,0.0,0.0,0.0,0.0,0.0,0.0,0.0,0.0,0.0,0.0,0.0,0.0,0.0,0.0,0.0,0.0,0.0,0.0,0.0,0.0,0.0,0.0,0.0,0.0,0.0,0.0,0.0,0.0,-2.5605,-2.5675,-2.5694,-2.5696,-2.5632,-2.56,0.0,0.0,0.0,0.0,0.0,0.0,0.0,0.0,0.0,0.0,0.0,0.0,0.0,0.0,0.0,0.0,0.0,0.0,0.0,0.0,0.0,0.0,0.0,0.0,0.0,0.0,0.0,0.0,0.0,0.0,0.0,0.0,0.0,0.0,0.0,0.0,0.0,0.0,0.0,0.0,0.0,0.0,0.0,0.0,0.0,0.0,0.0,0.0,0.0,0.0,0.0,0.0,0.0,0.0,0.0,0.0,0.0,0.0,0.0,0.0,0.0,0.0,0.0,0.0,0.0,0.0,0.0,0.0,0.0,0.0,0.0,0.0,0.0,0.0,0.0,0.0,0.0,0.0,0.0,0.0,0.0,0.0,0.0,0.0,0.0,0.0,0.0,0.0,0.0,0.0,0.0,0.0,0.0,0.0,0.0,0.0,0.0,0.0,0.0,0.0,0.0,0.0,0.0,0.0,0.0,0.0,0.0,0.0,0.0,-2.5612,-2.5664,-2.5679,-2.5644,-2.5669,-2.5634,0.0,0.0,0.0,0.0,0.0,0.0,0.0,0.0,0.0,0.0,0.0,0.0,0.0,0.0,0.0,0.0,0.0,0.0,0.0,0.0,0.0,0.0,0.0,0.0,0.0,0.0,0.0,0.0,0.0,0.0,0.0,0.0,0.0,0.0,0.0,0.0,0.0,0.0,0.0,0.0,0.0,0.0,0.0,0.0,0.0,0.0,0.0,0.0,0.0,0.0,0.0,0.0,0.0,0.0,0.0,0.0,0.0,0.0,0.0,0.0,0.0,0.0,0.0,0.0,0.0,0.0,0.0,0.0,0.0,0.0,0.0,0.0,0.0,0.0,0.0,0.0,0.0,0.0,0.0,0.0,0.0,0.0,0.0,0.0,0.0,0.0,0.0,0.0,0.0,0.0,0.0,0.0,0.0,0.0,0.0,0.0,0.0,0.0,0.0,0.0,0.0,0.0,0.0,0.0,0.0,0.0,0.0,0.0,0.0,-2.5609,0.0,-2.5659,-2.5633,-2.5665,-2.5657,0.0,0.0,0.0,0.0,0.0,0.0,0.0,0.0,0.0,0.0,0.0,0.0,0.0,0.0,0.0,0.0,0.0,0.0,0.0,0.0,0.0,0.0,0.0,0.0,0.0,0.0,0.0,0.0,0.0,0.0,0.0,0.0,0.0,0.0,0.0,0.0,0.0,0.0,0.0,0.0,0.0,0.0,0.0,0.0,0.0,0.0,0.0,0.0,0.0,0.0,0.0,0.0,0.0,0.0,0.0,0.0,0.0,0.0,0.0,0.0,0.0,0.0,0.0,0.0,0.0,0.0,0.0,0.0,0.0,0.0,0.0,0.0,0.0,0.0,0.0,0.0,0.0,0.0,0.0,0.0,0.0,0.0,0.0,0.0,0.0,0.0,0.0,0.0,0.0,0.0,0.0,0.0,0.0,0.0,0.0,0.0,0.0,0.0,0.0,0.0,0.0,0.0,0.0,0.0,0.0,0.0,0.0,0.0,-2.5551,-2.5605,-2.5666,-2.5692,-2.5706,-2.5703,-2.5666,0.0,0.0,0.0,0.0,0.0,0.0,0.0,0.0,0.0,0.0,0.0,0.0,0.0,0.0,0.0,0.0,0.0,0.0,0.0,0.0,0.0,0.0,0.0,0.0,0.0,0.0,0.0,0.0,0.0,0.0,0.0,0.0,0.0,0.0,0.0,0.0,0.0,0.0,0.0,0.0,0.0,0.0,0.0,0.0,0.0,0.0,0.0,0.0,0.0,0.0,0.0,0.0,0.0,0.0,0.0,0.0,0.0,0.0,0.0,0.0,0.0,0.0,0.0,0.0,0.0,0.0,0.0,0.0,0.0,0.0,0.0,0.0,0.0,0.0,0.0,0.0,0.0,0.0,0.0,0.0,0.0,0.0,0.0,0.0,0.0,0.0,0.0,0.0,0.0,0.0,0.0,0.0,0.0,0.0,0.0,0.0,0.0,0.0,0.0,0.0,0.0,0.0,0.0,0.0,0.0,0.0,0.0,0.0,0.0,-2.5609,-2.5661,-2.568,-2.5643,-2.5659,-2.5651,0.0,0.0,0.0,0.0,0.0,0.0,0.0,0.0,0.0,0.0,0.0,0.0,0.0,0.0,0.0,0.0,0.0,0.0,0.0,0.0,0.0,0.0,0.0,0.0,0.0,0.0,0.0,0.0,0.0,0.0,0.0,0.0,0.0,0.0,0.0,0.0,0.0,0.0,0.0,0.0,0.0,0.0,0.0,0.0,0.0,0.0,0.0,0.0,0.0,0.0,0.0,0.0,0.0,0.0,0.0,0.0,0.0,0.0,0.0,0.0,0.0,0.0,0.0,0.0,0.0,0.0,0.0,0.0,0.0,0.0,0.0,0.0,0.0,0.0,0.0,0.0,0.0,0.0,0.0,0.0,0.0,0.0,0.0,0.0,0.0,0.0,0.0,0.0,0.0,0.0,0.0,0.0,0.0,0.0,0.0,0.0,0.0,0.0,0.0,0.0,0.0,0.0,0.0,0.0,0.0,0.0,0.0,0.0,0.0,-2.6087,-2.6132,-2.6124,-2.6086,-2.6147,-2.5971,-2.5571,0.0,0.0,0.0,0.0,0.0,0.0,0.0,0.0,0.0,0.0,0.0,0.0,0.0,0.0,0.0,0.0,0.0,0.0,0.0,0.0,0.0,0.0,0.0,0.0,0.0,0.0,0.0,0.0,0.0,0.0,0.0,0.0,0.0,0.0,0.0,0.0,0.0,0.0,0.0,0.0,0.0,0.0,0.0,0.0,0.0,0.0,0.0,0.0,0.0,0.0,0.0,0.0,0.0,0.0,0.0,0.0,0.0,0.0,0.0,0.0,0.0,0.0,0.0,0.0,0.0,0.0,0.0,0.0,0.0,0.0,0.0,0.0,0.0,0.0,0.0,0.0,0.0,0.0,0.0,0.0,0.0,0.0,0.0,0.0,0.0,0.0,0.0,0.0,0.0,0.0,0.0,0.0,0.0,0.0,0.0,0.0,0.0,0.0,0.0,0.0,0.0,0.0,0.0,0.0,0.0,0.0,0.0,0.0,-2.6971,-2.7007,-2.7028,-2.6981,-2.6976,-2.6583,0.0,0.0,0.0,0.0,0.0,0.0,0.0,0.0,0.0,0.0,0.0,0.0,0.0,0.0,0.0,0.0,0.0,0.0,0.0,0.0,0.0,0.0,0.0,0.0,0.0,0.0,0.0,0.0,0.0,0.0,0.0,0.0,0.0,0.0,0.0,0.0,0.0,0.0,0.0,0.0,0.0,0.0,0.0,0.0,0.0,0.0,0.0,0.0,0.0,0.0,0.0,0.0,0.0,0.0,0.0,0.0,0.0,0.0,0.0,0.0,0.0,0.0,0.0,0.0,0.0,0.0,0.0,0.0,0.0,0.0,0.0,0.0,0.0,0.0,0.0,0.0,0.0,0.0,0.0,0.0,0.0,0.0,0.0,0.0,0.0,0.0,0.0,0.0,0.0,0.0,0.0,0.0,0.0,0.0,0.0,0.0,0.0,0.0,0.0,0.0,0.0,0.0,0.0,0.0,0.0,0.0,0.0,0.0,0.0,-2.7847,-2.8501,-2.8515,-2.7873,-2.7299,-2.6851,0.0,0.0,0.0,0.0,0.0,0.0,0.0,0.0,0.0,0.0,0.0,0.0,0.0,0.0,0.0,0.0,0.0,0.0,0.0,0.0,0.0,0.0,0.0,0.0,0.0,0.0,0.0,0.0,0.0,0.0,0.0,0.0,0.0,0.0,0.0,0.0,0.0,0.0,0.0,0.0,0.0,0.0,0.0,0.0,0.0,0.0,0.0,0.0,0.0,0.0,0.0,0.0,0.0,0.0,0.0,0.0,0.0,0.0,0.0,0.0,0.0,0.0,0.0,0.0,0.0,0.0,0.0,0.0,0.0,0.0,0.0,0.0,0.0,0.0,0.0,0.0,0.0,0.0,0.0,0.0,0.0,0.0,0.0,0.0,0.0,0.0,0.0,0.0,0.0,0.0,0.0,0.0,0.0,0.0,0.0,0.0,0.0,0.0,0.0,0.0,0.0,0.0,0.0,0.0,0.0,0.0,0.0,0.0,-2.7686,-2.8203,-2.9394,-2.9762,-2.9256,-2.812,-2.7277,0.0,0.0,0.0,0.0,0.0,0.0,0.0,0.0,0.0,0.0,0.0,0.0,0.0,0.0,0.0,0.0,0.0,0.0,0.0,0.0,0.0,0.0,0.0,0.0,0.0,0.0,0.0,0.0,0.0,0.0,0.0,0.0,0.0,0.0,0.0,0.0,0.0,0.0,0.0,0.0,0.0,0.0,0.0,0.0,0.0,0.0,0.0,0.0,0.0,0.0,0.0,0.0,0.0,0.0,0.0,0.0,0.0,0.0,0.0,0.0,0.0,0.0,0.0,0.0,0.0,0.0,0.0,0.0,0.0,0.0,0.0,0.0,0.0,0.0,0.0,0.0,0.0,0.0,0.0,0.0,0.0,0.0,0.0,0.0,0.0,0.0,0.0,0.0,0.0,0.0,0.0,0.0,0.0,0.0,0.0,0.0,0.0,0.0,0.0,0.0,0.0,0.0,0.0,0.0,0.0,0.0,0.0,0.0,-2.8234,-2.834,-2.9875,-3.0697,-3.0655,-2.9058,-2.7797,0.0,0.0,0.0,0.0,0.0,0.0,0.0,0.0,0.0,0.0,0.0,0.0,0.0,0.0,0.0,0.0,0.0,0.0,0.0,0.0,0.0,0.0,0.0,0.0,0.0,0.0,0.0,0.0,0.0,0.0,0.0,0.0,0.0,0.0,0.0,0.0,0.0,0.0,0.0,0.0,0.0,0.0,0.0,0.0,0.0,0.0,0.0,0.0,0.0,0.0,0.0,0.0,0.0,0.0,0.0,0.0,0.0,0.0,0.0,0.0,0.0,0.0,0.0,0.0,0.0,0.0,0.0,0.0,0.0,0.0,0.0,0.0,0.0,0.0,0.0,0.0,0.0,0.0,0.0,0.0,0.0,0.0,0.0,0.0,0.0,0.0,0.0,0.0,0.0,0.0,0.0,0.0,0.0,0.0,0.0,0.0,0.0,0.0,0.0,0.0,0.0,0.0,0.0,0.0,0.0,0.0,0.0,0.0,-2.8398,-2.9136,-3.0163,-3.0667,-3.0614,-2.8994,-2.8049,0.0,0.0,0.0,0.0,0.0,0.0,0.0,0.0,0.0,0.0,0.0,0.0,0.0,0.0,0.0,0.0,0.0,0.0,0.0,0.0,0.0,0.0,0.0,0.0,0.0,0.0,0.0,0.0,0.0,0.0,0.0,0.0,0.0,0.0,0.0,0.0,0.0,0.0,0.0,0.0,0.0,0.0,0.0,0.0,0.0,0.0,0.0,0.0,-2.2815,0.0,0.0,0.0,0.0,0.0,0.0,0.0,0.0,0.0,0.0,0.0,0.0,0.0,0.0,0.0,0.0,0.0,0.0,0.0,0.0,0.0,0.0,0.0,0.0,0.0,0.0,0.0,0.0,0.0,0.0,0.0,0.0,0.0,0.0,0.0,0.0,0.0,0.0,0.0,0.0,0.0,0.0,0.0,0.0,0.0,0.0,0.0,0.0,0.0,0.0,0.0,0.0,0.0,0.0,0.0,0.0,0.0,0.0,0.0,-2.8419,-2.9284,-3.0184,-3.0641,-3.0554,-2.9324,-2.8438,0.0,0.0,0.0,0.0,0.0,0.0,0.0,0.0,0.0,0.0,0.0,0.0,0.0,0.0,0.0,0.0,0.0,0.0,0.0,0.0,0.0,0.0,0.0,0.0,0.0,0.0,0.0,0.0,0.0,0.0,0.0,0.0,0.0,0.0,0.0,0.0,0.0,0.0,0.0,0.0,0.0,0.0,0.0,0.0,0.0,0.0,0.0,0.0,0.0,0.0,0.0,0.0,0.0,0.0,0.0,0.0,0.0,0.0,0.0,0.0,0.0,0.0,0.0,0.0,0.0,0.0,0.0,0.0,0.0,0.0,0.0,0.0,0.0,0.0,0.0,0.0,0.0,0.0,0.0,0.0,0.0,0.0,0.0,0.0,0.0,0.0,0.0,0.0,0.0,0.0,0.0,0.0,0.0,0.0,0.0,0.0,0.0,0.0,0.0,0.0,0.0,0.0,0.0,0.0,0.0,0.0,0.0,-2.7593,-2.8429,-2.9331,-3.0162,-3.0582,-3.0563,-2.9669,-2.88,-2.8017,0.0,0.0,0.0,0.0,0.0,0.0,0.0,0.0,0.0,0.0,0.0,0.0,0.0,0.0,0.0,0.0,0.0,0.0,0.0,0.0,0.0,0.0,0.0,0.0,0.0,0.0,0.0,0.0,0.0,0.0,0.0,0.0,0.0,0.0,0.0,0.0,0.0,0.0,-2.2814,-2.2624,0.0,0.0,0.0,0.0,0.0,0.0,0.0,0.0,-2.2876,0.0,0.0,0.0,0.0,0.0,0.0,0.0,0.0,0.0,0.0,0.0,0.0,0.0,0.0,0.0,0.0,0.0,0.0,0.0,0.0,0.0,0.0,0.0,0.0,0.0,0.0,0.0,0.0,0.0,0.0,0.0,0.0,0.0,0.0,0.0,0.0,0.0,0.0,0.0,0.0,0.0,0.0,0.0,0.0,0.0,0.0,0.0,0.0,0.0,0.0,0.0,0.0,0.0,0.0,0.0,0.0,-2.7585,-2.7817,-2.8602,-2.9984,-3.0356,-3.0525,-3.05,-2.9538,-2.8675,-2.7938,0.0,0.0,0.0,0.0,0.0,0.0,0.0,0.0,0.0,0.0,0.0,0.0,0.0,0.0,0.0,0.0,0.0,0.0,0.0,0.0,0.0,0.0,0.0,0.0,0.0,0.0,0.0,0.0,0.0,0.0,0.0,0.0,0.0,0.0,0.0,0.0,0.0,0.0,0.0,-2.2779,-2.266,0.0,0.0,0.0,0.0,0.0,0.0,0.0,0.0,-2.2958,0.0,0.0,0.0,0.0,0.0,0.0,0.0,0.0,0.0,0.0,0.0,0.0,0.0,0.0,0.0,0.0,0.0,0.0,0.0,0.0,0.0,0.0,0.0,0.0,0.0,0.0,0.0,0.0,0.0,0.0,0.0,0.0,0.0,0.0,0.0,0.0,0.0,0.0,0.0,0.0,0.0,0.0,0.0,0.0,0.0,0.0,0.0,0.0,0.0,0.0,0.0,0.0,0.0,0.0,0.0,-2.7643,-2.8058,-2.8861,-3.0091,-3.0292,-3.0377,-3.0433,-2.9538,-2.8706,0.0,0.0,0.0,0.0,0.0,0.0,0.0,0.0,0.0,0.0,0.0,0.0,0.0,0.0,0.0,0.0,0.0,0.0,0.0,0.0,0.0,0.0,0.0,0.0,0.0,0.0,0.0,0.0,0.0,0.0,0.0,0.0,0.0,0.0,0.0,0.0,0.0,0.0,0.0,0.0,-2.3071,-2.3047,-2.3712,0.0,0.0,0.0,0.0,0.0,0.0,-2.3074,-2.2975,0.0,0.0,0.0,0.0,0.0,0.0,0.0,0.0,0.0,0.0,0.0,0.0,0.0,0.0,0.0,0.0,0.0,0.0,0.0,0.0,0.0,0.0,0.0,0.0,0.0,0.0,0.0,0.0,0.0,0.0,0.0,0.0,0.0,0.0,0.0,0.0,0.0,0.0,0.0,0.0,0.0,0.0,0.0,0.0,0.0,0.0,0.0,0.0,0.0,0.0,0.0,0.0,0.0,0.0,0.0,-2.758,-2.8255,-2.9068,-2.9943,-3.0085,-3.0189,-3.0291,-2.9269,-2.8412,0.0,0.0,0.0,0.0,0.0,0.0,0.0,0.0,0.0,0.0,0.0,0.0,0.0,0.0,0.0,0.0,0.0,0.0,0.0,0.0,0.0,0.0,0.0,0.0,0.0,0.0,0.0,0.0,0.0,0.0,0.0,0.0,0.0,0.0,0.0,0.0,0.0,0.0,0.0,0.0,0.0,-2.3434,-2.4124,-2.365,0.0,0.0,0.0,0.0,-2.2977,-2.3158,0.0,0.0,0.0,0.0,0.0,0.0,0.0,0.0,0.0,0.0,0.0,0.0,0.0,0.0,0.0,0.0,0.0,0.0,0.0,0.0,0.0,0.0,0.0,0.0,0.0,0.0,0.0,0.0,0.0,0.0,0.0,0.0,0.0,0.0,0.0,0.0,0.0,0.0,0.0,0.0,0.0,0.0,0.0,0.0,0.0,0.0,0.0,0.0,0.0,0.0,0.0,0.0,0.0,0.0,0.0,0.0,-2.7516,-2.8294,-2.9014,-2.9633,-2.9845,-2.9942,-2.9939,-2.8256,-2.7415,0.0,0.0,0.0,0.0,0.0,0.0,0.0,0.0,0.0,0.0,0.0,0.0,0.0,0.0,0.0,0.0,0.0,0.0,0.0,0.0,0.0,0.0,0.0,0.0,0.0,0.0,0.0,0.0,0.0,0.0,0.0,0.0,0.0,0.0,0.0,0.0,0.0,0.0,0.0,0.0,0.0,-2.3402,-2.4184,-2.3723,-2.3236,0.0,0.0,-2.4072,-2.372,-2.4044,0.0,0.0,0.0,0.0,0.0,0.0,0.0,0.0,0.0,0.0,0.0,0.0,0.0,0.0,0.0,0.0,0.0,0.0,0.0,0.0,0.0,0.0,0.0,0.0,0.0,0.0,0.0,0.0,0.0,0.0,0.0,0.0,0.0,0.0,0.0,0.0,0.0,0.0,0.0,0.0,0.0,0.0,0.0,0.0,0.0,0.0,0.0,0.0,0.0,0.0,0.0,0.0,0.0,0.0,0.0,-2.7154,-2.7509,-2.8558,-2.9269,-2.9589,-2.9671,-2.9758,-2.9853,-2.8134,-2.7281,0.0,0.0,0.0,0.0,0.0,0.0,0.0,0.0,0.0,0.0,0.0,0.0,0.0,0.0,0.0,0.0,0.0,0.0,0.0,0.0,0.0,0.0,0.0,0.0,0.0,0.0,0.0,0.0,0.0,0.0,0.0,0.0,0.0,0.0,0.0,0.0,0.0,0.0,0.0,0.0,0.0,0.0,-2.3868,-2.3846,0.0,0.0,0.0,-2.3964,-2.3112,0.0,0.0,0.0,0.0,0.0,0.0,0.0,0.0,0.0,0.0,0.0,0.0,0.0,0.0,0.0,0.0,0.0,0.0,0.0,0.0,0.0,0.0,0.0,0.0,0.0,0.0,0.0,0.0,0.0,0.0,0.0,0.0,0.0,0.0,0.0,0.0,0.0,0.0,0.0,0.0,0.0,0.0,0.0,0.0,0.0,0.0,0.0,0.0,0.0,0.0,0.0,0.0,0.0,0.0,0.0,0.0,0.0,-2.745,-2.8736,-2.946,-2.9541,-2.9551,-2.9598,-2.9643,-2.8242,0.0,0.0,0.0,0.0,0.0,0.0,0.0,0.0,0.0,0.0,0.0,0.0,0.0,0.0,0.0,0.0,0.0,0.0,0.0,0.0,0.0,0.0,0.0,0.0,0.0,0.0,0.0,-2.037,0.0,0.0,0.0,0.0,0.0,0.0,0.0,0.0,0.0,0.0,0.0,0.0,0.0,0.0,-2.3836,-2.3769,-2.4033,-2.4132,0.0,0.0,-2.3949,-2.3144,-2.4035,-2.4426,0.0,0.0,0.0,0.0,0.0,0.0,0.0,0.0,0.0,0.0,0.0,0.0,0.0,0.0,0.0,0.0,0.0,0.0,0.0,0.0,0.0,0.0,0.0,0.0,0.0,0.0,0.0,0.0,0.0,0.0,0.0,0.0,0.0,0.0,0.0,0.0,0.0,0.0,0.0,0.0,0.0,0.0,0.0,0.0,0.0,0.0,0.0,0.0,0.0,0.0,0.0,0.0,0.0,0.0,0.0,-2.7274,-2.866,-2.9407,-2.9399,-2.9409,-2.9396,-2.9336,-2.8431,-2.7667,0.0,0.0,0.0,0.0,0.0,0.0,0.0,0.0,0.0,0.0,0.0,0.0,0.0,0.0,0.0,0.0,0.0,0.0,0.0,0.0,0.0,0.0,0.0,0.0,0.0,0.0,0.0,0.0,0.0,0.0,0.0,0.0,0.0,0.0,0.0,0.0,0.0,0.0,0.0,0.0,0.0,-2.4049,-2.4208,-2.4271,-2.4395,0.0,0.0,-2.4362,-2.4606,-2.5273,-2.5555,-2.4838,0.0,0.0,0.0,0.0,0.0,0.0,0.0,0.0,0.0,0.0,0.0,0.0,0.0,0.0,0.0,0.0,0.0,0.0,0.0,0.0,0.0,0.0,0.0,0.0,0.0,0.0,0.0,0.0,0.0,0.0,0.0,0.0,0.0,0.0,0.0,0.0,0.0,0.0,0.0,0.0,0.0,0.0,0.0,0.0,0.0,0.0,0.0,0.0,0.0,0.0,0.0,0.0,0.0,-2.7188,-2.715,-2.8553,-2.9283,-2.9272,-2.9283,-2.9232,-2.9186,-2.8338,-2.7426,0.0,0.0,0.0,0.0,0.0,0.0,0.0,0.0,0.0,0.0,0.0,0.0,0.0,0.0,0.0,0.0,0.0,0.0,0.0,0.0,0.0,0.0,0.0,0.0,0.0,0.0,0.0,0.0,-2.2895,-2.3074,-2.2954,0.0,0.0,0.0,0.0,0.0,0.0,0.0,0.0,0.0,0.0,-2.4017,-2.4597,-2.478,0.0,0.0,-2.5508,-2.5511,-2.5476,-2.6077,-2.6178,-2.5015,-2.4871,0.0,0.0,0.0,0.0,0.0,0.0,0.0,0.0,0.0,0.0,0.0,0.0,0.0,0.0,0.0,0.0,0.0,0.0,0.0,0.0,0.0,0.0,0.0,0.0,0.0,0.0,0.0,0.0,0.0,0.0,0.0,0.0,0.0,0.0,0.0,0.0,0.0,0.0,0.0,0.0,0.0,0.0,0.0,0.0,0.0,0.0,0.0,0.0,0.0,0.0,0.0,0.0,-2.7417,-2.7363,-2.9055,-2.9928,-2.9909,-2.9819,-2.9719,-2.96,-2.8925,-2.7967,0.0,0.0,0.0,0.0,0.0,0.0,0.0,0.0,0.0,0.0,0.0,0.0,0.0,0.0,0.0,0.0,0.0,0.0,0.0,0.0,0.0,0.0,0.0,0.0,0.0,0.0,0.0,0.0,-2.3472,-2.347,-2.2957,0.0,0.0,0.0,0.0,0.0,0.0,0.0,0.0,0.0,0.0,-2.4558,-2.4924,-2.5259,-2.559,-2.5941,-2.5951,-2.5973,-2.5974,-2.6432,-2.6465,-2.5694,0.0,0.0,0.0,0.0,0.0,0.0,0.0,0.0,0.0,0.0,0.0,0.0,0.0,0.0,0.0,0.0,0.0,0.0,0.0,0.0,0.0,0.0,0.0,0.0,0.0,0.0,0.0,0.0,0.0,0.0,-2.4509,0.0,0.0,0.0,0.0,0.0,0.0,0.0,0.0,0.0,0.0,0.0,0.0,0.0,0.0,0.0,0.0,0.0,0.0,0.0,0.0,0.0,0.0,-2.8109,-2.8024,-3.0268,-3.15,-3.15,-3.1223,-3.0916,-3.0726,-3.042,-2.9455,-2.7791,0.0,0.0,0.0,0.0,0.0,0.0,0.0,0.0,0.0,0.0,0.0,0.0,0.0,0.0,0.0,0.0,0.0,0.0,0.0,0.0,0.0,0.0,0.0,0.0,0.0,0.0,-2.198,-2.2493,-2.2924,0.0,0.0,0.0,0.0,0.0,0.0,0.0,0.0,0.0,0.0,-2.4728,-2.5801,-2.5175,-2.5705,-2.6133,-2.6199,-2.5622,-2.5391,-2.61,-2.6234,-2.6468,0.0,0.0,0.0,0.0,0.0,0.0,0.0,0.0,0.0,0.0,0.0,0.0,0.0,0.0,0.0,0.0,0.0,0.0,0.0,0.0,0.0,0.0,0.0,0.0,0.0,0.0,0.0,-2.6363,-2.6363,0.0,0.0,0.0,0.0,0.0,0.0,0.0,0.0,0.0,0.0,0.0,-2.512,-2.4932,0.0,0.0,0.0,0.0,0.0,0.0,0.0,0.0,0.0,0.0,0.0,0.0,-2.851,-2.8539,-2.9997,-3.0802,-3.0802,-3.0707,-3.0586,-3.0545,-3.0341,-2.9662,-2.8486,0.0,0.0,0.0,0.0,0.0,0.0,0.0,0.0,0.0,0.0,0.0,0.0,0.0,0.0,0.0,0.0,0.0,0.0,0.0,0.0,0.0,0.0,0.0,0.0,0.0,-2.2792,0.0,0.0,0.0,0.0,0.0,0.0,0.0,0.0,0.0,0.0,0.0,-2.3448,-2.4497,-2.4588,-2.4663,-2.4922,-2.5166,-2.5664,0.0,0.0,0.0,0.0,0.0,0.0,0.0,0.0,0.0,0.0,0.0,0.0,0.0,0.0,-2.6803,-2.6976,-2.7538,-2.8048,-2.8285,0.0,0.0,0.0,0.0,0.0,0.0,0.0,0.0,0.0,0.0,0.0,0.0,0.0,0.0,0.0,0.0,-2.75,0.0,0.0,0.0,0.0,0.0,0.0,0.0,0.0,-2.5987,-2.6147,-2.6362,-2.6202,-2.6197,0.0,-2.6767,-2.6286,0.0,0.0,0.0,0.0,0.0,0.0,0.0,0.0,-2.905,-2.8959,-3.042,-3.1202,-3.1186,-3.1046,-3.0933,-3.0868,-3.0414,-2.9899,-2.9261,-2.7709,-2.6642,0.0,0.0,0.0,0.0,0.0,0.0,0.0,0.0,0.0,0.0,0.0,0.0,0.0,0.0,0.0,0.0,0.0,0.0,0.0,0.0,0.0,0.0,0.0,-2.2784,0.0,0.0,0.0,0.0,0.0,0.0,0.0,0.0,0.0,-2.4076,-2.389,-2.4135,-2.5109,-2.5056,-2.4914,-2.4902,0.0,0.0,0.0,0.0,0.0,0.0,0.0,-2.6382,-2.5839,-2.6254,-2.6695,-2.6849,-2.6788,-2.6859,-2.7264,0.0,0.0,-2.7692,-2.8421,-2.8993,-2.8812,-2.8333,-2.8167,-2.8946,-2.8643,-2.844,0.0,0.0,0.0,0.0,0.0,0.0,0.0,0.0,-2.8205,-2.7844,0.0,-2.7933,0.0,0.0,0.0,0.0,0.0,-2.7556,0.0,0.0,-2.8628,-2.8818,-2.8032,-2.7998,-2.8015,-2.7998,-2.7677,-2.7504,-2.7502,-2.7888,0.0,0.0,0.0,0.0,0.0,0.0,-2.9705,-2.9447,-3.1509,-3.2635,-3.2601,-3.2179,-3.1897,-3.1737,-3.0711,-3.0161,-3.0055,-2.8955,-2.8302,-2.8268,-2.7148,0.0,0.0,0.0,0.0,0.0,0.0,0.0,0.0,0.0,0.0,0.0,0.0,0.0,0.0,0.0,0.0,0.0,0.0,0.0,0.0,-2.2111,0.0,0.0,0.0,0.0,0.0,0.0,0.0,0.0,0.0,0.0,-2.4279,-2.455,-2.4803,-2.4839,0.0,0.0,0.0,0.0,-2.6441,-2.5158,-2.4922,-2.4993,-2.5171,-2.5715,-2.639,-2.7179,0.0,0.0,-2.841,-2.7223,-2.6598,-2.7438,-2.7912,-2.7989,-2.7534,-2.8384,-2.8984,-2.8651,-2.8837,-2.9097,-2.915,-2.9144,-2.9092,-3.0726,0.0,0.0,0.0,0.0,-2.9665,-2.984,-3.0184,-3.0138,-2.9983,-2.979,-3.0062,0.0,0.0,0.0,0.0,0.0,0.0,-2.7988,-2.8194,-2.857,-2.8716,-2.869,-2.8707,-2.8725,-2.8725,-2.912,-2.9309,-2.9361,-3.002,-2.9293,-2.729,0.0,0.0,0.0,0.0,-3.0097,-3.0536,-3.1394,-3.1839,-3.1839,-3.1727,-3.1579,-3.1451,-3.113,-3.0777,-3.0403,-2.9527,-2.8696,-2.7838,-2.6848,0.0,0.0,0.0,0.0,0.0,0.0,0.0,0.0,0.0,0.0,0.0,0.0,0.0,0.0,0.0,0.0,0.0,0.0,0.0,-2.254,-2.3029,-2.3157,0.0,0.0,0.0,0.0,0.0,0.0,0.0,0.0,0.0,-2.561,-2.4922,-2.4745,0.0,0.0,-2.4575,-2.4544,-2.4983,-2.5339,-2.5513,0.0,0.0,0.0,-2.6322,-2.6293,-2.6287,-2.6819,-2.7264,-2.7287,-2.7383,-2.7557,-2.7851,-2.8319,-2.8543,-2.8264,-2.8896,-2.9584,-2.9827,-2.9745,-2.9741,-3.0005,-3.0086,-3.0066,-3.1974,-3.1503,-3.0948,-3.0797,-3.0936,-3.0833,-3.0993,-3.1307,-3.1272,-3.1098,-3.0838,-3.1168,-3.0639,-2.9501,-2.9511,0.0,0.0,0.0,-2.9313,-2.9747,-2.9799,-2.9867,-2.9968,-3.0002,-2.9966,-2.9929,-3.0503,-3.0706,-3.0571,-3.0919,-3.0214,-2.8617,0.0,0.0,-2.91,-2.9898,-3.0452,-3.0768,-3.1185,-3.1423,-3.1406,-3.1385,-3.1327,-3.1271,-3.1081,-3.0825,-3.0518,-2.9897,-2.92,-2.843,-2.7575,-2.6558,0.0,0.0,0.0,0.0,0.0,0.0,0.0,0.0,0.0,0.0,0.0,-2.1871,-2.1794,0.0,0.0,0.0,-2.2416,-2.2686,-2.3135,-2.3415,0.0,0.0,0.0,0.0,0.0,0.0,0.0,-2.4822,-2.5453,-2.5986,-2.5933,-2.5287,-2.519,-2.6105,-2.5401,-2.4822,-2.4874,0.0,-2.5488,-2.5778,-2.5731,-2.589,-2.6462,-2.6642,-2.6719,-2.6824,-2.7157,-2.743,-2.7461,-2.7844,-2.8152,-2.8217,-2.8477,-2.8629,-2.842,-2.8865,-2.9387,-2.9843,-2.9865,-2.9903,-3.0182,-3.0225,-3.0208,-3.2622,-3.2515,-3.1446,-3.1222,-3.1524,-3.1347,-3.1463,-3.18,-3.18,-3.142,-3.0851,-3.1507,-3.1113,-2.9968,-3.0065,0.0,-3.0784,-3.089,-3.1165,-3.1617,-3.1727,-3.1688,-3.1481,-3.1481,-3.1443,-3.1298,-3.1623,-3.1621,-3.1283,-3.0935,-3.0681,-3.0559,-3.0734,-3.0437,-2.979,-3.0402,-3.0629,-3.0405,-3.0944,-3.1227,-3.1295,-3.1193,-3.1151,-3.1151,-3.0699,-3.0435,-3.0356,-2.9968,-2.9683,-2.9464,-2.882,-2.8078,-2.719,0.0,0.0,0.0,0.0,0.0,0.0,0.0,0.0,0.0,0.0,0.0,0.0,0.0,0.0,0.0,-2.2601,0.0,-2.3696,-2.3589,0.0,0.0,0.0,-2.5172,-2.5728,-2.6081,-2.6251,-2.616,0.0,0.0,-2.5689,0.0,-2.5929,-2.6587,-2.6596,-2.6327,-2.576,-2.6195,-2.645,-2.6012,-2.5983,-2.6106,-2.6504,-2.6941,-2.7485,-2.8093,-2.8372,-2.8317,-2.8301,-2.8356,-2.8387,-2.8387,-2.8372,-2.8411,-2.8411,-2.8444,-2.8525,-2.8997,-2.9416,-2.9728,-2.9766,-2.9793,-2.9815,-3.2737,-3.257,-3.2149,-3.1963,-3.1934,-3.1741,-3.1701,-3.18,-3.18,-3.1715,-3.1541,-3.1732,-3.1575,-3.1176,-3.1195,-3.1281,-3.1379,-3.1433,-3.1482,-3.1617,-3.1617,-3.1578,-3.1481,-3.1481,-3.1498,-3.1462,-3.1521,-3.1485,-3.1315,-3.1187,-3.0849,-3.0302,-3.0136,-2.9928,-2.9708,-2.9627,-2.9829,-3.0245,-3.0377,-3.0713,-3.1196,-3.0858,-3.0679,-3.0658,-3.0204,-2.9793,-2.9461,-2.9325,-2.9044,-2.855,-2.8268,-2.774,-2.6925,-2.6009,0.0,0.0,0.0,0.0,0.0,0.0,0.0,0.0,0.0,-2.2058,-2.1959,0.0,-2.2355,0.0,-2.3445,-2.445,-2.5195,-2.5413,0.0,0.0,-2.5804,-2.6215,-2.5713,-2.6413,-2.665,-2.5854,-2.6105,-2.6363,-2.6348,-2.6363,-2.6602,-2.7255,-2.6467,-2.5967,-2.6297,-2.6571,-2.6799,-2.6883,-2.7194,-2.7543,-2.7666,-2.7859,-2.8012,-2.822,-2.8235,-2.8235,-2.8259,-2.8323,-2.8372,-2.8299,-2.8323,-2.8411,-2.8411,-2.8411,-2.846,-2.8589,-2.8943,-2.9257,-2.928,-2.9528,-2.9683,-3.337,-3.3219,-3.2664,-3.2335,-3.2161,-3.1911,-3.18,-3.18,-3.18,-3.18,-3.18,-3.18,-3.1763,-3.1673,-3.169,-3.1673,-3.1673,-3.169,-3.169,-3.169,-3.169,-3.1634,-3.154,-3.1557,-3.1462,-3.1288,-3.1269,-3.1173,-3.0942,-3.0958,-3.074,-3.0353,-3.0195,-2.9911,-2.9546,-2.9203,-2.9271,-2.9696,-2.9812,-3.0084,-3.0543,-3.0309,-3.0039,-2.9728,-2.9302,-2.8786,-2.8218,-2.7994,-2.7713,-2.7332,-2.7228,-2.6831,-2.6033,-2.5337,-2.4663,0.0,0.0,0.0,0.0,0.0,0.0,0.0,0.0,0.0,0.0,0.0,-2.2461,-2.2618,-2.3641,-2.4458,-2.4925,-2.5091,-2.5236,-2.5403,-2.5773,-2.6141,-2.6437,-2.6776,-2.6866,-2.6527,-2.6821,-2.7046,-2.7046,-2.7021,-2.7205,-2.763,-2.7045,-2.6699,-2.7062,-2.7248,-2.7394,-2.7612,-2.7908,-2.8128,-2.8275,-2.8299,-2.8299,-2.8299,-2.8275,-2.8299,-2.8299,-2.8348,-2.8372,-2.8323,-2.8348,-2.8411,-2.8411,-2.8411,-2.8411,-2.8444,-2.8581,-2.8756,-2.8795,-2.8974,-2.9067,-3.4225,-3.4103,-3.3117,-3.2578,-3.2372,-3.1963,-3.18,-3.18,-3.18,-3.18,-3.18,-3.1763,-3.1727,-3.1727,-3.1707,-3.169,-3.1744,-3.169,-3.169,-3.1727,-3.169,-3.1598,-3.1487,-3.1504,-3.1312,-3.0978,-3.0955,-3.0794,-3.0526,-3.0468,-3.0414,-3.0336,-3.0257,-2.9873,-2.9208,-2.8815,-2.8721,-2.8921,-2.9249,-2.9494,-2.9735,-2.9605,-2.9264,-2.8665,-2.8146,-2.7614,-2.703,-2.6616,-2.6335,-2.6206,-2.6123,-2.577,-2.5135,-2.4469,-2.3851,0.0,-2.2704,0.0,0.0,0.0,0.0,0.0,0.0,0.0,0.0,-2.213,-2.2442,-2.3108,-2.3688,-2.4063,-2.4133,-2.4133,-2.4589,-2.5574,-2.5391,-2.5735,-2.7166,-2.7034,-2.6997,-2.7448,-2.7534,-2.7585,-2.757,-2.7575,-2.7615,-2.7665,-2.768,-2.7605,-2.767,-2.782,-2.8018,-2.821,-2.821,-2.8259,-2.8372,-2.8411,-2.8387,-2.8411,-2.8411,-2.8411,-2.8411,-2.8411,-2.8411,-2.8411,-2.8411,-2.8411,-2.8411,-2.8411,-2.8411,-2.8411,-2.8436,-2.8444,-2.8444,-2.8468,-2.8411,-3.4835,-3.4498,-3.3688,-3.3123,-3.2722,-3.2096,-3.18,-3.18,-3.18,-3.18,-3.1781,-3.1523,-3.1408,-3.1389,-3.1103,-3.1123,-3.1372,-3.1103,-3.114,-3.1372,-3.1103,-3.0985,-3.0965,-3.0965,-3.0925,-3.0841,-3.0662,-3.0634,-3.0651,-3.023,-2.9828,-2.9449,-2.8999,-2.8563,-2.8114,0.0,0.0,0.0,-2.892,-2.9422,-2.944,-2.8588,-2.8045,-2.7895,-2.7079,0.0,-2.6536,-2.6463,-2.6335,-2.6206,-2.5686,0.0,0.0,0.0,0.0,0.0,0.0,0.0,0.0,0.0,0.0,0.0,-2.2922,-2.2879,-2.2911,-2.2899,-2.3351,-2.4413,-2.4633,-2.4899,-2.539,-2.5446,-2.5542,-2.5748,-2.6097,-2.6328,-2.6215,-2.6864,-2.7306,-2.6919,-2.728,-2.76,-2.7534,-2.7397,-2.7284,-2.7335,-2.7514,-2.7458,-2.7148,-2.771,-2.8201,-2.8348,-2.8299,-2.8348,-2.8411,-2.8372,-2.8323,-2.8411,-2.8411,-2.8427,-2.8442,-2.8442,-2.8411,-2.8411,-2.8411,-2.8411,-2.8411,-2.8411,-2.8411,-2.8411,-2.8411,-2.8411,-2.8411,-2.8411,-2.8411,-3.5705,0.0,-3.4588,-3.4038,0.0,-3.285,-3.2428,-3.2317,-3.1771,-3.1449,-3.1295,-3.114,-3.1044,-3.1044,-3.0885,-3.0845,-3.0905,-3.0825,-3.0784,-3.071,-3.0666,-3.0601,-3.0427,-3.0464,-3.0365,-3.0213,-3.0107,-3.0011,-2.9913,-2.9639,-2.938,-2.9145,-2.8876,-2.8646,-2.8431,-2.817,-2.8033,-2.7944,-2.8441,-2.8753,-2.8872,-2.8364,-2.7883,-2.7551,0.0,0.0,0.0,0.0,0.0,0.0,0.0,0.0,0.0,0.0,0.0,-2.3884,-2.3454,-2.3308,-2.3567,-2.3607,-2.3609,-2.3602,-2.3601,-2.3482,-2.3189,-2.3415,-2.386,-2.4448,-2.4516,-2.4624,-2.4922,-2.495,-2.5062,-2.537,-2.5425,-2.5481,-2.5769,-2.6095,-2.6324,-2.6336,-2.6669,-2.6956,-2.6956,-2.6956,-2.6971,-2.7034,-2.7034,-2.706,-2.7097,-2.776,-2.8259,-2.8128,-2.7875,-2.776,-2.7775,-2.776,-2.8026,-2.8419,-2.8591,-2.869,-2.8855,-2.8889,-2.8787,-2.8504,-2.8411,-2.8411,-2.8411,-2.8411,-2.8411,-2.8411,-2.8411,-2.8411,-2.8411,-2.8411,-2.8411,-3.6577,-3.6417,-3.551,-3.4993,-3.4716,-3.3799,-3.314,-3.2662,0.0,0.0,0.0,-3.0764,-3.0703,-3.0662,-3.0642,-3.0559,-3.0435,-3.0502,-3.0381,-3.0091,-3.0208,-3.0145,-2.9919,-2.9919,-2.9783,-2.9534,-2.9451,-2.9325,-2.9098,-2.9021,-2.8982,-2.9029,-2.8982,-2.8975,-2.8959,-2.8748,-2.849,-2.8178,-2.8036,-2.8114,-2.8316,-2.8223,-2.7898,-2.7326,-2.7242,-2.6903,-2.6305,-2.6304,-2.6244,-2.6092,-2.5741,-2.5331,-2.4862,-2.4149,-2.3573,-2.3152,-2.2908,-2.2926,-2.3341,-2.3352,-2.3561,-2.4086,-2.4125,-2.3874,-2.3378,-2.3809,-2.4125,-2.4125,-2.4125,-2.4112,-2.4125,-2.4125,-2.4287,-2.4791,-2.4505,-2.4635,-2.537,-2.5398,-2.5481,-2.5715,-2.6149,-2.6336,-2.6351,-2.6457,-2.6549,-2.6587,-2.6508,-2.6575,-2.7071,-2.766,-2.7989,-2.77,-2.7527,-2.7355,-2.7329,-2.7517,-2.7828,-2.8678,-2.8741,-2.8796,-2.9053,-2.9154,-2.8863,-2.8195,-2.8226,-2.8226,-2.8201,-2.8113,-2.8162,-2.8162,-2.8177,-2.8162,-2.8162,-2.8137,-2.8113,-3.7214,-3.6858,-3.6197,-3.5636,-3.5074,-3.4486,-3.3429,-3.21,-3.1557,-3.1276,-3.1181,-3.0625,-3.0272,-3.0113,-3.0044,-3.0044,-3.0054,-2.9788,-2.9793,0.0,-2.9522,-2.9282,-2.9243,-2.9243,-2.922,-2.9152,-2.8943,-2.892,-2.9029,-2.8692,-2.8573,-2.8724,-2.8573,-2.8493,-2.8493,-2.8444,-2.8422,-2.8362,-2.8122,-2.8014,-2.8063,-2.7482,-2.7158,-2.7058,-2.6683,-2.6245,-2.5817,-2.6184,-2.6032,-2.531,-2.5057,-2.4964,-2.5015,-2.4415,-2.4123,-2.4245,-2.4241,-2.4136,-2.3968,-2.3995,-2.4034,-2.4099,-2.4125,-2.4073,-2.3979,-2.4073,-2.4125,-2.4125,-2.4125,-2.4125,-2.4125,-2.4125,-2.4141,-2.4258,-2.462,-2.4763,-2.4505,-2.5356,-2.5824,-2.5467,-2.6176,-2.6484,-2.6244,-2.6096,-2.592,-2.5755,-2.5933,-2.6363,-2.6864,-2.7199,-2.7251,-2.7288,-2.7623,-2.7907,-2.7888,-2.8383,-2.8605,-2.8908,-2.8562,-2.8305,-2.8378,-2.8306,-2.8006,-2.7408,-2.7635,-2.7725,-2.7433,-2.7276,-2.7367,-2.7393,-2.7393,-2.7327,-2.7352,-2.7174,-2.7159,-3.7334,-3.7127,-3.664,-3.6265,-3.5931,-3.4932,-3.3635,-3.2198,-3.1599,-3.1045,-3.0531,-3.0215,-3.0022,-2.9951,-2.9902,-2.982,-2.9722,-2.9582,-2.9448,-2.9273,-2.9013,-2.8834,-2.8716,-2.8732,-2.8716,-2.8716,-2.8597,-2.8581,-2.8692,-2.8493,-2.8444,-2.8525,-2.8444,-2.8411,-2.8411,-2.8411,-2.8314,-2.8088,-2.8168,-2.8132,-2.7888,-2.7596,-2.7294,-2.705,-2.6826,-2.6656,-2.6461,-2.6647,-2.6598,-2.6188,-2.5887,-2.5776,-2.584,-2.5052,-2.4637,-2.4738,-2.445,-2.4216,-2.4125,-2.4125,-2.4125,-2.4125,-2.4125,-2.4125,-2.4125,-2.4125,-2.4125,-2.4125,-2.4125,-2.4125,-2.4125,-2.4125,-2.4125,-2.4125,-2.4361,-2.4403,-2.4229,-2.4607,-2.4978,-2.478,-2.5161,-2.5453,-2.5356,-2.537,-2.5397,-2.5231,-2.5564,-2.5921,-2.6233,-2.6651,-2.7014,-2.7231,-2.7355,-2.7564,-2.788,-2.8139,-2.8439,-2.868,-2.8518,-2.8292,-2.8204,-2.804,-2.7747,-2.7248,-2.7291,-2.7316,-2.7097,-2.7097,-2.7097,-2.7097,-2.6953,-2.6901,-2.6849,-2.6493,-2.6388,-3.7089,-3.7009,-3.665,-3.6464,-3.6312,-3.5036,-3.3656,-3.2307,-3.1615,-3.0712,-2.9796,-2.9792,-2.977,-2.9726,-2.971,-2.9554,-2.9335,-2.9312,-2.9106,-2.8708,-2.8677,-2.8549,-2.842,-2.8411,-2.8411,-2.8411,-2.8411,-2.8411,-2.8411,-2.8411,-2.8411,-2.8411,-2.8411,-2.8348,-2.825,-2.8275,-2.8079,-2.77,-2.7949,-2.7965,-2.765,-2.765,-2.7444,-2.7148,-2.7108,-2.703,-2.6967,-2.7045,-2.7019,-2.6837,-2.6616,-2.6431,-2.6258,-2.5522,-2.5047,-2.485,-2.4434,-2.4171,-2.4125,-2.4125,-2.4125,-2.4125,-2.4125,-2.4125,-2.4096,-2.4243,-2.4256,-2.4138,-2.4125,-2.4125,-2.4125,-2.4125,-2.4125,-2.4125,-2.4125,-2.4112,-2.4125,-2.4171,-2.4187,-2.4216,-2.4421,-2.4666,-2.4624,-2.4751,-2.4907,-2.5047,-2.5285,-2.5536,-2.5814,-2.6413,-2.6947,-2.7442,-2.7414,-2.7497,-2.7932,-2.8046,-2.8206,-2.8512,-2.824,-2.7979,-2.7835,-2.7822,-2.7556,-2.694,-2.689,-2.689,-2.6837,-2.6785,-2.6733,-2.6642,-2.6443,-2.6349,-2.612,-2.5714,-2.5659,-3.6542,-3.6224,-3.6054,-3.5825,-3.5525,-3.4572,-3.3439,-3.2233,-3.1381,-3.0338,-2.93,-2.9441,-2.9396,-2.919,-2.9206,-2.9075,-2.8826,-2.8779,-2.874,-2.87,-2.8501,-2.842,-2.8411,-2.8411,-2.8411,-2.8411,-2.8411,-2.8411,-2.8411,-2.8411,-2.8411,-2.8411,-2.8411,-2.8201,-2.789,-2.784,-2.7625,-2.7174,-2.7199,-2.7199,-2.7174,-2.7148,-2.7122,-2.7122,-2.7097,-2.6916,-2.659,-2.6916,-2.6759,-2.6123,-2.6297,-2.619,-2.5674,-2.5481,-2.5188,-2.4595,-2.4494,-2.4363,-2.4141,-2.4125,-2.4125,-2.4125,-2.4125,-2.4125,-2.4138,-2.457,-2.4678,-2.4256,-2.4125,-2.4164,-2.4125,-2.4125,-2.4125,-2.4125,-2.4125,-2.4125,-2.4112,-2.4319,-2.4465,-2.4465,-2.4679,-2.4948,-2.485,-2.4723,-2.4736,-2.5005,-2.5326,-2.5771,-2.6371,-2.6706,-2.7225,-2.8171,-2.8493,-2.8463,-2.8589,-2.8605,-2.8493,-2.8526,-2.7666,-2.7117,-2.6918,-2.6727,-2.65,-2.6248,-2.6324,-2.6377,-2.615,-2.6029,-2.5961,-2.5839,-2.5674,-2.5467,-2.4921,-2.4709,-2.5007,-3.5899,-3.572,-3.5554,-3.5419,-3.5209,-3.4535,-3.3676,-3.2713,-3.1581,-3.0585,-2.9682,-2.9249,-2.9036,-2.9114,-2.9114,-2.9029,-2.8936,-2.8756,-2.8685,-2.8685,-2.8477,-2.8411,-2.8411,-2.8411,-2.8411,-2.8411,-2.8411,-2.8411,-2.8411,-2.8411,-2.829,-2.8063,-2.8039,-2.784,-2.7418,-2.7367,-2.7163,-2.6759,-2.6747,-2.6642,-2.6457,-2.6642,-2.6628,-2.6404,-2.6377,-2.6324,-2.6177,-2.6312,-2.6177,-2.5716,-2.5811,-2.5716,-2.5257,-2.5005,-2.4793,-2.4523,-2.4334,-2.4216,-2.4112,-2.4125,-2.4125,-2.4125,-2.4125,-2.4125,-2.4096,-2.4347,-2.4347,-2.4187,-2.4413,-2.4504,-2.4178,-2.4125,-2.4125,-2.4125,-2.4125,-2.4125,-2.4112,-2.4187,-2.4261,-2.4274,-2.4376,-2.4549,-2.4679,-2.4765,-2.4948,-2.5242,-2.5546,-2.5931,-2.6437,-2.6931,-2.7459,-2.7954,-2.837,-2.8712,-2.8841,-2.8597,-2.823,-2.7607,-2.6842,-2.6237,-2.5839,-2.5702,-2.555,-2.5384,-2.5688,-2.5784,-2.5453,-2.555,-2.5592,-2.5313,-2.499,-2.4778,-2.4347,-2.4261,-2.4507,-3.534,-3.5226,-3.4998,-3.4849,-3.4738,-3.4333,-3.3646,-3.2723,-3.1582,-3.0625,-2.9861,-2.8996,-2.8716,-2.8905,-2.8905,-2.8905,-2.8881,-2.87,-2.8645,-2.8605,-2.8468,-2.8411,-2.8411,-2.8411,-2.8411,-2.8411,-2.8411,-2.8339,-2.8226,-2.8073,-2.79,-2.765,-2.76,-2.7382,-2.6967,-2.6927,-2.6733,-2.6392,-2.6338,-2.6204,-2.5988,-2.6177,-2.619,-2.5907,-2.5893,-2.5866,-2.5798,-2.5798,-2.5661,-2.5369,-2.5383,-2.5216,-2.4878,-2.4637,-2.4465,-2.4392,-2.4203,-2.4125,-2.4125,-2.4125,-2.4125,-2.4125,-2.4125,-2.4125,-2.4138,-2.4227,-2.4227,-2.4135,-2.4665,-2.4743,-2.423,-2.4125,-2.4125,-2.4125,-2.4125,-2.4125,-2.4125,-2.4125,-2.4112,-2.4125,-2.4141,-2.4171,-2.4392,-2.4721,-2.5061,-2.5144,-2.5436,-2.5805,-2.6142,-2.6701,-2.7165,-2.7397,-2.7935,-2.8392,-2.8629,-2.8133,-2.7461,-2.6769,-2.6054,-2.5524,-2.5086,-2.5032,-2.5005,-2.5202,-2.5272,-2.5313,-2.5174,-2.5285,-2.5257,-2.492,-2.4635,-2.4376,-2.4187,-2.4099,-2.4112,-3.4927,-3.4675,-3.4325,-3.405,-3.3771,-3.3745,-3.3054,-3.1992,-3.1138,-3.0307,-2.9487,-2.8753,-2.842,-2.8468,-2.8508,-2.8444,-2.8444,-2.8444,-2.842,-2.846,-2.8411,-2.8411,-2.8411,-2.8411,-2.8411,-2.8348,-2.8363,-2.8177,-2.7815,-2.7393,-2.7163,-2.7122,-2.7137,-2.6916,-2.6575,-2.6537,-2.6324,-2.6002,-2.5975,-2.5921,-2.5921,-2.5921,-2.5948,-2.5893,-2.5893,-2.5771,-2.5536,-2.5522,-2.5369,-2.5033,-2.5033,-2.4878,-2.4593,-2.4509,-2.4392,-2.4157,-2.4112,-2.4125,-2.4125,-2.4125,-2.4125,-2.4125,-2.4125,-2.4125,-2.4151,-2.4504,-2.4557,-2.4135,-2.4566,-2.4644,-2.4158,-2.4083,-2.4112,-2.4125,-2.4125,-2.4125,-2.4125,-2.4125,-2.4125,-2.4125,-2.4083,-2.4083,-2.4141,-2.462,-2.4734,-2.4727,-2.4853,-2.5274,-2.5822,-2.607,-2.6387,-2.684,-2.7307,-2.7702,-2.7678,-2.7263,-2.6654,-2.5894,-2.5247,-2.4929,-2.4989,-2.5005,-2.492,-2.492,-2.4892,-2.4892,-2.4948,-2.492,-2.4835,-2.4607,-2.4361,-2.4141,-2.3953,-2.4054,-2.4054,-3.4407,-3.4275,-3.3975,-3.3771,-3.3684,-3.3319,-3.2913,-3.2387,-3.1083,-3.0351,-2.9889,-2.8904,-2.8411,-2.8411,-2.8411,-2.8411,-2.8411,-2.8411,-2.8411,-2.8411,-2.8411,-2.8411,-2.8411,-2.8411,-2.825,-2.8054,-2.8014,-2.779,-2.7367,-2.7188,-2.6967,-2.6733,-2.6721,-2.651,-2.6163,-2.6123,-2.6029,-2.5921,-2.5893,-2.5893,-2.5893,-2.5893,-2.5825,-2.5647,-2.5647,-2.5508,-2.5188,-2.5188,-2.5033,-2.4694,-2.4652,-2.4536,-2.429,-2.4245,-2.4229,-2.4112,-2.4125,-2.4125,-2.4125,-2.4125,-2.4125,-2.4125,-2.4125,-2.4096,-2.4151,-2.4308,-2.4334,-2.4158,-2.3974,-2.3838,-2.3777,-2.3907,-2.4125,-2.4112,-2.4083,-2.4054,-2.4125,-2.4125,-2.4125,-2.4083,-2.3998,-2.3914,-2.3884,-2.3989,-2.4106,-2.4365,-2.4638,-2.502,-2.553,-2.5778,-2.5968,-2.6136,-2.6109,-2.5907,-2.5453,-2.5879,-2.573,-2.4879,-2.4176,-2.3688,-2.3535,-2.3653,-2.3594,-2.3771,-2.3917,-2.4147,-2.4147,-2.4405,-2.4319,-2.4274,-2.4054,-2.3907,-2.3688,-2.3776,-2.3776,-3.405,-3.3949,-3.3771,-3.3591,-3.3414,-3.3043,-3.2827,-3.2548,-3.1092,-3.0402,-3.014,-2.8996,-2.8339,-2.8226,-2.8226,-2.8088,-2.8024,-2.825,-2.8339,-2.8201,-2.8201,-2.8128,-2.7999,-2.7974,-2.785,-2.7585,-2.7408,-2.7188,-2.6916,-2.6785,-2.659,-2.6324,-2.6312,-2.6177,-2.5948,-2.5893,-2.5893,-2.5893,-2.5893,-2.5893,-2.5893,-2.5825,-2.5633,-2.5369,-2.5257,-2.5061,-2.485,-2.4821,-2.4692,-2.4421,-2.4363,-2.429,-2.4141,-2.4125,-2.4125,-2.4125,-2.4125,-2.4125,-2.4125,-2.4125,-2.4125,-2.4125,-2.4096,-2.4067,-2.3907,-2.3878,-2.3789,-2.3586,-2.3365,-2.3138,-2.3198,-2.3424,-2.3603,-2.3616,-2.3616,-2.3616,-2.3616,-2.3616,-2.3603,-2.3543,-2.3458,-2.3416,-2.3416,-2.3272,-2.3477,-2.3952,-2.419,-2.4489,-2.4964,-2.5217,-2.5335,-2.5334,-2.5097,-2.4701,-2.4308,-2.4466,-2.4462,-2.3714,-2.3421,-2.2794,-2.2512,-2.2543,-2.2573,-2.2695,-2.2877,-2.3143,-2.3454,-2.3747,-2.3865,-2.3878,-2.3819,-2.3671,-2.3539,-2.3467,-2.3378,-3.3924,-3.371,-3.3684,-3.3388,-3.3005,-3.2881,-3.2691,-3.2237,-3.0955,-3.035,-3.014,-2.8907,-2.8063,-2.784,-2.779,-2.756,-2.7393,-2.7949,-2.8088,-2.78,-2.7775,-2.756,-2.724,-2.7251,-2.7214,-2.7086,-2.6707,-2.651,-2.6484,-2.6204,-2.6002,-2.5921,-2.5975,-2.5975,-2.5893,-2.5893,-2.5893,-2.5893,-2.5893,-2.5893,-2.5866,-2.5647,-2.5369,-2.5005,-2.4723,-2.4551,-2.4523,-2.4494,-2.4392,-2.4171,-2.4112,-2.4112,-2.4096,-2.4054,-2.4096,-2.4096,-2.4083,-2.4054,-2.4067,-2.4024,-2.3923,-2.3923,-2.4024,-2.3776,-2.3463,-2.339,-2.3228,-2.2859,-2.2665,-2.2604,-2.2604,-2.2616,-2.2665,-2.2634,-2.2786,-2.2786,-2.2725,-2.2665,-2.2634,-2.2695,-2.2695,-2.2634,-2.2604,-2.2647,-2.2855,-2.3286,-2.3517,-2.379,-2.4291,-2.446,-2.4299,-2.4267,-2.4178,-2.3863,-2.3435,-2.3084,-2.2877,-2.2604,-2.2573,-2.2329,-2.2206,-2.2206,-2.2175,-2.2267,-2.2421,-2.2665,-2.2967,-2.3263,-2.3437,-2.3467,-2.345,-2.3318,-2.3095,-2.2932,-2.2798,-3.3684,-3.3414,-3.3229,-3.3043,-3.2885,-3.2648,-3.2496,-3.2216,-3.0701,-2.9993,-2.9682,-2.8246,-2.7403,-2.7342,-2.7316,-2.724,-2.7122,-2.7393,-2.7418,-2.7316,-2.7316,-2.724,-2.7097,-2.7097,-2.6941,-2.6654,-2.627,-2.6111,-2.6069,-2.5961,-2.5893,-2.5893,-2.5893,-2.5893,-2.5893,-2.5893,-2.5893,-2.5893,-2.5893,-2.5825,-2.5647,-2.555,-2.5229,-2.4694,-2.4538,-2.4408,-2.4245,-2.4216,-2.4187,-2.4112,-2.4125,-2.4125,-2.4067,-2.3789,-2.3789,-2.3995,-2.3424,-2.3275,-2.3539,-2.3263,-2.31,-2.31,-2.31,-2.301,-2.2889,-2.2859,-2.2768,-2.2543,-2.2329,-2.2125,-2.2063,-2.1827,-2.1939,-2.2531,-2.2634,-2.2573,-2.2543,-2.2573,-2.2634,-2.2561,-2.2329,-2.2156,-2.2147,-2.2158,-2.2377,-2.2918,-2.3221,-2.3561,-2.4024,-2.4103,-2.4005,-2.3765,-2.3479,-2.3015,-2.253,-2.1937,-2.1424,-2.1489,-2.162,-2.1846,-2.1815,-2.1827,-2.1796,-2.1877,-2.2021,-2.2206,-2.25,-2.2786,-2.3022,-2.2992,-2.2889,-2.2677,-2.2433,-2.231,-2.2237,-3.3398,-3.3123,-3.2978,-3.28,-3.2691,-3.2302,-3.2148,-3.1893,-3.0295,-2.9549,-2.9185,-2.7843,-2.7004,-2.689,-2.6864,-2.6785,-2.6669,-2.6628,-2.6654,-2.668,-2.6837,-2.6785,-2.668,-2.6654,-2.6563,-2.6285,-2.6029,-2.5893,-2.5893,-2.5893,-2.5893,-2.5893,-2.5893,-2.5893,-2.5893,-2.5893,-2.5866,-2.5771,-2.5743,-2.5619,-2.5355,-2.5188,-2.4948,-2.4551,-2.4421,-2.4261,-2.4112,-2.4125,-2.4125,-2.4125,-2.4125,-2.4024,-2.3848,-2.3539,-2.345,-2.3365,-2.304,-2.2768,-2.3035,-2.2829,-2.2634,-2.2634,-2.2634,-2.2512,-2.2421,-2.2359,-2.2298,-2.2063,-2.1815,-2.1639,-2.1588,-2.14,-2.1526,-2.2002,-2.2032,-2.2063,-2.2094,-2.2082,-2.2063,-2.197,-2.1827,-2.1753,-2.1853,-2.1934,-2.2192,-2.2811,-2.3075,-2.3316,-2.3707,-2.3695,-2.3419,-2.2993,-2.2468,-2.1992,-2.1542,-2.0831,-2.0042,-2.0269,-2.0592,-2.104,-2.1305,-2.1411,-2.1411,-2.1545,-2.169,-2.1784,-2.2021,-2.247,-2.2725,-2.2531,-2.2329,-2.2237,-2.2094,-2.192,-2.1815,-3.3096,-3.2843,-3.2816,-3.2594,-3.2259,-3.1838,-3.1682,-3.1371,-2.9826,-2.9085,-2.8763,-2.7554,-2.6759,-2.651,-2.6457,-2.6297,-2.5961,-2.6002,-2.6015,-2.6069,-2.6258,-2.6285,-2.6084,-2.6042,-2.6029,-2.5975,-2.5921,-2.5893,-2.5893,-2.5893,-2.5893,-2.5893,-2.5893,-2.5893,-2.5866,-2.5893,-2.5757,-2.5508,-2.5494,-2.5383,-2.5018,-2.4708,-2.4465,-2.4379,-2.4144,-2.3995,-2.3865,-2.3865,-2.3953,-2.4024,-2.3966,-2.3688,-2.342,-2.3343,-2.3017,-2.2738,-2.2604,-2.2512,-2.2543,-2.2421,-2.239,-2.2359,-2.2359,-2.2359,-2.1939,-2.1846,-2.1733,-2.1411,-2.1296,-2.1265,-2.1253,-2.1233,-2.1253,-2.1233,-2.138,-2.1348,-2.1233,-2.1285,-2.138,-2.1328,-2.1256,-2.1374,-2.1855,-2.1939,-2.2455,-2.2903,-2.2926,-2.2993,-2.3062,-2.3005,-2.2674,-2.2139,-2.1508,-2.0984,-2.0543,-1.9804,-1.9177,-1.954,-1.977,-1.9998,-2.056,-2.0764,-2.0935,-2.1115,-2.1293,-2.1388,-2.1577,-2.199,-2.2082,-2.1803,-2.1721,-2.1815,-2.1628,-2.1345,-2.1187,-3.2636,-3.2023,-3.1994,-3.1752,-3.1393,-3.1219,-3.1204,-3.0983,-2.9389,-2.8666,-2.832,-2.6923,-2.6204,-2.6069,-2.6069,-2.5988,-2.5921,-2.5893,-2.5893,-2.5893,-2.5785,-2.5853,-2.5893,-2.5893,-2.5893,-2.5866,-2.5839,-2.5893,-2.5893,-2.5866,-2.5866,-2.5893,-2.5839,-2.5771,-2.5661,-2.5771,-2.5633,-2.5244,-2.5383,-2.5201,-2.4666,-2.4509,-2.4234,-2.3717,-2.3599,-2.3378,-2.304,-2.301,-2.3203,-2.3509,-2.3185,-2.295,-2.2811,-2.2537,-2.2414,-2.2451,-2.197,-2.1765,-2.1939,-2.1796,-2.1608,-2.1588,-2.1671,-2.1526,-2.1443,-2.1411,-2.1316,-2.1201,-2.1201,-2.1201,-2.1201,-2.1201,-2.1201,-2.1201,-2.1161,-2.1204,-2.1201,-2.1201,-2.1201,-2.1201,-2.1224,-2.1456,-2.1883,-2.2193,-2.2536,-2.2777,-2.2613,-2.2404,-2.2328,-2.1757,-2.1219,-2.1091,-2.0636,-2.0062,-1.9448,-1.8755,-1.8509,-1.8877,-1.8967,-1.88,-1.9431,-2.0009,-2.0204,-2.0399,-2.072,-2.088,-2.1115,-2.1463,-2.1273,-2.1135,-2.1028,-2.1017,-2.0698,-2.042,-2.0376,-3.1809,-3.1408,-3.1408,-3.1263,-3.0999,-3.0777,-3.0703,-3.0366,-2.8958,-2.8197,-2.7855,-2.658,-2.5935,-2.5893,-2.5893,-2.5893,-2.5893,-2.5893,-2.5853,-2.5674,-2.5425,-2.5383,-2.5481,-2.5536,-2.5508,-2.5522,-2.5536,-2.5536,-2.5495,-2.5522,-2.5522,-2.5508,-2.5536,-2.5439,-2.5313,-2.5411,-2.5272,-2.4907,-2.4977,-2.475,-2.4102,-2.4044,-2.3679,-2.3198,-2.3065,-2.2902,-2.2622,-2.2421,-2.2555,-2.2871,-2.2768,-2.2512,-2.2298,-2.2051,-2.1939,-2.2021,-2.1463,-2.1336,-2.1494,-2.1348,-2.1233,-2.1201,-2.1201,-2.1201,-2.1233,-2.1201,-2.1201,-2.1201,-2.1201,-2.1201,-2.1201,-2.1201,-2.1063,-2.0786,-2.0868,-2.1031,-2.1161,-2.1201,-2.1305,-2.1431,-2.1514,-2.1778,-2.2353,-2.24,-2.2376,-2.2316,-2.166,-2.1437,-2.1196,-2.0427,-1.9903,-1.991,-1.9648,-1.9032,-1.8636,-1.8052,-1.7716,-1.807,-1.8206,-1.7969,-1.861,-1.9243,-1.9474,-1.9737,-2.0096,-2.0399,-2.0592,-2.0764,-2.0764,-2.0624,-2.0431,-2.0128,-1.9868,-1.9497,-1.9497,-3.097,-3.0911,-3.0911,-3.0911,-3.0762,-3.0403,-3.0221,-2.99,-2.8533,-2.782,-2.7553,-2.6469,-2.5921,-2.5893,-2.5853,-2.5866,-2.5893,-2.5757,-2.5578,-2.5355,-2.5075,-2.4935,-2.492,-2.5061,-2.509,-2.5076,-2.5005,-2.5033,-2.509,-2.5061,-2.5033,-2.509,-2.5061,-2.4991,-2.4948,-2.4935,-2.4736,-2.4408,-2.4321,-2.4002,-2.3484,-2.3348,-2.3083,-2.2634,-2.239,-2.2402,-2.2237,-2.2063,-2.2013,-2.2408,-2.2451,-2.2187,-2.1858,-2.1827,-2.1639,-2.1368,-2.1265,-2.1233,-2.1233,-2.1233,-2.1201,-2.1201,-2.1201,-2.1201,-2.1201,-2.1201,-2.1201,-2.1201,-2.1201,-2.1183,-2.1094,-2.1115,-2.0774,-2.0412,-2.0485,-2.0764,-2.1013,-2.1115,-2.1253,-2.1629,-2.1686,-2.2196,-2.2522,-2.2308,-2.1599,-2.1574,-2.0903,-2.0302,-1.9888,-1.9236,-1.8968,-1.8995,-1.8576,-1.7993,-1.7691,-1.7373,-1.721,-1.721,-1.7339,-1.7407,-1.807,-1.8576,-1.8767,-1.9034,-1.9398,-1.9671,-1.9857,-1.9998,-2.0063,-1.9868,-1.9464,-1.9299,-1.9133,-1.871,-1.8543,-3.0777,-3.0433,-3.0463,-3.0235,-2.9943,-2.9789,-2.9772,-2.9614,-2.8369,-2.7776,-2.7495,-2.6455,-2.5921,-2.5866,-2.5674,-2.5702,-2.5757,-2.5384,-2.5033,-2.4723,-2.4666,-2.4478,-2.4434,-2.4664,-2.4948,-2.492,-2.4977,-2.4948,-2.4948,-2.4835,-2.4977,-2.4892,-2.4736,-2.485,-2.4551,-2.4366,-2.4147,-2.3721,-2.3488,-2.3237,-2.2889,-2.2781,-2.2555,-2.2094,-2.1733,-2.1557,-2.1494,-2.14,-2.14,-2.1474,-2.1526,-2.1557,-2.1431,-2.1368,-2.1316,-2.1253,-2.1201,-2.1201,-2.1201,-2.1201,-2.1201,-2.1201,-2.1201,-2.1201,-2.1201,-2.1169,-2.1169,-2.1201,-2.1213,-2.0942,-2.0798,-2.0561,-2.0336,-2.0205,-2.0215,-2.0334,-2.038,-2.0397,-2.0567,-2.0649,-2.0712,-2.0843,-2.1453,-2.1172,-2.0789,-2.0686,-2.0029,-1.9201,-1.8596,-1.8091,-1.8076,-1.8172,-1.7876,-1.7442,-1.7339,-1.7141,-1.7038,-1.6908,-1.6908,-1.6943,-1.7579,-1.7901,-1.8061,-1.8365,-1.8777,-1.8934,-1.9034,-1.9056,-1.909,-1.88,-1.8566,-1.8365,-1.8138,-1.7774,-1.7569,-3.019,-2.996,-2.996,-2.9851,-2.9602,-2.9602,-2.9509,-2.9177,-2.828,-2.7615,-2.7131,-2.6161,-2.5647,-2.5481,-2.5328,-2.5355,-2.5272,-2.4738,-2.4221,-2.3946,-2.3914,-2.375,-2.356,-2.394,-2.4274,-2.429,-2.4476,-2.4376,-2.406,-2.4131,-2.406,-2.3888,-2.3875,-2.3699,-2.361,-2.3551,-2.3327,-2.31,-2.2907,-2.2683,-2.2341,-2.2279,-2.2075,-2.1671,-2.1348,-2.1201,-2.1233,-2.1233,-2.1201,-2.1201,-2.1201,-2.1201,-2.1201,-2.1201,-2.1201,-2.1201,-2.1201,-2.1201,-2.1201,-2.1201,-2.1201,-2.1169,-2.1201,-2.0999,-2.0796,-2.07,-2.0474,-2.0269,-2.014,-2.0128,-2.0177,-2.031,-2.0124,-1.9821,-1.9899,-1.9889,-1.9696,-1.9911,-2.0339,-2.0473,-2.0674,-2.0959,-2.1015,-2.0445,-1.998,-1.9903,-1.8723,-1.7902,-1.7829,-1.7401,-1.7367,-1.7348,-1.7185,-1.7012,-1.6978,-1.6943,-1.6978,-1.6908,-1.6908,-1.6908,-1.7176,-1.7295,-1.7354,-1.7662,-1.7935,-1.8037,-1.8094,-1.8094,-1.8186,-1.8196,-1.7993,-1.7526,-1.7166,-1.6925,-1.6726,-2.9602,-2.9602,-2.9602,-2.9571,-2.9509,-2.9509,-2.9251,-2.8768,-2.7924,-2.7061,-2.6473,-2.5623,-2.4907,-2.4793,-2.4679,-2.4679,-2.4423,-2.4092,-2.3522,-2.3177,-2.3263,-2.31,-2.2907,-2.3143,-2.3288,-2.3258,-2.3603,-2.3369,-2.3027,-2.3005,-2.319,-2.2743,-2.2683,-2.2834,-2.2683,-2.2512,-2.2543,-2.2525,-2.2359,-2.2175,-2.1858,-2.1796,-2.1588,-2.1348,-2.1221,-2.1201,-2.1201,-2.1201,-2.1201,-2.1201,-2.1201,-2.1201,-2.1201,-2.1201,-2.1201,-2.1201,-2.1201,-2.1106,-2.0924,-2.0935,-2.0935,-2.0924,-2.0828,-2.0539,-2.0074,-1.9901,-1.9704,-1.9351,-1.9191,-1.925,-1.9492,-1.967,-1.9641,-1.9457,-1.9552,-1.9393,-1.9145,-1.9574,-2.0125,-2.0444,-2.0329,-2.045,-2.0391,-2.0033,-1.9551,-1.8942,-1.775,-1.6954,-1.6945,-1.6917,-1.6952,-1.6968,-1.6874,-1.6412,-1.6307,-1.6289,-1.6359,-1.6149,-1.6324,-1.6324,-1.6289,-1.6053,-1.6044,-1.6742,-1.7028,-1.7123,-1.7182,-1.7217,-1.7345,-1.755,-1.732,-1.6777,-1.6412,-1.6114,-1.6008,-2.9602,-2.9602,-2.9602,-2.9446,-2.9194,-2.9162,-2.8624,-2.7839,-2.6808,-2.6035,-2.5362,-2.4347,-2.3875,-2.3758,-2.3505,-2.3284,-2.3195,-2.3075,-2.2967,-2.2665,-2.2707,-2.2604,-2.2543,-2.2604,-2.2555,-2.2372,-2.2616,-2.2665,-2.2561,-2.2665,-2.2604,-2.2604,-2.2512,-2.2512,-2.239,-2.2249,-2.2002,-2.197,-2.1733,-2.1494,-2.1443,-2.138,-2.1348,-2.1201,-2.1201,-2.1201,-2.1201,-2.1201,-2.1201,-2.1201,-2.1201,-2.1169,-2.1042,-2.1042,-2.1074,-2.1106,-2.0999,-2.0732,-2.0355,-2.0269,-1.9933,-1.9573,-1.9507,-1.9441,-1.9243,-1.9177,-1.9034,-1.889,-1.8744,-1.8832,-1.922,-1.9216,-1.9183,-1.9204,-1.9307,-1.9351,-1.9263,-1.9375,-1.9553,-1.9812,-1.9762,-1.9723,-1.9725,-1.9621,-1.9137,-1.8685,-1.7934,-1.723,-1.7046,-1.6965,-1.6885,-1.6822,-1.676,-1.6123,-1.5594,-1.5542,-1.549,-1.4985,-1.4914,-1.495,-1.4835,-1.4514,-1.4692,-1.5534,-1.6044,-1.6219,-1.6289,-1.6324,-1.6438,-1.6568,-1.6298,-1.6026,-1.6008,-1.5903,-1.5797,-2.9477,-2.932,-2.9053,-2.872,-2.8317,-2.775,-2.7194,-2.6536,-2.5675,-2.4926,-2.4277,-2.3611,-2.3195,-2.3045,-2.2925,-2.2622,-2.239,-2.239,-2.2249,-2.197,-2.2094,-2.2063,-2.2002,-2.2113,-2.1939,-2.1702,-2.1796,-2.192,-2.1908,-2.2125,-2.2082,-2.1889,-2.1889,-2.1877,-2.1858,-2.1671,-2.1557,-2.1463,-2.1316,-2.1201,-2.1201,-2.1201,-2.1201,-2.1201,-2.1201,-2.1201,-2.1201,-2.1201,-2.0999,-2.07,-2.0635,-2.0442,-2.0237,-2.0128,-2.0237,-2.0463,-2.0302,-1.9966,-1.9606,-1.9507,-1.9375,-1.911,-1.8977,-1.8811,-1.861,-1.8465,-1.8341,-1.8081,-1.8341,-1.8401,-1.8609,-1.8823,-1.9102,-1.9237,-1.9253,-1.9253,-1.9253,-1.9253,-1.9173,-1.9134,-1.9256,-1.9289,-1.9358,-1.9136,-1.8716,-1.8329,-1.7888,-1.7479,-1.7044,-1.6803,-1.6537,-1.6122,-1.5867,-1.5242,-1.4681,-1.4637,-1.4478,-1.3975,-1.3723,-1.3759,-1.3795,-1.365,-1.3947,-1.4565,-1.4931,-1.4966,-1.5365,-1.5436,-1.5524,-1.5647,-1.5682,-1.5718,-1.5797,-1.577,-1.5505,-2.9085,-2.861,-2.8208,-2.7736,-2.719,-2.6387,-2.5681,-2.5104,-2.4444,-2.3804,-2.3175,-2.2825,-2.2543,-2.2359,-2.2267,-2.2094,-2.1765,-2.1753,-2.1577,-2.1431,-2.1577,-2.1557,-2.1431,-2.1494,-2.1588,-2.1348,-2.1316,-2.1201,-2.1368,-2.162,-2.1526,-2.1411,-2.1253,-2.1201,-2.1265,-2.1316,-2.1201,-2.1201,-2.1201,-2.1201,-2.1201,-2.1201,-2.1094,-2.0987,-2.0955,-2.0903,-2.0603,-2.0571,-2.0334,-2.0031,-1.9835,-1.9639,-1.911,-1.8877,-1.9067,-1.9464,-1.9199,-1.9011,-1.8811,-1.8811,-1.871,-1.8375,-1.8499,-1.824,-1.7969,-1.7706,-1.7545,-1.7176,-1.7522,-1.8027,-1.8267,-1.8733,-1.9127,-1.9213,-1.9134,-1.8975,-1.8807,-1.8727,-1.8527,-1.8567,-1.8767,-1.8877,-1.889,-1.8976,-1.8626,-1.7777,-1.7357,-1.6766,-1.6368,-1.6181,-1.586,-1.521,-1.4733,-1.4142,-1.3766,-1.3702,-1.3397,-1.2887,-1.2821,-1.2851,-1.2931,-1.3004,-1.3266,-1.3339,-1.3193,-1.3295,-1.3882,-1.4502,-1.4617,-1.4804,-1.5177,-1.5213,-1.4919,-1.4848,-1.4705,-2.7966,-2.7139,-2.7072,-2.658,-2.5894,-2.5623,-2.4873,-2.3749,-2.3247,-2.2654,-2.2138,-2.1698,-2.1494,-2.1463,-2.1474,-2.138,-2.1316,-2.1348,-2.1316,-2.1221,-2.1316,-2.1316,-2.1221,-2.1221,-2.1348,-2.1201,-2.1201,-2.1201,-2.1233,-2.1316,-2.1316,-2.1201,-2.1201,-2.1201,-2.1201,-2.1201,-2.1201,-2.1201,-2.1201,-2.1201,-2.1201,-2.1169,-2.0796,-2.0463,-2.0204,-1.9998,-1.9606,-1.9573,-1.9332,-1.921,-1.9144,-1.9067,-1.8911,-1.8398,-1.8206,-1.8408,-1.8576,-1.8744,-1.8216,-1.8104,-1.7901,-1.7545,-1.7339,-1.7132,-1.7166,-1.7141,-1.7081,-1.6987,-1.7376,-1.7825,-1.8145,-1.8483,-1.8887,-1.88,-1.8487,-1.8238,-1.8037,-1.7698,-1.7585,-1.7545,-1.7577,-1.8078,-1.8359,-1.8506,-1.8527,-1.7603,-1.6779,-1.6199,-1.5682,-1.5486,-1.5047,-1.4349,-1.3682,-1.3131,-1.2785,-1.2718,-1.2535,-1.1983,-1.1983,-1.202,-1.2094,-1.2137,-1.1768,-1.1774,-1.17,-1.2063,-1.2901,-1.3448,-1.3637,-1.3926,-1.4338,-1.4114,-1.3753,-1.3753,-1.4006,-2.583,-2.5732,-2.541,-2.4954,-2.438,-2.3791,-2.318,-2.2601,-2.2078,-2.1748,-2.1529,-2.1316,-2.1201,-2.1201,-2.1201,-2.1201,-2.1201,-2.1201,-2.1201,-2.1201,-2.1201,-2.1201,-2.1201,-2.1201,-2.1201,-2.1169,-2.1201,-2.1201,-2.1201,-2.1169,-2.1201,-2.1201,-2.1201,-2.1201,-2.1201,-2.1201,-2.1201,-2.1201,-2.1201,-2.1201,-2.1106,-2.0796,-2.0399,-2.0063,-1.9671,-1.9309,-1.9034,-1.9011,-1.8767,-1.8576,-1.8442,-1.8128,-1.7789,-1.7451,-1.737,-1.7432,-1.7853,-1.7852,-1.7445,-1.7401,-1.7204,-1.7038,-1.6908,-1.6943,-1.6908,-1.6892,-1.7011,-1.7238,-1.7623,-1.7972,-1.8167,-1.8333,-1.8281,-1.8146,-1.7626,-1.7212,-1.6879,-1.6626,-1.6421,-1.6388,-1.6388,-1.6764,-1.705,-1.6976,-1.7025,-1.6685,-1.6091,-1.5759,-1.5102,-1.4604,-1.4053,-1.3379,-1.2756,-1.2149,-1.1895,-1.1737,-1.1805,-1.1477,-1.1477,-1.1477,-1.1335,-1.1186,-1.1117,-1.1117,-1.1335,-1.1737,-1.2211,-1.2542,-1.2872,-1.32,-1.3491,-1.331,-1.3127,-1.3419,-1.3462,-2.3685,-2.3954,-2.3765,-2.3463,-2.3055,-2.223,-2.1858,-2.1675,-2.1406,-2.1244,-2.1201,-2.1201,-2.1201,-2.1201,-2.1201,-2.1201,-2.1201,-2.1201,-2.1063,-2.1031,-2.1063,-2.1063,-2.0999,-2.0999,-2.1094,-2.0935,-2.1138,-2.0903,-2.0667,-2.0807,-2.0935,-2.1201,-2.1201,-2.1201,-2.1201,-2.1169,-2.1126,-2.0828,-2.0828,-2.0732,-2.0495,-2.0074,-1.977,-1.9431,-1.9077,-1.8677,-1.8499,-1.8408,-1.8104,-1.7867,-1.774,-1.7423,-1.6915,-1.7037,-1.7042,-1.7099,-1.7415,-1.7514,-1.7314,-1.7232,-1.705,-1.695,-1.6848,-1.683,-1.6892,-1.6859,-1.6793,-1.6991,-1.7193,-1.7582,-1.7868,-1.7678,-1.755,-1.7106,-1.6552,-1.6093,-1.564,-1.5309,-1.5233,-1.5323,-1.524,-1.5074,-1.5274,-1.5184,-1.526,-1.5426,-1.534,-1.5151,-1.4567,-1.3842,-1.3379,-1.2792,-1.2299,-1.175,-1.1557,-1.1295,-1.1184,-1.1117,-1.1117,-1.1117,-1.1117,-1.1117,-1.1117,-1.1117,-1.1117,-1.126,-1.1663,-1.1929,-1.215,-1.2254,-1.2432,-1.2652,-1.2725,-1.2945,-1.2799,-2.1816,-2.1533,-2.2393,-2.2497,-2.2039,-2.195,-2.164,-2.1328,-2.1204,-2.1106,-2.0967,-2.1138,-2.0999,-2.1074,-2.0935,-2.0967,-2.1094,-2.1201,-2.07,-2.0539,-2.0732,-2.0592,-2.0495,-2.056,-2.072,-2.0366,-2.056,-2.0161,-1.9661,-1.9998,-2.0495,-2.1063,-2.0807,-2.1074,-2.1031,-2.0796,-2.056,-2.0302,-2.0172,-1.9879,-1.954,-1.9133,-1.8834,-1.8365,-1.8104,-1.7774,-1.7141,-1.7235,-1.7235,-1.7097,-1.7097,-1.7033,-1.6712,-1.691,-1.6991,-1.7113,-1.7381,-1.7498,-1.747,-1.7475,-1.735,-1.7036,-1.675,-1.6598,-1.6617,-1.6381,-1.633,-1.6346,-1.6546,-1.6472,-1.6524,-1.6379,-1.6447,-1.6108,-1.5523,-1.4949,-1.4448,-1.3951,-1.3915,-1.4132,-1.4174,-1.4041,-1.3993,-1.4028,-1.407,-1.428,-1.4322,-1.4135,-1.3635,-1.3026,-1.2795,-1.2338,-1.1942,-1.1615,-1.1524,-1.1365,-1.1178,-1.1117,-1.1117,-1.1117,-1.1117,-1.1117,-1.1074,-1.1117,-1.1117,-1.1117,-1.1117,-1.1409,-1.1558,-1.1298,-1.1366,-1.1811,-1.1805,-1.1737,-1.1626,-2.1374,-2.1215,-2.1148,-2.127,-2.1468,-2.1456,-2.1374,-2.1117,-2.0732,-2.0237,-1.9901,-1.9868,-1.9835,-1.9868,-1.9835,-1.9835,-1.9835,-1.9835,-1.9639,-1.9573,-1.9639,-1.9628,-1.9595,-1.9639,-1.9671,-1.954,-1.9737,-1.9726,-1.9199,-1.9299,-1.9474,-1.9802,-1.9835,-1.9835,-1.9835,-1.9998,-1.9737,-1.9573,-1.9441,-1.921,-1.9044,-1.8566,-1.8273,-1.807,-1.7442,-1.7235,-1.6968,-1.6908,-1.683,-1.6751,-1.6716,-1.6668,-1.6643,-1.6892,-1.7084,-1.7203,-1.7541,-1.7677,-1.7631,-1.769,-1.7498,-1.6917,-1.6533,-1.6221,-1.6097,-1.5756,-1.5769,-1.5831,-1.5835,-1.5734,-1.6006,-1.5655,-1.5274,-1.4949,-1.4538,-1.3915,-1.3542,-1.3124,-1.3045,-1.3506,-1.3336,-1.3124,-1.3039,-1.2991,-1.3075,-1.316,-1.3167,-1.3112,-1.2814,-1.2614,-1.2493,-1.2343,-1.1958,-1.1663,-1.1567,-1.1383,-1.1135,-1.1043,-1.1005,-1.0968,-1.0925,-1.1074,-1.1074,-1.1074,-1.0962,-1.085,-1.085,-1.1037,-1.1037,-1.0925,-1.0999,-1.1223,-1.1037,-1.0631,-1.0475,-2.086,-2.0796,-2.0063,-2.0204,-2.0796,-2.0635,-2.0528,-2.0463,-1.9998,-1.9507,-1.9011,-1.9011,-1.9011,-1.9011,-1.9044,-1.9067,-1.9144,-1.9067,-1.8834,-1.88,-1.88,-1.869,-1.8657,-1.8734,-1.8877,-1.871,-1.8844,-1.8877,-1.824,-1.8576,-1.8543,-1.8442,-1.8365,-1.8465,-1.91,-1.9011,-1.89,-1.8744,-1.871,-1.8509,-1.8341,-1.7867,-1.756,-1.7457,-1.6994,-1.676,-1.67,-1.6665,-1.663,-1.6551,-1.6517,-1.6555,-1.6659,-1.6811,-1.6992,-1.7167,-1.7389,-1.755,-1.7328,-1.7265,-1.6958,-1.6234,-1.5787,-1.5487,-1.5312,-1.504,-1.4971,-1.5128,-1.5157,-1.5123,-1.5226,-1.458,-1.4252,-1.4006,-1.3669,-1.3167,-1.3082,-1.279,-1.279,-1.2869,-1.2705,-1.2747,-1.2747,-1.2784,-1.2784,-1.2869,-1.2912,-1.2912,-1.2814,-1.2656,-1.2614,-1.2451,-1.2187,-1.1916,-1.1663,-1.1376,-1.1059,-1.0519,-1.0519,-1.0588,-1.0625,-1.07,-1.0663,-1.0519,-1.0443,-1.0438,-1.0244,-1.0024,-1.0288,-1.0625,-1.055,-1.0288,-1.0062,-0.9685,-0.9614,-2.0128,-2.0031,-1.9332,-1.9441,-1.9966,-1.9375,-1.9144,-1.9276,-1.911,-1.8934,-1.8777,-1.8811,-1.8811,-1.8767,-1.86,-1.8566,-1.8533,-1.8523,-1.8263,-1.7867,-1.8027,-1.7949,-1.7881,-1.7925,-1.8012,-1.7969,-1.807,-1.7867,-1.7107,-1.7628,-1.7569,-1.7235,-1.7182,-1.7516,-1.8834,-1.8944,-1.8643,-1.8138,-1.8003,-1.7638,-1.7235,-1.695,-1.6846,-1.6751,-1.6577,-1.6447,-1.6456,-1.6456,-1.6412,-1.6342,-1.6158,-1.6208,-1.6407,-1.6595,-1.6563,-1.6269,-1.6548,-1.6332,-1.5647,-1.5947,-1.5768,-1.5387,-1.5031,-1.4747,-1.467,-1.4413,-1.4136,-1.4302,-1.3979,-1.3694,-1.347,-1.3392,-1.33,-1.3173,-1.2918,-1.279,-1.2705,-1.2705,-1.2705,-1.2705,-1.2705,-1.2705,-1.2705,-1.2705,-1.2662,-1.2662,-1.2699,-1.2656,-1.2613,-1.2693,-1.262,-1.2379,-1.2153,-1.1729,-1.1392,-1.1318,-1.097,-1.0329,-0.9922,-0.9916,-0.9798,-0.9647,-0.9647,-0.9803,-0.9728,-0.9571,-0.9193,-0.878,-0.9155,-0.9453,-0.9306,-0.9079,-0.8894,-0.8775,-0.8699,-1.9813,-1.9309,-1.8643,-1.8465,-1.8734,-1.8944,-1.9011,-1.8944,-1.8543,-1.807,-1.7672,-1.7613,-1.7535,-1.7457,-1.7491,-1.7457,-1.7285,-1.7182,-1.6846,-1.689,-1.7079,-1.6906,-1.6846,-1.695,-1.6994,-1.689,-1.7054,-1.7157,-1.656,-1.6915,-1.6811,-1.6517,-1.6508,-1.6777,-1.7217,-1.7413,-1.7251,-1.7226,-1.7123,-1.6915,-1.6726,-1.6508,-1.6403,-1.6403,-1.6307,-1.6237,-1.6167,-1.6132,-1.6096,-1.5912,-1.5665,-1.5541,-1.5736,-1.5871,-1.5529,-1.5511,-1.5794,-1.5421,-1.4747,-1.467,-1.4814,-1.4578,-1.4385,-1.4049,-1.3898,-1.3627,-1.3484,-1.3442,-1.3309,-1.3137,-1.296,-1.296,-1.2875,-1.2875,-1.2747,-1.2747,-1.2705,-1.2705,-1.2705,-1.2705,-1.2705,-1.2619,-1.2577,-1.2137,-1.2009,-1.2009,-1.2009,-1.2314,-1.2357,-1.2577,-1.2601,-1.2306,-1.1985,-1.1453,-1.107,-1.0732,-1.0183,-0.9428,-0.9113,-0.9084,-0.8932,-0.8665,-0.8818,-0.9008,-0.8856,-0.8703,-0.8399,-0.8131,-0.8055,-0.8089,-0.8093,-0.8246,-0.8318,-0.8089,-0.7821,-1.91,-1.8566,-1.7901,-1.7638,-1.7672,-1.8104,-1.8273,-1.8206,-1.7799,-1.7339,-1.6968,-1.683,-1.6751,-1.6647,-1.6508,-1.6438,-1.6272,-1.6237,-1.6237,-1.6246,-1.6167,-1.6202,-1.6175,-1.614,-1.6307,-1.6167,-1.6237,-1.6281,-1.6351,-1.6316,-1.6307,-1.6272,-1.6202,-1.6377,-1.6508,-1.6577,-1.6647,-1.6691,-1.6621,-1.6542,-1.6447,-1.6342,-1.6237,-1.6202,-1.6132,-1.5991,-1.5762,-1.5657,-1.5542,-1.5196,-1.4856,-1.4702,-1.482,-1.4846,-1.4558,-1.4853,-1.451,-1.4174,-1.3704,-1.3578,-1.3756,-1.384,-1.3669,-1.3464,-1.3215,-1.3099,-1.3021,-1.2991,-1.2966,-1.2875,-1.2747,-1.2705,-1.2705,-1.2705,-1.2705,-1.2705,-1.2705,-1.2705,-1.2619,-1.2619,-1.2485,-1.2443,-1.2186,-1.166,-1.1182,-1.123,-1.1273,-1.158,-1.1837,-1.1923,-1.196,-1.1685,-1.1305,-1.0736,-1.0232,-0.9852,-0.9225,-0.8501,-0.8338,-0.8289,-0.8055,-0.7863,-0.8055,-0.8131,-0.7863,-0.7638,-0.7638,-0.7522,-0.733,-0.7249,-0.7246,-0.7437,-0.7706,-0.7437,-0.7015,-1.7993,-1.7867,-1.7166,-1.6899,-1.6899,-1.7003,-1.6978,-1.6908,-1.6899,-1.6899,-1.6839,-1.6647,-1.6533,-1.6533,-1.6368,-1.6272,-1.6211,-1.6132,-1.6105,-1.6035,-1.5964,-1.5867,-1.5876,-1.5876,-1.5823,-1.5921,-1.5912,-1.5736,-1.6096,-1.5736,-1.5736,-1.5947,-1.5842,-1.5771,-1.5771,-1.5912,-1.6123,-1.6307,-1.6342,-1.6298,-1.6272,-1.6017,-1.5842,-1.5736,-1.5559,-1.5161,-1.4867,-1.4645,-1.4322,-1.3926,-1.3586,-1.3872,-1.4117,-1.4336,-1.4147,-1.3861,-1.3245,-1.3039,-1.2918,-1.2918,-1.2875,-1.3082,-1.2912,-1.2747,-1.2747,-1.279,-1.279,-1.279,-1.279,-1.2747,-1.2705,-1.2705,-1.2705,-1.2705,-1.2705,-1.2705,-1.2662,-1.2619,-1.2491,-1.24,-1.2223,-1.196,-1.1316,-1.0794,-1.0361,-1.0101,-1.0058,-0.984,-1.0144,-1.0572,-1.0611,-1.0552,-1.0187,-0.9822,-0.937,-0.8972,-0.8388,-0.7639,-0.7502,-0.7442,-0.7215,-0.7099,-0.7253,-0.718,-0.676,-0.6606,-0.6872,-0.6795,-0.6528,-0.6486,-0.6595,-0.6556,-0.6822,-0.6556,-0.6173,-1.7638,-1.6985,-1.6786,-1.6612,-1.6482,-1.6447,-1.6482,-1.6456,-1.6491,-1.6447,-1.6482,-1.6412,-1.6228,-1.6237,-1.6167,-1.6026,-1.5929,-1.5938,-1.5903,-1.5797,-1.5576,-1.5735,-1.5735,-1.562,-1.5461,-1.5196,-1.5002,-1.4867,-1.443,-1.4402,-1.476,-1.4939,-1.5081,-1.4824,-1.4716,-1.4832,-1.548,-1.5912,-1.5947,-1.5912,-1.5762,-1.5365,-1.5188,-1.4974,-1.4617,-1.4186,-1.3934,-1.3825,-1.3564,-1.3455,-1.2915,-1.2955,-1.3406,-1.2995,-1.2625,-1.3037,-1.2833,-1.2705,-1.2705,-1.2705,-1.2662,-1.2619,-1.2577,-1.2705,-1.2705,-1.2613,-1.2571,-1.2528,-1.2351,-1.218,-1.218,-1.2223,-1.2223,-1.218,-1.218,-1.218,-1.2095,-1.188,-1.1752,-1.1574,-1.144,-1.088,-1.0231,-0.9971,-0.9579,-0.9144,-0.8798,-0.858,-0.8623,-0.9096,-0.9357,-0.9344,-0.9165,-0.8829,-0.8396,-0.7996,-0.7416,-0.6929,-0.687,-0.6802,-0.6641,-0.6563,-0.6528,-0.6454,-0.6335,-0.6296,-0.6374,-0.6257,-0.618,-0.606,-0.6131,-0.5977,-0.586,-0.5747,-0.5634,-1.6985,-1.6473,-1.6149,-1.5762,-1.533,-1.5259,-1.5259,-1.5294,-1.5665,-1.5877,-1.5806,-1.5409,-1.5409,-1.5515,-1.5196,-1.4911,-1.4804,-1.4776,-1.4776,-1.4768,-1.4963,-1.4776,-1.4848,-1.4919,-1.4589,-1.4294,-1.4142,-1.4034,-1.3528,-1.3491,-1.3854,-1.4142,-1.4178,-1.3918,-1.3818,-1.407,-1.4466,-1.4859,-1.5046,-1.5081,-1.4867,-1.4537,-1.4286,-1.4063,-1.36,-1.3353,-1.3062,-1.3032,-1.2915,-1.2615,-1.1959,-1.2017,-1.2465,-1.2178,-1.2257,-1.2681,-1.2747,-1.2705,-1.2656,-1.2272,-1.24,-1.2357,-1.2052,-1.1832,-1.1966,-1.2015,-1.2015,-1.2015,-1.1746,-1.1526,-1.1574,-1.1574,-1.1531,-1.1526,-1.1526,-1.1526,-1.1273,-1.1015,-1.0799,-1.0621,-1.0188,-0.9623,-0.9235,-0.9017,-0.8711,-0.8189,-0.7925,-0.7793,-0.7793,-0.8009,-0.8229,-0.8265,-0.8129,-0.7903,-0.7522,-0.7344,-0.7026,-0.6708,-0.6573,-0.645,-0.6232,-0.6141,-0.618,-0.6177,-0.6138,-0.6138,-0.6103,-0.6099,-0.6018,-0.5902,-0.5747,-0.5631,-0.5592,-0.5553,-0.5398,-1.6237,-1.6096,-1.5382,-1.4581,-1.3781,-1.3781,-1.3673,-1.3528,-1.4474,-1.5018,-1.484,-1.415,-1.4214,-1.4581,-1.4186,-1.3854,-1.3861,-1.3861,-1.3897,-1.3528,-1.3825,-1.3861,-1.3825,-1.3528,-1.368,-1.3535,-1.339,-1.3317,-1.3353,-1.3127,-1.2981,-1.339,-1.3382,-1.32,-1.2974,-1.3273,-1.3455,-1.3266,-1.3448,-1.3484,-1.3673,-1.3528,-1.3419,-1.3382,-1.3164,-1.2908,-1.2402,-1.2077,-1.1855,-1.1372,-1.1185,-1.1344,-1.17,-1.2069,-1.2385,-1.2469,-1.2473,-1.2571,-1.2272,-1.1789,-1.1837,-1.1574,-1.1009,-1.0837,-1.1015,-1.1187,-1.1187,-1.1144,-1.0875,-1.0702,-1.0659,-1.0659,-1.0659,-1.0659,-1.0659,-1.0659,-1.0529,-1.0144,-0.9666,-0.9405,-0.8925,-0.8404,-0.8321,-0.8141,-0.8013,-0.7404,-0.7228,-0.7228,-0.7228,-0.7356,-0.7401,-0.7489,-0.7485,-0.7427,-0.7276,-0.7097,-0.6857,-0.661,-0.643,-0.6227,-0.6074,-0.5983,-0.5864,-0.5906,-0.5906,-0.5902,-0.5864,-0.5864,-0.5828,-0.5634,-0.5479,-0.5359,-0.5282,-0.5243,-0.5246,-1.5868,-1.5152,-1.4294,-1.3745,-1.3571,-1.3535,-1.3135,-1.2629,-1.2842,-1.3346,-1.3789,-1.368,-1.3608,-1.3716,-1.3491,-1.3273,-1.3346,-1.3164,-1.3419,-1.3346,-1.331,-1.3127,-1.3382,-1.3171,-1.3062,-1.2739,-1.2592,-1.2592,-1.2512,-1.2174,-1.2027,-1.2512,-1.2549,-1.2402,-1.199,-1.2291,-1.2402,-1.2027,-1.1996,-1.2505,-1.3127,-1.2842,-1.2586,-1.2402,-1.2181,-1.1848,-1.1484,-1.1409,-1.1298,-1.1111,-1.1117,-1.1371,-1.1805,-1.2091,-1.2379,-1.2517,-1.1966,-1.2009,-1.1837,-1.1182,-1.088,-1.0971,-1.0621,-1.0274,-1.0139,-1.0188,-1.0188,-1.0096,-0.9966,-0.9836,-0.9749,-0.9705,-0.9705,-0.9705,-0.9749,-0.9749,-0.9749,-0.9187,-0.854,-0.8145,-0.7661,-0.7533,-0.7489,-0.7356,-0.7183,-0.7139,-0.7139,-0.7139,-0.7098,-0.7139,-0.7092,-0.718,-0.7183,-0.7163,-0.7041,-0.6864,-0.6658,-0.6516,-0.6354,-0.6152,-0.5879,-0.5754,-0.5595,-0.5634,-0.5673,-0.5673,-0.5673,-0.5676,-0.5598,-0.5404,-0.5285,-0.5168,-0.5012,-0.4932,-0.4976,-1.476,-1.4178,-1.331,-1.2732,-1.2475,-1.2432,-1.2181,-1.1818,-1.1781,-1.1996,-1.2402,-1.2469,-1.2622,-1.2769,-1.2615,-1.2505,-1.2505,-1.2432,-1.2285,-1.2358,-1.2542,-1.2358,-1.2469,-1.2549,-1.2144,-1.1818,-1.1781,-1.1744,-1.1706,-1.1521,-1.1477,-1.1744,-1.1781,-1.1632,-1.1192,-1.1521,-1.1595,-1.1186,-1.1111,-1.1663,-1.2542,-1.207,-1.1781,-1.1558,-1.1409,-1.1117,-1.1117,-1.1117,-1.1117,-1.0925,-1.0738,-1.0793,-1.0965,-1.0917,-1.1097,-1.116,-1.1015,-1.0885,-1.0923,-1.0448,-0.9792,-1.0014,-0.9318,-0.8619,-0.9061,-0.9104,-0.8925,-0.8838,-0.8488,-0.8313,-0.8317,-0.8317,-0.8313,-0.8313,-0.8317,-0.8317,-0.8273,-0.8053,-0.7753,-0.7577,-0.7316,-0.7316,-0.7272,-0.7272,-0.7095,-0.7054,-0.7054,-0.6966,-0.6966,-0.6874,-0.683,-0.6741,-0.6694,-0.6959,-0.7071,-0.6837,-0.6518,-0.6386,-0.6185,-0.5867,-0.5509,-0.5413,-0.5326,-0.5204,-0.5243,-0.544,-0.5443,-0.5246,-0.5287,-0.521,-0.5093,-0.5012,-0.4779,-0.4465,-0.4426,-1.3499,-1.3244,-1.2475,-1.1774,-1.1186,-1.1149,-1.1155,-1.1149,-1.1111,-1.1149,-1.126,-1.126,-1.1558,-1.1669,-1.1477,-1.126,-1.1223,-1.1521,-1.1335,-1.1298,-1.1298,-1.1515,-1.1484,-1.126,-1.1298,-1.1298,-1.126,-1.1229,-1.1223,-1.1111,-1.1111,-1.1117,-1.1117,-1.1117,-1.1117,-1.1117,-1.1111,-1.1111,-1.1117,-1.1117,-1.1149,-1.1117,-1.1186,-1.1149,-1.1117,-1.1117,-1.1117,-1.1117,-1.1117,-1.0625,-1.0197,-1.0124,-1.0121,-0.9999,-1.0011,-1.01,-0.9927,-0.9927,-0.9836,-0.9148,-0.9144,-0.9013,-0.7749,-0.7492,-0.8017,-0.8061,-0.7881,-0.7705,-0.7401,-0.7268,-0.7272,-0.7272,-0.7268,-0.7268,-0.7272,-0.7272,-0.7228,-0.7228,-0.7139,-0.7095,-0.7095,-0.7095,-0.7051,-0.7051,-0.7007,-0.701,-0.6922,-0.6833,-0.67,-0.6564,-0.6473,-0.6207,-0.603,-0.6337,-0.6823,-0.6577,-0.6153,-0.5819,-0.5581,-0.5339,-0.5014,-0.4477,-0.4304,-0.4577,-0.4654,-0.4577,-0.4616,-0.4421,-0.4579,-0.4659,-0.4307,-0.399,-0.3873,-0.3599,-0.3638,-1.3098,-1.2445,-1.1669,-1.1223,-1.1111,-1.1117,-1.1117,-1.1117,-1.1117,-1.1117,-1.1117,-1.1117,-1.1223,-1.1335,-1.1223,-1.1117,-1.1117,-1.1117,-1.1117,-1.1117,-1.1117,-1.1117,-1.1117,-1.1117,-1.1117,-1.1117,-1.1117,-1.1117,-1.1117,-1.1117,-1.1117,-1.1117,-1.1117,-1.1117,-1.1117,-1.1117,-1.1117,-1.1117,-1.1074,-1.1074,-1.1037,-1.1037,-1.1117,-1.1117,-1.1117,-1.1117,-1.1117,-1.1117,-1.0706,-1.0105,-0.9451,-0.9296,-0.9232,-0.9205,-0.921,-0.9203,-0.9013,-0.91,-0.8882,-0.8189,-0.8273,-0.854,-0.758,-0.7183,-0.7492,-0.7492,-0.7356,-0.7356,-0.7183,-0.7183,-0.7183,-0.7183,-0.7183,-0.7183,-0.7183,-0.7183,-0.7139,-0.7139,-0.7098,-0.7054,-0.701,-0.6966,-0.6833,-0.6833,-0.6741,-0.6697,-0.6564,-0.6479,-0.621,-0.6163,-0.5983,-0.5583,-0.5184,-0.5805,-0.6293,-0.6065,-0.5714,-0.5299,-0.4829,-0.4387,-0.3805,-0.3137,-0.309,-0.3597,-0.3441,-0.3207,-0.3246,-0.3638,-0.3402,-0.3365,-0.3051,-0.2817,-0.2776,-0.2776,-0.2776]},{"header":{"parameterUnit":"m.s-1","parameterCategory":1,"la1":31.0,"la2":29.5877,"lo1":-88.7671,"lo2":-86.6584,"dy":0.0162,"dx":0.0185,"nx":115,"ny":88,"refTime":"2023-09-22T18:00:00:Z","depth":0,"parameterNumber":3,"parameterNumberName":"V-component_of_WINDS"},"data":[0.0,0.0,0.0,0.0,0.0,0.0,0.0,0.0,0.0,0.0,0.0,0.0,0.0,0.0,0.0,0.0,0.0,0.0,0.0,0.0,0.0,0.0,0.0,0.0,0.0,0.0,0.0,0.0,0.0,0.0,0.0,0.0,0.0,0.0,0.0,0.0,0.0,0.0,0.0,0.0,0.0,0.0,0.0,0.0,0.0,0.0,0.0,0.0,0.0,0.0,0.0,0.0,0.0,0.0,0.0,0.0,0.0,0.0,0.0,0.0,0.0,0.0,0.0,0.0,0.0,0.0,0.0,0.0,0.0,0.0,0.0,0.0,0.0,0.0,0.0,0.0,0.0,0.0,0.0,0.0,0.0,0.0,0.0,0.0,0.0,0.0,0.0,0.0,0.0,0.0,0.0,0.0,0.0,0.0,0.0,0.0,0.0,0.0,0.0,0.0,0.0,0.0,0.0,0.0,0.0,0.0,0.0,0.0,0.0,0.0,0.0,0.0,0.0,0.0,0.0,0.0,0.0,0.0,0.0,0.0,0.0,0.0,0.0,0.0,0.0,0.0,0.0,0.0,0.0,0.0,0.0,0.0,0.0,0.0,0.0,0.0,0.0,0.0,0.0,0.0,0.0,0.0,0.0,0.0,0.0,0.0,0.0,0.0,0.0,0.0,0.0,0.0,0.0,0.0,0.0,0.0,0.0,0.0,0.0,0.0,0.0,0.0,0.0,0.0,0.0,0.0,0.0,0.0,0.0,0.0,0.0,0.0,0.0,0.0,0.0,0.0,0.0,0.0,0.0,0.0,0.0,0.0,0.0,0.0,0.0,0.0,0.0,0.0,0.0,0.0,0.0,0.0,0.0,0.0,0.0,0.0,0.0,0.0,0.0,0.0,0.0,0.0,0.0,0.0,0.0,0.0,0.0,0.0,0.0,0.0,0.0,0.0,0.0,0.0,0.0,0.0,0.0,0.0,0.0,0.0,0.0,0.0,0.0,0.0,0.0,0.0,0.0,0.0,0.0,0.0,0.0,0.0,0.0,0.0,0.0,0.0,0.0,0.0,0.0,0.0,0.0,0.0,0.0,0.0,0.0,0.0,0.0,0.0,0.0,0.0,0.0,0.0,0.0,0.0,0.0,0.0,0.0,0.0,0.0,0.0,0.0,0.0,0.0,0.0,0.0,0.0,0.0,0.0,0.0,0.0,0.0,0.0,0.0,0.0,0.0,0.0,0.0,0.0,0.0,0.0,0.0,0.0,0.0,0.0,0.0,0.0,0.0,0.0,0.0,0.0,0.0,0.0,0.0,0.0,0.0,0.0,0.0,0.0,0.0,0.0,0.0,0.0,0.0,0.0,0.0,0.0,0.0,0.0,0.0,0.0,0.0,0.0,0.0,0.0,0.0,0.0,0.0,0.0,0.0,0.0,0.0,0.0,0.0,0.0,0.0,0.0,0.0,0.0,0.0,0.0,0.0,0.0,0.0,0.0,0.0,0.0,0.0,0.0,0.0,0.0,0.0,0.0,0.0,0.0,0.0,0.0,0.0,0.0,0.0,0.0,0.0,0.0,0.0,0.0,0.0,0.0,0.0,0.0,0.0,0.0,0.0,0.0,0.0,0.0,0.0,0.0,0.0,0.0,0.0,0.0,0.0,0.0,0.0,0.0,0.0,0.0,0.0,0.0,0.0,0.0,0.0,0.0,0.0,0.0,0.0,0.0,0.0,0.0,0.0,0.0,0.0,0.0,0.0,0.0,0.0,0.0,0.0,0.0,0.0,0.0,0.0,0.0,0.0,0.0,0.0,0.0,0.0,0.0,0.0,0.0,0.0,0.0,0.0,0.0,0.0,0.0,0.0,0.0,0.0,0.0,0.0,0.0,0.0,0.0,0.0,0.0,0.0,0.0,0.0,0.0,0.0,0.0,0.0,0.0,0.0,0.0,0.0,0.0,0.0,0.0,0.0,0.0,0.0,0.0,0.0,0.0,0.0,0.0,0.0,0.0,0.0,0.0,0.0,0.0,0.0,0.0,0.0,0.0,0.0,0.0,0.0,0.0,0.0,0.0,0.0,0.0,0.0,0.0,0.0,0.0,0.0,0.0,0.0,0.0,0.0,0.0,0.0,0.0,0.0,0.0,0.0,0.0,0.0,0.0,0.0,0.0,0.0,0.0,0.0,0.0,0.0,0.0,0.0,0.0,0.0,0.0,0.0,0.0,0.0,0.0,0.0,0.0,0.0,0.0,0.0,0.0,0.0,0.0,0.0,0.0,0.0,0.0,0.0,0.0,0.0,0.0,0.0,0.0,0.0,0.0,0.0,0.0,0.0,0.0,0.0,0.0,0.0,0.0,0.0,0.0,0.0,0.0,0.0,0.0,0.0,0.0,0.0,0.0,0.0,0.0,0.0,0.0,0.0,0.0,0.0,0.0,0.0,0.0,0.0,0.0,0.0,0.0,0.0,0.0,0.0,0.0,0.0,0.0,0.0,0.0,0.0,0.0,0.0,0.0,0.0,0.0,0.0,0.0,0.0,0.0,0.0,0.0,0.0,0.0,0.0,0.0,0.0,0.0,0.0,0.0,0.0,0.0,0.0,0.0,0.0,0.0,0.0,0.0,0.0,0.0,0.0,0.0,0.0,0.0,0.0,0.0,0.0,0.0,0.0,0.0,0.0,0.0,0.0,0.0,0.0,0.0,0.0,0.0,0.0,0.0,0.0,0.0,0.0,0.0,0.0,0.0,0.0,0.0,0.0,0.0,0.0,0.0,0.0,0.0,0.0,0.0,0.0,0.0,0.0,0.0,0.0,0.0,0.0,0.0,0.0,0.0,0.0,0.0,0.0,0.0,0.0,0.0,0.0,0.0,0.0,0.0,0.0,0.0,0.0,0.0,0.0,0.0,0.0,0.0,0.0,0.0,0.0,0.0,0.0,0.0,0.0,0.0,0.0,0.0,0.0,0.0,0.0,0.0,0.0,0.0,0.0,0.0,0.0,0.0,0.0,0.0,0.0,0.0,0.0,0.0,0.0,0.0,0.0,0.0,0.0,0.0,0.0,0.0,0.0,0.0,0.0,0.0,0.0,0.0,0.0,0.0,0.0,0.0,0.0,0.0,0.0,0.0,0.0,0.0,0.0,0.0,0.0,0.0,0.0,0.0,0.0,0.0,0.0,0.0,0.0,0.0,0.0,0.0,0.0,0.0,0.0,0.0,0.0,0.0,0.0,0.0,0.0,0.0,0.0,0.0,0.0,0.0,0.0,0.0,0.0,0.0,0.0,0.0,0.0,0.0,0.0,0.0,0.0,0.0,0.0,0.0,0.0,0.0,0.0,0.0,0.0,0.0,0.0,0.0,0.0,0.0,0.0,0.0,0.0,0.0,0.0,0.0,0.0,0.0,0.0,0.0,0.0,0.0,0.0,0.0,0.0,0.0,0.0,0.0,0.0,0.0,0.0,0.0,0.0,0.0,0.0,0.0,0.0,0.0,0.0,0.0,0.0,0.0,0.0,0.0,0.0,0.0,0.0,0.0,0.0,0.0,0.0,0.0,0.0,0.0,0.0,0.0,0.0,0.0,0.0,0.0,0.0,0.0,0.0,0.0,0.0,0.0,0.0,0.0,0.0,0.0,0.0,0.0,0.0,0.0,0.0,0.0,0.0,0.0,0.0,0.0,0.0,0.0,0.0,0.0,0.0,0.0,0.0,0.0,0.0,0.0,0.0,0.0,0.0,0.0,0.0,0.0,0.0,0.0,0.0,0.0,0.0,0.0,0.0,0.0,0.0,0.0,0.0,0.0,0.0,0.0,0.0,0.0,0.0,0.0,0.0,0.0,0.0,0.0,0.0,0.0,0.0,0.0,0.0,0.0,0.0,0.0,0.0,0.0,0.0,0.0,0.0,0.0,0.0,0.0,0.0,0.0,0.0,0.0,0.0,0.0,0.0,0.0,0.0,0.0,0.0,0.0,0.0,0.0,0.0,0.0,0.0,0.0,0.0,0.0,0.0,0.0,0.0,0.0,0.0,0.0,0.0,0.0,0.0,0.0,0.0,0.0,0.0,0.0,0.0,0.0,0.0,0.0,0.0,0.0,0.0,0.0,0.0,0.0,0.0,0.0,0.0,0.0,0.0,0.0,0.0,0.0,0.0,0.0,0.0,0.0,0.0,0.0,0.0,0.0,0.0,0.0,0.0,0.0,0.0,0.0,0.0,0.0,0.0,0.0,0.0,0.0,0.0,0.0,0.0,0.0,0.0,0.0,0.0,0.0,0.0,0.0,0.0,0.0,0.0,0.0,0.5855,0.0,0.0,0.0,0.0,0.0,0.0,0.0,0.0,0.0,0.0,0.0,0.0,0.0,0.0,0.0,0.0,0.0,0.0,0.0,0.0,0.0,0.0,0.0,0.0,0.0,0.0,0.0,0.0,0.0,0.0,0.0,0.0,0.0,0.0,0.0,0.0,0.0,0.0,0.0,0.0,0.0,0.0,0.0,0.0,0.0,0.0,0.0,0.0,0.0,0.0,0.0,0.0,0.0,0.0,0.0,0.0,0.0,0.0,0.0,0.0,0.0,0.0,0.0,0.0,0.0,0.0,0.0,0.0,0.0,0.0,0.0,0.0,0.0,0.0,0.0,0.0,0.0,0.0,0.0,0.0,0.0,0.0,0.0,0.0,0.0,0.0,0.0,0.0,0.0,0.0,0.0,0.0,0.0,0.0,0.0,0.0,0.0,0.0,0.0,0.0,0.0,0.0,0.0,0.0,0.0,0.0,0.0,0.0,0.0,0.0,0.2473,0.339,0.3779,0.3862,0.3666,0.0,0.0,0.0,0.0,0.0,0.0,0.0,0.0,0.0,0.0,0.0,0.0,0.0,0.0,0.0,0.0,0.0,0.0,0.0,0.0,0.0,0.0,0.0,0.0,0.0,0.0,0.0,0.0,0.0,0.0,0.0,0.0,0.0,0.0,0.0,0.0,0.0,0.0,0.0,0.0,0.0,0.0,0.0,0.0,0.0,0.0,0.0,0.0,0.0,0.0,0.0,0.0,0.0,0.0,0.0,0.0,0.0,0.0,0.0,0.0,0.0,0.0,0.0,0.0,0.0,0.0,0.0,0.0,0.0,0.0,0.0,0.0,0.0,0.0,0.0,0.0,0.0,0.0,0.0,0.0,0.0,0.0,0.0,0.0,0.0,0.0,0.0,0.0,0.0,0.0,0.0,0.0,0.0,0.0,0.0,0.0,0.0,0.0,0.0,0.0,0.0,0.0,0.0,0.0,0.0,0.0,0.0,0.0,0.0,0.0,0.0,0.0,0.2486,0.2541,0.2367,0.0,0.0,0.0,0.0,0.0,0.0,0.0,0.0,0.0,0.0,0.0,0.0,0.0,0.0,0.0,0.0,0.0,0.0,0.0,0.0,0.0,0.0,0.0,0.0,0.0,0.0,0.0,0.0,0.0,0.0,0.0,0.0,0.0,0.0,0.0,0.0,0.0,0.0,0.0,0.0,0.0,0.0,0.0,0.0,0.0,0.0,0.0,0.0,0.0,0.0,0.0,0.0,0.0,0.0,0.0,0.0,0.0,0.0,0.0,0.0,0.0,0.0,0.0,0.0,0.0,0.0,0.0,0.0,0.0,0.0,0.0,0.0,0.0,0.0,0.0,0.0,0.0,0.0,0.0,0.0,0.0,0.0,0.0,0.0,0.0,0.0,0.0,0.0,0.0,0.0,0.0,0.0,0.0,0.0,0.0,0.0,0.0,0.0,0.0,0.0,0.0,0.0,0.0,0.0,0.0,0.0,0.0,0.0,0.0,0.0,0.1513,0.2183,0.2406,0.0,0.3769,0.0,0.0,0.0,0.0,0.0,0.0,0.0,0.0,0.0,0.0,0.0,0.0,0.0,0.0,0.0,0.0,0.0,0.0,0.0,0.0,0.0,0.0,0.0,0.0,0.0,0.0,0.0,0.0,0.0,0.0,0.0,0.0,0.0,0.0,0.0,0.0,0.0,0.0,0.0,0.0,0.0,0.0,0.0,0.0,0.0,0.0,0.0,0.0,0.0,0.0,0.0,0.0,0.0,0.0,0.0,0.0,0.0,0.0,0.0,0.0,0.0,0.0,0.0,0.0,0.0,0.0,0.0,0.0,0.0,0.0,0.0,0.0,0.0,0.0,0.0,0.0,0.0,0.0,0.0,0.0,0.0,0.0,0.0,0.0,0.0,0.0,0.0,0.0,0.0,0.0,0.0,0.0,0.0,0.0,0.0,0.0,0.0,0.0,0.0,0.0,0.0,0.0,0.0,0.0,0.0,0.0,0.0,0.0,0.0,0.0,0.0729,0.1429,0.1317,0.1959,0.0,0.0,0.0,0.0,0.0,0.0,0.0,0.0,0.0,0.0,0.0,0.0,0.0,0.0,0.0,0.0,0.0,0.0,0.0,0.0,0.0,0.0,0.0,0.0,0.0,0.0,0.0,0.0,0.0,0.0,0.0,0.0,0.0,0.0,0.0,0.0,0.0,0.0,0.0,0.0,0.0,0.0,0.0,0.0,0.0,0.0,0.0,0.0,0.0,0.0,0.0,0.0,0.0,0.0,0.0,0.0,0.0,0.0,0.0,0.0,0.0,0.0,0.0,0.0,0.0,0.0,0.0,0.0,0.0,0.0,0.0,0.0,0.0,0.0,0.0,0.0,0.0,0.0,0.0,0.0,0.0,0.0,0.0,0.0,0.0,0.0,0.0,0.0,0.0,0.0,0.0,0.0,0.0,0.0,0.0,0.0,0.0,0.0,0.0,0.0,0.0,0.0,0.0,0.0,0.0,0.0,0.0,0.0,0.0,0.0,0.0112,0.0449,0.1038,0.0953,0.1539,0.2935,0.0,0.0,0.0,0.0,0.0,0.0,0.0,0.0,0.0,0.0,0.0,0.0,0.0,0.0,0.0,0.0,0.0,0.0,0.0,0.0,0.0,0.0,0.0,0.0,0.0,0.0,0.0,0.0,0.0,0.0,0.0,0.0,0.0,0.0,0.0,0.0,0.0,0.0,0.0,0.0,0.0,0.0,0.0,0.0,0.0,0.0,0.0,0.0,0.0,0.0,0.0,0.0,0.0,0.0,0.0,0.0,0.0,0.0,0.0,0.0,0.0,0.0,0.0,0.0,0.0,0.0,0.0,0.0,0.0,0.0,0.0,0.0,0.0,0.0,0.0,0.0,0.0,0.0,0.0,0.0,0.0,0.0,0.0,0.0,0.0,0.0,0.0,0.0,0.0,0.0,0.0,0.0,0.0,0.0,0.0,0.0,0.0,0.0,0.0,0.0,0.0,0.0,0.0,0.0,0.0,0.0,0.0,0.0,0.0,0.0644,0.1206,0.1543,0.1905,0.2296,0.0,0.0,0.0,0.0,0.0,0.0,0.0,0.0,0.0,0.0,0.0,0.0,0.0,0.0,0.0,0.0,0.0,0.0,0.0,0.0,0.0,0.0,0.0,0.0,0.0,0.0,0.0,0.0,0.0,0.0,0.0,0.0,0.0,0.0,0.0,0.0,0.0,0.0,0.0,0.0,0.0,0.0,0.0,0.0,0.0,0.0,0.0,0.0,0.0,0.0,0.0,0.0,0.0,0.0,0.0,0.0,0.0,0.0,0.0,0.0,0.0,0.0,0.0,0.0,0.0,0.0,0.0,0.0,0.0,0.0,0.0,0.0,0.0,0.0,0.0,0.0,0.0,0.0,0.0,0.0,0.0,0.0,0.0,0.0,0.0,0.0,0.0,0.0,0.0,0.0,0.0,0.0,0.0,0.0,0.0,0.0,0.0,0.0,0.0,0.0,0.0,0.0,0.0,0.0,0.0,0.0,0.0,0.0,0.0,-0.081,-0.0112,0.0504,0.1008,0.1317,0.1877,0.0,0.0,0.0,0.0,0.0,0.0,0.0,0.0,0.0,0.0,0.0,0.0,0.0,0.0,0.0,0.0,0.0,0.0,0.0,0.0,0.0,0.0,0.0,0.0,0.0,0.0,0.0,0.0,0.0,0.0,0.0,0.0,0.0,0.0,0.0,0.0,0.0,0.0,0.0,0.0,0.0,0.0,0.0,0.0,0.0,0.0,0.0,0.0,0.0,0.0,0.0,0.0,0.0,0.0,0.0,0.0,0.0,0.0,0.0,0.0,0.0,0.0,0.0,0.0,0.0,0.0,0.0,0.0,0.0,0.0,0.0,0.0,0.0,0.0,0.0,0.0,0.0,0.0,0.0,0.0,0.0,0.0,0.0,0.0,0.0,0.0,0.0,0.0,0.0,0.0,0.0,0.0,0.0,0.0,0.0,0.0,0.0,0.0,0.0,0.0,0.0,0.0,0.0,0.0,0.0,0.0,0.0,0.0,0.0,-0.0894,0.0,0.0504,0.0755,0.098,0.1541,0.0,0.0,0.0,0.0,0.0,0.0,0.0,0.0,0.0,0.0,0.0,0.0,0.0,0.0,0.0,0.0,0.0,0.0,0.0,0.0,0.0,0.0,0.0,0.0,0.0,0.0,0.0,0.0,0.0,0.0,0.0,0.0,0.0,0.0,0.0,0.0,0.0,0.0,0.0,0.0,0.0,0.0,0.0,0.0,0.0,0.0,0.0,0.0,0.0,0.0,0.0,0.0,0.0,0.0,0.0,0.0,0.0,0.0,0.0,0.0,0.0,0.0,0.0,0.0,0.0,0.0,0.0,0.0,0.0,0.0,0.0,0.0,0.0,0.0,0.0,0.0,0.0,0.0,0.0,0.0,0.0,0.0,0.0,0.0,0.0,0.0,0.0,0.0,0.0,0.0,0.0,0.0,0.0,0.0,0.0,0.0,0.0,0.0,0.0,0.0,0.0,0.0,0.0,0.0,0.0,0.0,0.0,0.0,-0.1675,-0.0112,0.0952,0.1262,0.0926,0.101,0.1373,0.0,0.0,0.0,0.0,0.0,0.0,0.0,0.0,0.0,0.0,0.0,0.0,0.0,0.0,0.0,0.0,0.0,0.0,0.0,0.0,0.0,0.0,0.0,0.0,0.0,0.0,0.0,0.0,0.0,0.0,0.0,0.0,0.0,0.0,0.0,0.0,0.0,0.0,0.0,0.0,0.0,0.0,0.0,0.0,0.0,0.0,0.0,0.0,0.0,0.0,0.0,0.0,0.0,0.0,0.0,0.0,0.0,0.0,0.0,0.0,0.0,0.0,0.0,0.0,0.0,0.0,0.0,0.0,0.0,0.0,0.0,0.0,0.0,0.0,0.0,0.0,0.0,0.0,0.0,0.0,0.0,0.0,0.0,0.0,0.0,0.0,0.0,0.0,0.0,0.0,0.0,0.0,0.0,0.0,0.0,0.0,0.0,0.0,0.0,0.0,0.0,0.0,0.0,0.0,0.0,0.0,0.0,0.0,0.0,-0.1959,-0.0364,0.042,0.028,0.0504,0.1288,0.0,0.0,0.0,0.0,0.0,0.0,0.0,0.0,0.0,0.0,0.0,0.0,0.0,0.0,0.0,0.0,0.0,0.0,0.0,0.0,0.0,0.0,0.0,0.0,0.0,0.0,0.0,0.0,0.0,0.0,0.0,0.0,0.0,0.0,0.0,0.0,0.0,0.0,0.0,0.0,0.0,0.0,0.0,0.0,0.0,0.0,0.0,0.0,0.0,0.0,0.0,0.0,0.0,0.0,0.0,0.0,0.0,0.0,0.0,0.0,0.0,0.0,0.0,0.0,0.0,0.0,0.0,0.0,0.0,0.0,0.0,0.0,0.0,0.0,0.0,0.0,0.0,0.0,0.0,0.0,0.0,0.0,0.0,0.0,0.0,0.0,0.0,0.0,0.0,0.0,0.0,0.0,0.0,0.0,0.0,0.0,0.0,0.0,0.0,0.0,0.0,0.0,0.0,0.0,0.0,0.0,0.0,0.0,0.0,-0.1853,-0.0228,0.0684,0.0626,0.0513,0.1134,0.2603,0.0,0.0,0.0,0.0,0.0,0.0,0.0,0.0,0.0,0.0,0.0,0.0,0.0,0.0,0.0,0.0,0.0,0.0,0.0,0.0,0.0,0.0,0.0,0.0,0.0,0.0,0.0,0.0,0.0,0.0,0.0,0.0,0.0,0.0,0.0,0.0,0.0,0.0,0.0,0.0,0.0,0.0,0.0,0.0,0.0,0.0,0.0,0.0,0.0,0.0,0.0,0.0,0.0,0.0,0.0,0.0,0.0,0.0,0.0,0.0,0.0,0.0,0.0,0.0,0.0,0.0,0.0,0.0,0.0,0.0,0.0,0.0,0.0,0.0,0.0,0.0,0.0,0.0,0.0,0.0,0.0,0.0,0.0,0.0,0.0,0.0,0.0,0.0,0.0,0.0,0.0,0.0,0.0,0.0,0.0,0.0,0.0,0.0,0.0,0.0,0.0,0.0,0.0,0.0,0.0,0.0,0.0,0.0,-0.0265,0.115,0.1831,0.165,0.0942,0.0986,0.0,0.0,0.0,0.0,0.0,0.0,0.0,0.0,0.0,0.0,0.0,0.0,0.0,0.0,0.0,0.0,0.0,0.0,0.0,0.0,0.0,0.0,0.0,0.0,0.0,0.0,0.0,0.0,0.0,0.0,0.0,0.0,0.0,0.0,0.0,0.0,0.0,0.0,0.0,0.0,0.0,0.0,0.0,0.0,0.0,0.0,0.0,0.0,0.0,0.0,0.0,0.0,0.0,0.0,0.0,0.0,0.0,0.0,0.0,0.0,0.0,0.0,0.0,0.0,0.0,0.0,0.0,0.0,0.0,0.0,0.0,0.0,0.0,0.0,0.0,0.0,0.0,0.0,0.0,0.0,0.0,0.0,0.0,0.0,0.0,0.0,0.0,0.0,0.0,0.0,0.0,0.0,0.0,0.0,0.0,0.0,0.0,0.0,0.0,0.0,0.0,0.0,0.0,0.0,0.0,0.0,0.0,0.0,0.0,0.1155,0.1743,0.1838,0.143,0.1162,0.1525,0.0,0.0,0.0,0.0,0.0,0.0,0.0,0.0,0.0,0.0,0.0,0.0,0.0,0.0,0.0,0.0,0.0,0.0,0.0,0.0,0.0,0.0,0.0,0.0,0.0,0.0,0.0,0.0,0.0,0.0,0.0,0.0,0.0,0.0,0.0,0.0,0.0,0.0,0.0,0.0,0.0,0.0,0.0,0.0,0.0,0.0,0.0,0.0,0.0,0.0,0.0,0.0,0.0,0.0,0.0,0.0,0.0,0.0,0.0,0.0,0.0,0.0,0.0,0.0,0.0,0.0,0.0,0.0,0.0,0.0,0.0,0.0,0.0,0.0,0.0,0.0,0.0,0.0,0.0,0.0,0.0,0.0,0.0,0.0,0.0,0.0,0.0,0.0,0.0,0.0,0.0,0.0,0.0,0.0,0.0,0.0,0.0,0.0,0.0,0.0,0.0,0.0,0.0,0.0,0.0,0.0,0.0,0.0,0.1269,0.1818,0.2152,0.2212,0.1885,0.1566,0.1907,0.0,0.0,0.0,0.0,0.0,0.0,0.0,0.0,0.0,0.0,0.0,0.0,0.0,0.0,0.0,0.0,0.0,0.0,0.0,0.0,0.0,0.0,0.0,0.0,0.0,0.0,0.0,0.0,0.0,0.0,0.0,0.0,0.0,0.0,0.0,0.0,0.0,0.0,0.0,0.0,0.0,0.0,0.0,0.0,0.0,0.0,0.0,0.0,0.0,0.0,0.0,0.0,0.0,0.0,0.0,0.0,0.0,0.0,0.0,0.0,0.0,0.0,0.0,0.0,0.0,0.0,0.0,0.0,0.0,0.0,0.0,0.0,0.0,0.0,0.0,0.0,0.0,0.0,0.0,0.0,0.0,0.0,0.0,0.0,0.0,0.0,0.0,0.0,0.0,0.0,0.0,0.0,0.0,0.0,0.0,0.0,0.0,0.0,0.0,0.0,0.0,0.0,0.0,0.0,0.0,0.0,0.0,0.0,0.1943,0.2106,0.2515,0.2753,0.2783,0.2191,0.2279,0.0,0.0,0.0,0.0,0.0,0.0,0.0,0.0,0.0,0.0,0.0,0.0,0.0,0.0,0.0,0.0,0.0,0.0,0.0,0.0,0.0,0.0,0.0,0.0,0.0,0.0,0.0,0.0,0.0,0.0,0.0,0.0,0.0,0.0,0.0,0.0,0.0,0.0,0.0,0.0,0.0,0.0,0.0,0.0,0.0,0.0,0.0,0.0,0.0,0.0,0.0,0.0,0.0,0.0,0.0,0.0,0.0,0.0,0.0,0.0,0.0,0.0,0.0,0.0,0.0,0.0,0.0,0.0,0.0,0.0,0.0,0.0,0.0,0.0,0.0,0.0,0.0,0.0,0.0,0.0,0.0,0.0,0.0,0.0,0.0,0.0,0.0,0.0,0.0,0.0,0.0,0.0,0.0,0.0,0.0,0.0,0.0,0.0,0.0,0.0,0.0,0.0,0.0,0.0,0.0,0.0,0.0,0.0,0.2985,0.287,0.3004,0.3257,0.3556,0.3111,0.2948,0.0,0.0,0.0,0.0,0.0,0.0,0.0,0.0,0.0,0.0,0.0,0.0,0.0,0.0,0.0,0.0,0.0,0.0,0.0,0.0,0.0,0.0,0.0,0.0,0.0,0.0,0.0,0.0,0.0,0.0,0.0,0.0,0.0,0.0,0.0,0.0,0.0,0.0,0.0,0.0,0.0,0.0,0.0,0.0,0.0,0.0,0.0,0.0,1.3641,0.0,0.0,0.0,0.0,0.0,0.0,0.0,0.0,0.0,0.0,0.0,0.0,0.0,0.0,0.0,0.0,0.0,0.0,0.0,0.0,0.0,0.0,0.0,0.0,0.0,0.0,0.0,0.0,0.0,0.0,0.0,0.0,0.0,0.0,0.0,0.0,0.0,0.0,0.0,0.0,0.0,0.0,0.0,0.0,0.0,0.0,0.0,0.0,0.0,0.0,0.0,0.0,0.0,0.0,0.0,0.0,0.0,0.0,0.0,0.3489,0.3498,0.3539,0.3661,0.3887,0.3958,0.3807,0.0,0.0,0.0,0.0,0.0,0.0,0.0,0.0,0.0,0.0,0.0,0.0,0.0,0.0,0.0,0.0,0.0,0.0,0.0,0.0,0.0,0.0,0.0,0.0,0.0,0.0,0.0,0.0,0.0,0.0,0.0,0.0,0.0,0.0,0.0,0.0,0.0,0.0,0.0,0.0,0.0,0.0,0.0,0.0,0.0,0.0,0.0,0.0,0.0,0.0,0.0,0.0,0.0,0.0,0.0,0.0,0.0,0.0,0.0,0.0,0.0,0.0,0.0,0.0,0.0,0.0,0.0,0.0,0.0,0.0,0.0,0.0,0.0,0.0,0.0,0.0,0.0,0.0,0.0,0.0,0.0,0.0,0.0,0.0,0.0,0.0,0.0,0.0,0.0,0.0,0.0,0.0,0.0,0.0,0.0,0.0,0.0,0.0,0.0,0.0,0.0,0.0,0.0,0.0,0.0,0.0,0.0,0.3786,0.3869,0.4188,0.4172,0.4128,0.4125,0.4699,0.469,0.4,0.0,0.0,0.0,0.0,0.0,0.0,0.0,0.0,0.0,0.0,0.0,0.0,0.0,0.0,0.0,0.0,0.0,0.0,0.0,0.0,0.0,0.0,0.0,0.0,0.0,0.0,0.0,0.0,0.0,0.0,0.0,0.0,0.0,0.0,0.0,0.0,0.0,0.0,1.2258,1.2444,0.0,0.0,0.0,0.0,0.0,0.0,0.0,0.0,1.3307,0.0,0.0,0.0,0.0,0.0,0.0,0.0,0.0,0.0,0.0,0.0,0.0,0.0,0.0,0.0,0.0,0.0,0.0,0.0,0.0,0.0,0.0,0.0,0.0,0.0,0.0,0.0,0.0,0.0,0.0,0.0,0.0,0.0,0.0,0.0,0.0,0.0,0.0,0.0,0.0,0.0,0.0,0.0,0.0,0.0,0.0,0.0,0.0,0.0,0.0,0.0,0.0,0.0,0.0,0.0,0.0,0.4616,0.4406,0.469,0.5523,0.4978,0.4664,0.4694,0.5242,0.5185,0.4394,0.0,0.0,0.0,0.0,0.0,0.0,0.0,0.0,0.0,0.0,0.0,0.0,0.0,0.0,0.0,0.0,0.0,0.0,0.0,0.0,0.0,0.0,0.0,0.0,0.0,0.0,0.0,0.0,0.0,0.0,0.0,0.0,0.0,0.0,0.0,0.0,0.0,0.0,0.0,1.2888,1.282,0.0,0.0,0.0,0.0,0.0,0.0,0.0,0.0,1.438,0.0,0.0,0.0,0.0,0.0,0.0,0.0,0.0,0.0,0.0,0.0,0.0,0.0,0.0,0.0,0.0,0.0,0.0,0.0,0.0,0.0,0.0,0.0,0.0,0.0,0.0,0.0,0.0,0.0,0.0,0.0,0.0,0.0,0.0,0.0,0.0,0.0,0.0,0.0,0.0,0.0,0.0,0.0,0.0,0.0,0.0,0.0,0.0,0.0,0.0,0.0,0.0,0.0,0.0,0.0,0.5186,0.5708,0.6069,0.6293,0.5785,0.5322,0.499,0.5242,0.5126,0.0,0.0,0.0,0.0,0.0,0.0,0.0,0.0,0.0,0.0,0.0,0.0,0.0,0.0,0.0,0.0,0.0,0.0,0.0,0.0,0.0,0.0,0.0,0.0,0.0,0.0,0.0,0.0,0.0,0.0,0.0,0.0,0.0,0.0,0.0,0.0,0.0,0.0,0.0,0.0,1.332,1.3441,1.3967,0.0,0.0,0.0,0.0,0.0,0.0,1.4453,1.4426,0.0,0.0,0.0,0.0,0.0,0.0,0.0,0.0,0.0,0.0,0.0,0.0,0.0,0.0,0.0,0.0,0.0,0.0,0.0,0.0,0.0,0.0,0.0,0.0,0.0,0.0,0.0,0.0,0.0,0.0,0.0,0.0,0.0,0.0,0.0,0.0,0.0,0.0,0.0,0.0,0.0,0.0,0.0,0.0,0.0,0.0,0.0,0.0,0.0,0.0,0.0,0.0,0.0,0.0,0.0,0.5705,0.6718,0.718,0.7051,0.6601,0.6108,0.558,0.5623,0.5426,0.0,0.0,0.0,0.0,0.0,0.0,0.0,0.0,0.0,0.0,0.0,0.0,0.0,0.0,0.0,0.0,0.0,0.0,0.0,0.0,0.0,0.0,0.0,0.0,0.0,0.0,0.0,0.0,0.0,0.0,0.0,0.0,0.0,0.0,0.0,0.0,0.0,0.0,0.0,0.0,0.0,1.3976,1.4459,1.4071,0.0,0.0,0.0,0.0,1.4533,1.4612,0.0,0.0,0.0,0.0,0.0,0.0,0.0,0.0,0.0,0.0,0.0,0.0,0.0,0.0,0.0,0.0,0.0,0.0,0.0,0.0,0.0,0.0,0.0,0.0,0.0,0.0,0.0,0.0,0.0,0.0,0.0,0.0,0.0,0.0,0.0,0.0,0.0,0.0,0.0,0.0,0.0,0.0,0.0,0.0,0.0,0.0,0.0,0.0,0.0,0.0,0.0,0.0,0.0,0.0,0.0,0.0,0.6006,0.6467,0.7234,0.8183,0.7614,0.7223,0.7153,0.7439,0.7026,0.0,0.0,0.0,0.0,0.0,0.0,0.0,0.0,0.0,0.0,0.0,0.0,0.0,0.0,0.0,0.0,0.0,0.0,0.0,0.0,0.0,0.0,0.0,0.0,0.0,0.0,0.0,0.0,0.0,0.0,0.0,0.0,0.0,0.0,0.0,0.0,0.0,0.0,0.0,0.0,0.0,1.3992,1.4281,1.387,1.3619,0.0,0.0,1.4393,1.5039,1.5726,0.0,0.0,0.0,0.0,0.0,0.0,0.0,0.0,0.0,0.0,0.0,0.0,0.0,0.0,0.0,0.0,0.0,0.0,0.0,0.0,0.0,0.0,0.0,0.0,0.0,0.0,0.0,0.0,0.0,0.0,0.0,0.0,0.0,0.0,0.0,0.0,0.0,0.0,0.0,0.0,0.0,0.0,0.0,0.0,0.0,0.0,0.0,0.0,0.0,0.0,0.0,0.0,0.0,0.0,0.0,0.5741,0.613,0.7519,0.8324,0.8484,0.8194,0.7869,0.7582,0.744,0.7151,0.0,0.0,0.0,0.0,0.0,0.0,0.0,0.0,0.0,0.0,0.0,0.0,0.0,0.0,0.0,0.0,0.0,0.0,0.0,0.0,0.0,0.0,0.0,0.0,0.0,0.0,0.0,0.0,0.0,0.0,0.0,0.0,0.0,0.0,0.0,0.0,0.0,0.0,0.0,0.0,0.0,0.0,1.4987,1.4541,0.0,0.0,0.0,1.4685,1.5081,0.0,0.0,0.0,0.0,0.0,0.0,0.0,0.0,0.0,0.0,0.0,0.0,0.0,0.0,0.0,0.0,0.0,0.0,0.0,0.0,0.0,0.0,0.0,0.0,0.0,0.0,0.0,0.0,0.0,0.0,0.0,0.0,0.0,0.0,0.0,0.0,0.0,0.0,0.0,0.0,0.0,0.0,0.0,0.0,0.0,0.0,0.0,0.0,0.0,0.0,0.0,0.0,0.0,0.0,0.0,0.0,0.0,0.6558,0.8478,0.9253,0.8786,0.8753,0.8592,0.8221,0.7865,0.0,0.0,0.0,0.0,0.0,0.0,0.0,0.0,0.0,0.0,0.0,0.0,0.0,0.0,0.0,0.0,0.0,0.0,0.0,0.0,0.0,0.0,0.0,0.0,0.0,0.0,0.0,1.2059,0.0,0.0,0.0,0.0,0.0,0.0,0.0,0.0,0.0,0.0,0.0,0.0,0.0,0.0,1.5185,1.5289,1.4908,1.4897,0.0,0.0,1.4784,1.5282,1.6059,1.6282,0.0,0.0,0.0,0.0,0.0,0.0,0.0,0.0,0.0,0.0,0.0,0.0,0.0,0.0,0.0,0.0,0.0,0.0,0.0,0.0,0.0,0.0,0.0,0.0,0.0,0.0,0.0,0.0,0.0,0.0,0.0,0.0,0.0,0.0,0.0,0.0,0.0,0.0,0.0,0.0,0.0,0.0,0.0,0.0,0.0,0.0,0.0,0.0,0.0,0.0,0.0,0.0,0.0,0.0,0.0,0.7628,0.8865,0.9484,0.9446,0.9414,0.9516,0.9638,0.9513,0.9023,0.0,0.0,0.0,0.0,0.0,0.0,0.0,0.0,0.0,0.0,0.0,0.0,0.0,0.0,0.0,0.0,0.0,0.0,0.0,0.0,0.0,0.0,0.0,0.0,0.0,0.0,0.0,0.0,0.0,0.0,0.0,0.0,0.0,0.0,0.0,0.0,0.0,0.0,0.0,0.0,0.0,1.4882,1.4546,1.444,1.4803,0.0,0.0,1.4783,1.5865,1.6452,1.6556,1.5938,0.0,0.0,0.0,0.0,0.0,0.0,0.0,0.0,0.0,0.0,0.0,0.0,0.0,0.0,0.0,0.0,0.0,0.0,0.0,0.0,0.0,0.0,0.0,0.0,0.0,0.0,0.0,0.0,0.0,0.0,0.0,0.0,0.0,0.0,0.0,0.0,0.0,0.0,0.0,0.0,0.0,0.0,0.0,0.0,0.0,0.0,0.0,0.0,0.0,0.0,0.0,0.0,0.0,0.7572,0.7849,0.914,0.9798,0.983,0.9798,0.9888,1.0085,0.9965,0.9847,0.0,0.0,0.0,0.0,0.0,0.0,0.0,0.0,0.0,0.0,0.0,0.0,0.0,0.0,0.0,0.0,0.0,0.0,0.0,0.0,0.0,0.0,0.0,0.0,0.0,0.0,0.0,0.0,1.448,1.4453,1.4239,0.0,0.0,0.0,0.0,0.0,0.0,0.0,0.0,0.0,0.0,1.5264,1.5333,1.5185,0.0,0.0,1.5939,1.5748,1.6426,1.6935,1.6959,1.6168,1.5959,0.0,0.0,0.0,0.0,0.0,0.0,0.0,0.0,0.0,0.0,0.0,0.0,0.0,0.0,0.0,0.0,0.0,0.0,0.0,0.0,0.0,0.0,0.0,0.0,0.0,0.0,0.0,0.0,0.0,0.0,0.0,0.0,0.0,0.0,0.0,0.0,0.0,0.0,0.0,0.0,0.0,0.0,0.0,0.0,0.0,0.0,0.0,0.0,0.0,0.0,0.0,0.0,0.8186,0.8366,0.9616,1.0269,1.0262,1.0523,1.0744,1.0957,1.114,1.1228,0.0,0.0,0.0,0.0,0.0,0.0,0.0,0.0,0.0,0.0,0.0,0.0,0.0,0.0,0.0,0.0,0.0,0.0,0.0,0.0,0.0,0.0,0.0,0.0,0.0,0.0,0.0,0.0,1.4774,1.4666,1.4345,0.0,0.0,0.0,0.0,0.0,0.0,0.0,0.0,0.0,0.0,1.5759,1.584,1.5784,1.5991,1.6606,1.6334,1.619,1.6627,1.6961,1.6982,1.6448,0.0,0.0,0.0,0.0,0.0,0.0,0.0,0.0,0.0,0.0,0.0,0.0,0.0,0.0,0.0,0.0,0.0,0.0,0.0,0.0,0.0,0.0,0.0,0.0,0.0,0.0,0.0,0.0,0.0,0.0,0.7934,0.0,0.0,0.0,0.0,0.0,0.0,0.0,0.0,0.0,0.0,0.0,0.0,0.0,0.0,0.0,0.0,0.0,0.0,0.0,0.0,0.0,0.0,0.8863,0.9377,1.0422,1.0923,1.0923,1.1635,1.2217,1.2531,1.3306,1.3501,1.3144,0.0,0.0,0.0,0.0,0.0,0.0,0.0,0.0,0.0,0.0,0.0,0.0,0.0,0.0,0.0,0.0,0.0,0.0,0.0,0.0,0.0,0.0,0.0,0.0,0.0,0.0,1.3734,1.4055,1.4324,0.0,0.0,0.0,0.0,0.0,0.0,0.0,0.0,0.0,0.0,1.5565,1.6279,1.5808,1.6102,1.6449,1.6491,1.6088,1.5905,1.6428,1.6472,1.6539,0.0,0.0,0.0,0.0,0.0,0.0,0.0,0.0,0.0,0.0,0.0,0.0,0.0,0.0,0.0,0.0,0.0,0.0,0.0,0.0,0.0,0.0,0.0,0.0,0.0,0.0,0.0,1.0021,1.0021,0.0,0.0,0.0,0.0,0.0,0.0,0.0,0.0,0.0,0.0,0.0,1.1847,1.2194,0.0,0.0,0.0,0.0,0.0,0.0,0.0,0.0,0.0,0.0,0.0,0.0,1.0412,1.067,1.2043,1.2759,1.2759,1.3035,1.322,1.3361,1.3867,1.4029,1.3817,0.0,0.0,0.0,0.0,0.0,0.0,0.0,0.0,0.0,0.0,0.0,0.0,0.0,0.0,0.0,0.0,0.0,0.0,0.0,0.0,0.0,0.0,0.0,0.0,0.0,1.4277,0.0,0.0,0.0,0.0,0.0,0.0,0.0,0.0,0.0,0.0,0.0,1.5742,1.6176,1.6741,1.7149,1.7289,1.7418,1.7762,0.0,0.0,0.0,0.0,0.0,0.0,0.0,0.0,0.0,0.0,0.0,0.0,0.0,0.0,1.6667,1.589,1.5819,1.595,1.6085,0.0,0.0,0.0,0.0,0.0,0.0,0.0,0.0,0.0,0.0,0.0,0.0,0.0,0.0,0.0,0.0,1.1391,0.0,0.0,0.0,0.0,0.0,0.0,0.0,0.0,1.257,1.3215,1.3396,1.3749,1.3674,0.0,1.3019,1.2258,0.0,0.0,0.0,0.0,0.0,0.0,0.0,0.0,1.1517,1.1848,1.3306,1.4096,1.413,1.4436,1.463,1.4723,1.5164,1.5316,1.5232,1.4617,1.4128,0.0,0.0,0.0,0.0,0.0,0.0,0.0,0.0,0.0,0.0,0.0,0.0,0.0,0.0,0.0,0.0,0.0,0.0,0.0,0.0,0.0,0.0,0.0,1.469,0.0,0.0,0.0,0.0,0.0,0.0,0.0,0.0,0.0,1.5785,1.6343,1.7017,1.75,1.7913,1.8143,1.8093,0.0,0.0,0.0,0.0,0.0,0.0,0.0,1.8132,1.843,1.8213,1.8261,1.8931,1.9552,1.9784,1.9223,0.0,0.0,1.7346,1.6825,1.6697,1.6929,1.6857,1.6716,1.6544,1.6247,1.6009,0.0,0.0,0.0,0.0,0.0,0.0,0.0,0.0,1.2521,1.2324,0.0,1.2364,0.0,0.0,0.0,0.0,0.0,1.2631,0.0,0.0,1.5342,1.6015,1.5819,1.58,1.581,1.576,1.4677,1.4165,1.4127,1.3302,0.0,0.0,0.0,0.0,0.0,0.0,1.2191,1.2996,1.4318,1.5002,1.5029,1.5869,1.6428,1.6609,1.7111,1.7369,1.7396,1.6009,1.5207,1.5189,1.3832,0.0,0.0,0.0,0.0,0.0,0.0,0.0,0.0,0.0,0.0,0.0,0.0,0.0,0.0,0.0,0.0,0.0,0.0,0.0,0.0,1.5482,0.0,0.0,0.0,0.0,0.0,0.0,0.0,0.0,0.0,0.0,1.7119,1.7714,1.8228,1.8213,0.0,0.0,0.0,0.0,1.9298,1.8405,1.8232,1.82,1.8121,1.8469,1.8868,1.9208,0.0,0.0,1.98,2.0375,2.0456,1.9213,1.9727,2.0057,1.928,1.7823,1.6945,1.7428,1.7156,1.6672,1.6619,1.6826,1.6838,1.2219,0.0,0.0,0.0,0.0,1.2592,1.3363,1.4478,1.4618,1.4624,1.453,1.446,0.0,0.0,0.0,0.0,0.0,0.0,1.35,1.4404,1.4952,1.5632,1.6439,1.6449,1.6418,1.6418,1.6434,1.6456,1.6443,1.6342,1.4565,1.1234,0.0,0.0,0.0,0.0,1.4114,1.4647,1.6039,1.6751,1.6751,1.7003,1.7235,1.7389,1.7523,1.7904,1.8494,1.7829,1.7542,1.7735,1.7145,0.0,0.0,0.0,0.0,0.0,0.0,0.0,0.0,0.0,0.0,0.0,0.0,0.0,0.0,0.0,0.0,0.0,0.0,0.0,1.4778,1.5975,1.6404,0.0,0.0,0.0,0.0,0.0,0.0,0.0,0.0,0.0,1.9562,1.908,1.8731,0.0,0.0,1.9461,1.8706,1.9607,2.0382,2.0385,0.0,0.0,0.0,2.0335,2.0084,2.0538,2.1095,2.1445,2.1415,2.183,2.2018,2.1613,2.1291,2.1121,2.1202,2.0093,1.9029,1.8683,1.8813,1.8856,1.8432,1.8301,1.8334,1.3944,1.3657,1.3217,1.3271,1.3733,1.4011,1.4824,1.5952,1.6063,1.6017,1.5882,1.5924,1.5193,1.3913,1.38,0.0,0.0,0.0,1.4615,1.5651,1.5636,1.6132,1.6998,1.7017,1.7041,1.7106,1.7083,1.724,1.7517,1.7139,1.5728,1.3268,0.0,0.0,1.2766,1.4261,1.5349,1.5974,1.702,1.7598,1.7588,1.7666,1.7769,1.7828,1.808,1.8476,1.8977,1.9047,1.919,1.9357,1.9085,1.8596,0.0,0.0,0.0,0.0,0.0,0.0,0.0,0.0,0.0,0.0,0.0,1.5314,1.4562,0.0,0.0,0.0,1.6398,1.6558,1.6502,1.7248,0.0,0.0,0.0,0.0,0.0,0.0,0.0,1.8662,2.002,2.0949,2.0953,2.0385,2.0037,2.0167,2.0524,2.0553,1.9963,0.0,2.134,2.1297,2.1353,2.1437,2.1572,2.1192,2.1064,2.1528,2.1893,2.2114,2.2138,2.2347,2.2494,2.2445,2.2049,2.1819,2.2154,2.1506,2.072,1.9987,1.9955,1.9933,1.9507,1.9441,1.9431,1.5169,1.5076,1.3592,1.3616,1.4658,1.5078,1.5859,1.6908,1.6908,1.6707,1.6404,1.6752,1.6326,1.5352,1.5031,0.0,1.6196,1.5995,1.6353,1.7166,1.7003,1.7116,1.7495,1.7495,1.7564,1.7662,1.6991,1.7035,1.7609,1.6579,1.6099,1.6163,1.5914,1.5508,1.5056,1.5449,1.6072,1.6897,1.7374,1.7668,1.7706,1.7964,1.8076,1.8076,1.8721,1.911,1.9199,1.9835,2.0258,2.044,2.0133,1.9797,1.9529,0.0,0.0,0.0,0.0,0.0,0.0,0.0,0.0,0.0,0.0,0.0,0.0,0.0,0.0,0.0,1.8549,0.0,1.9708,1.8975,0.0,0.0,0.0,1.8584,1.9212,2.0103,2.0648,2.0669,0.0,0.0,2.1556,0.0,2.1757,2.2309,2.2268,2.2042,2.1472,2.1834,2.2047,2.1443,2.1324,2.1235,2.1177,2.1382,2.1765,2.2097,2.2216,2.2223,2.2211,2.2204,2.2228,2.2228,2.2216,2.2197,2.2197,2.2123,2.1987,2.1262,2.0645,2.0193,2.0172,2.0096,2.0063,1.4919,1.5188,1.512,1.5374,1.5922,1.6304,1.6635,1.6908,1.6908,1.6819,1.6771,1.6828,1.6833,1.6708,1.6631,1.672,1.6949,1.689,1.7005,1.7166,1.7166,1.7279,1.7495,1.7495,1.7505,1.7529,1.7382,1.7407,1.7672,1.7421,1.7144,1.6883,1.7137,1.659,1.5219,1.5753,1.6365,1.7025,1.7187,1.7465,1.792,1.8496,1.8754,1.8787,1.9474,2.0096,2.0581,2.0773,2.1198,2.1858,2.1937,2.1819,2.1465,2.0921,0.0,0.0,0.0,0.0,0.0,0.0,0.0,0.0,0.0,1.8102,1.7195,0.0,1.851,0.0,1.9673,2.0021,1.9333,1.9721,0.0,0.0,1.9533,1.9799,2.0822,2.1104,2.1246,2.1265,2.1759,2.2121,2.2108,2.2121,2.2322,2.2819,2.2209,2.1405,2.0684,2.1469,2.1993,2.1673,2.1972,2.2254,2.2007,2.211,2.2232,2.2347,2.2359,2.2359,2.2328,2.2278,2.2216,2.2309,2.2278,2.2197,2.2197,2.2197,2.2135,2.1937,2.1368,2.0869,2.0837,2.0484,2.0258,1.4989,1.5227,1.5449,1.5727,1.6123,1.6656,1.6908,1.6908,1.6908,1.6908,1.6908,1.6908,1.6978,1.7063,1.7072,1.7063,1.7063,1.7072,1.7072,1.7072,1.7072,1.7176,1.7348,1.7358,1.7529,1.7837,1.7872,1.7998,1.8317,1.8327,1.8198,1.7969,1.8233,1.7795,1.6674,1.6565,1.6603,1.6844,1.7386,1.8077,1.89,1.9309,1.9368,1.9167,1.9811,2.025,2.0408,2.0714,2.1121,2.1643,2.1804,2.1922,2.2087,2.164,2.1345,0.0,0.0,0.0,0.0,0.0,0.0,0.0,0.0,0.0,0.0,0.0,2.0268,2.059,2.138,2.1639,2.1008,2.1477,2.1697,2.1411,2.1578,2.1838,2.2184,2.2418,2.2493,2.2259,2.2456,2.2644,2.2644,2.2673,2.2727,2.298,2.2493,2.196,2.1574,2.1967,2.2283,2.2013,2.2299,2.2525,2.234,2.2309,2.2309,2.2309,2.234,2.2309,2.2309,2.2247,2.2216,2.2278,2.2247,2.2197,2.2197,2.2197,2.2197,2.2123,2.1882,2.162,2.16,2.1293,2.1167,1.5327,1.5407,1.5355,1.5583,1.6052,1.6639,1.6908,1.6908,1.6908,1.6908,1.6908,1.6978,1.7003,1.7003,1.7081,1.7072,1.7012,1.7072,1.7072,1.7003,1.7072,1.7201,1.7364,1.7373,1.7716,1.8293,1.8371,1.864,1.9075,1.9131,1.9144,1.9048,1.9137,1.894,1.8384,1.7571,1.7045,1.6782,1.7836,1.888,1.9868,1.9922,1.9693,1.9289,1.9938,2.0109,1.9684,2.0239,2.0668,2.0799,2.0872,2.1338,2.214,2.1744,2.176,0.0,2.1925,0.0,0.0,0.0,0.0,0.0,0.0,0.0,0.0,2.1842,2.2054,2.2658,2.3126,2.3441,2.3509,2.3509,2.3487,2.3434,2.3833,2.3894,2.3408,2.3708,2.378,2.3288,2.3155,2.3095,2.3083,2.3138,2.312,2.306,2.2919,2.2857,2.2962,2.2781,2.2537,2.2389,2.2389,2.2328,2.2216,2.2197,2.2228,2.2197,2.2197,2.2197,2.2197,2.2197,2.2197,2.2197,2.2197,2.2197,2.2197,2.2197,2.2197,2.2197,2.2166,2.2123,2.2123,2.2092,2.2197,1.5967,1.6547,1.6204,1.6515,1.717,1.6976,1.6908,1.6908,1.6908,1.6908,1.6943,1.7339,1.7545,1.7579,1.8003,1.7969,1.7569,1.8003,1.7978,1.7569,1.8003,1.8206,1.824,1.824,1.8307,1.8486,1.8744,1.8865,1.8875,1.9398,1.9371,1.8806,1.9422,1.9266,1.8389,0.0,0.0,0.0,1.8291,1.8519,1.871,1.8877,1.8916,1.8859,1.9946,0.0,2.0408,2.0536,2.0668,2.0799,2.1316,0.0,0.0,0.0,0.0,0.0,0.0,0.0,0.0,0.0,0.0,0.0,2.3479,2.3384,2.3571,2.361,2.3659,2.3782,2.3892,2.415,2.4626,2.4681,2.4666,2.4649,2.4336,2.4231,2.4553,2.3872,2.3424,2.3868,2.3454,2.3108,2.3155,2.3348,2.3509,2.345,2.3241,2.3245,2.3547,2.2944,2.2432,2.2247,2.2309,2.2247,2.2197,2.2216,2.2278,2.2197,2.2197,2.2209,2.2221,2.2221,2.2197,2.2197,2.2197,2.2197,2.2197,2.2197,2.2197,2.2197,2.2197,2.2197,2.2197,2.2197,2.2197,1.6178,0.0,1.6359,1.6647,0.0,1.7009,1.7016,1.7183,1.725,1.7432,1.7706,1.7978,1.8104,1.8104,1.8375,1.8442,1.8341,1.8476,1.8543,1.859,1.87,1.8844,1.9013,1.899,1.9112,1.9387,1.9552,1.977,1.9987,2.0323,2.0287,1.9938,2.036,2.0245,1.9769,2.014,1.9996,1.934,1.941,1.9715,2.0263,2.0372,2.0304,2.0063,0.0,0.0,0.0,0.0,0.0,0.0,0.0,0.0,0.0,0.0,0.0,2.4094,2.4024,2.4084,2.4404,2.4446,2.4716,2.5366,2.542,2.5292,2.4977,2.522,2.5419,2.5427,2.5442,2.5555,2.5864,2.5892,2.5783,2.5481,2.5425,2.537,2.5049,2.4709,2.4494,2.4452,2.4118,2.3796,2.3796,2.3796,2.3809,2.3708,2.3708,2.3679,2.3607,2.2884,2.2328,2.2525,2.2775,2.2884,2.2896,2.2884,2.2898,2.2911,2.2946,2.2821,2.2645,2.257,2.2541,2.227,2.2197,2.2197,2.2197,2.2197,2.2197,2.2197,2.2197,2.2197,2.2197,2.2197,2.2197,1.6381,1.65,1.6417,1.6691,1.7214,1.7083,1.7298,1.778,0.0,0.0,0.0,1.8576,1.8677,1.8744,1.8777,1.8911,1.911,1.8967,1.9123,1.9541,1.9431,1.9529,1.9803,1.9803,2.0042,2.0441,2.0526,2.0773,2.119,2.1328,2.1348,2.1285,2.1348,2.1391,2.138,2.1663,2.142,2.0661,2.0557,2.0946,2.1875,2.1803,2.1553,2.1111,2.1188,2.1114,2.0737,2.0644,2.0689,2.0848,2.1219,2.1827,2.2534,2.3269,2.3989,2.4665,2.4944,2.535,2.5923,2.5992,2.6224,2.675,2.6794,2.6573,2.6021,2.65,2.6794,2.6794,2.6794,2.6779,2.6794,2.6794,2.6621,2.6125,2.6394,2.6245,2.5481,2.5453,2.537,2.5105,2.4652,2.4452,2.4465,2.435,2.4221,2.415,2.4237,2.4192,2.3636,2.3005,2.2665,2.2987,2.3406,2.3727,2.3756,2.3867,2.3925,2.401,2.3904,2.3685,2.3369,2.3086,2.2856,2.2629,2.2402,2.2402,2.2432,2.2512,2.2451,2.2451,2.2463,2.2451,2.2451,2.2482,2.2512,1.7058,1.7679,1.7023,1.7381,1.8404,1.7714,1.7962,1.8814,1.8036,1.774,1.7867,1.8767,1.9332,1.9649,1.9791,1.9791,1.9704,2.0139,2.0096,0.0,2.0528,2.0935,2.0955,2.0955,2.0987,2.1083,2.1368,2.14,2.1285,2.1769,2.1925,2.1694,2.1925,2.2061,2.2061,2.2123,2.2056,2.1911,2.1,2.0588,2.0718,2.0289,2.0004,1.9976,2.0474,2.0876,2.1188,2.0827,2.0986,2.1761,2.2023,2.2626,2.3635,2.4309,2.5089,2.5942,2.6052,2.6282,2.662,2.6649,2.6692,2.6765,2.6794,2.6736,2.6689,2.6736,2.6794,2.6794,2.6794,2.6794,2.6794,2.6794,2.6753,2.6647,2.6286,2.6152,2.6394,2.5522,2.4992,2.5356,2.4624,2.4321,2.458,2.4765,2.4921,2.5035,2.4879,2.4423,2.3872,2.3488,2.3429,2.3565,2.4013,2.4312,2.4511,2.4836,2.5086,2.5185,2.4719,2.4389,2.4184,2.3542,2.3138,2.3305,2.3035,2.2957,2.3275,2.3399,2.3322,2.3292,2.3292,2.3339,2.331,2.3518,2.3505,1.731,1.7659,1.7772,1.818,1.8704,1.8672,1.8644,1.8684,1.8893,1.8978,1.9031,1.9528,1.9824,1.9966,2.0074,2.0161,2.0237,2.0474,2.0667,2.088,2.1273,2.158,2.1737,2.1749,2.1737,2.1737,2.1894,2.1882,2.1769,2.2061,2.2123,2.1987,2.2123,2.2197,2.2197,2.2197,2.2321,2.2543,2.181,2.1538,2.1789,2.156,2.1565,2.1807,2.2114,2.2318,2.255,2.2359,2.2417,2.2865,2.3206,2.3619,2.4096,2.4943,2.5624,2.6068,2.6392,2.6659,2.6794,2.6794,2.6794,2.6794,2.6794,2.6794,2.6794,2.6794,2.6794,2.6794,2.6794,2.6794,2.6794,2.6794,2.6794,2.6794,2.6527,2.6515,2.6674,2.6272,2.5865,2.6055,2.566,2.5342,2.5467,2.5481,2.5508,2.5619,2.5342,2.4977,2.4677,2.4744,2.4754,2.4573,2.4902,2.5368,2.5659,2.5955,2.6003,2.5767,2.5509,2.5086,2.4625,2.3948,2.375,2.3582,2.3412,2.3382,2.3607,2.3607,2.3607,2.3607,2.3741,2.38,2.3859,2.4224,2.4339,1.774,1.7951,1.8674,1.9033,1.9155,1.9621,1.948,1.9078,1.9803,2.0232,2.0335,2.0237,2.027,2.0335,2.0324,2.055,2.0828,2.086,2.1146,2.1683,2.1757,2.1956,2.2154,2.2197,2.2197,2.2197,2.2197,2.2197,2.2197,2.2197,2.2197,2.2197,2.2197,2.2247,2.2371,2.234,2.2586,2.2987,2.2684,2.2696,2.3047,2.3047,2.3233,2.3547,2.3564,2.3653,2.3754,2.3666,2.3695,2.3901,2.4176,2.4379,2.4593,2.5356,2.588,2.6015,2.6433,2.6727,2.6794,2.6794,2.6794,2.6794,2.6794,2.6794,2.682,2.6924,2.6939,2.6808,2.6794,2.6794,2.6794,2.6794,2.6794,2.6794,2.6794,2.6779,2.6794,2.6727,2.6686,2.6659,2.6418,2.6163,2.6176,2.6082,2.5961,2.588,2.5674,2.5536,2.5589,2.5787,2.5797,2.5928,2.6072,2.6437,2.6915,2.6965,2.6825,2.6414,2.6105,2.5638,2.4953,2.4615,2.4326,2.3992,2.3842,2.3842,2.3901,2.3959,2.4018,2.4147,2.4337,2.441,2.4625,2.505,2.5106,1.8669,1.9362,1.9678,2.0012,2.0304,2.0466,2.0642,2.0832,2.0672,2.0754,2.1044,2.0711,2.0775,2.1063,2.1074,2.1221,2.1526,2.1588,2.1608,2.1726,2.2018,2.2154,2.2197,2.2197,2.2197,2.2197,2.2197,2.2197,2.2197,2.2197,2.2197,2.2197,2.2197,2.2432,2.2787,2.2848,2.3078,2.3518,2.3488,2.3488,2.3518,2.3547,2.3577,2.3577,2.3607,2.3813,2.4205,2.3813,2.3989,2.4736,2.4523,2.4637,2.5285,2.5481,2.5743,2.6203,2.6324,2.6472,2.6753,2.6794,2.6794,2.6794,2.6794,2.6794,2.6808,2.7287,2.7347,2.6939,2.6794,2.6837,2.6794,2.6794,2.6794,2.6794,2.6794,2.6794,2.6779,2.6539,2.6351,2.6351,2.6177,2.5948,2.6015,2.6109,2.6123,2.5893,2.5772,2.5715,2.5858,2.613,2.6521,2.7145,2.7515,2.7546,2.7668,2.7623,2.7515,2.7367,2.66,2.5959,2.5544,2.4978,2.439,2.4746,2.4494,2.4436,2.4708,2.4863,2.4907,2.5061,2.523,2.5467,2.592,2.6095,2.5783,1.9797,2.0158,2.0527,2.076,2.0999,2.158,2.1765,2.1703,2.1807,2.1766,2.1615,2.1348,2.1242,2.1201,2.1201,2.1285,2.1411,2.162,2.1714,2.1714,2.2049,2.2197,2.2197,2.2197,2.2197,2.2197,2.2197,2.2197,2.2197,2.2197,2.2352,2.2574,2.2604,2.2848,2.3263,2.3322,2.356,2.3989,2.4031,2.4147,2.435,2.4147,2.4134,2.4408,2.4436,2.4494,2.4679,2.4536,2.4679,2.5216,2.509,2.5216,2.5702,2.5893,2.6069,2.6297,2.6498,2.6659,2.6779,2.6794,2.6794,2.6794,2.6794,2.6794,2.682,2.7041,2.7041,2.6922,2.7113,2.7215,2.6852,2.6794,2.6794,2.6794,2.6794,2.6794,2.6779,2.6686,2.6592,2.6606,2.6486,2.6326,2.6177,2.6096,2.5948,2.5799,2.5939,2.6272,2.6264,2.6931,2.77,2.8199,2.8557,2.8712,2.8528,2.8163,2.7923,2.7607,2.7019,2.6409,2.5896,2.5646,2.5328,2.5495,2.5188,2.5118,2.5453,2.5383,2.5369,2.5647,2.5935,2.6111,2.6513,2.6592,2.6338,2.0817,2.1009,2.1499,2.1776,2.1918,2.2617,2.2802,2.2595,2.2788,2.2609,2.2197,2.195,2.1737,2.1486,2.1486,2.1486,2.1517,2.1726,2.1831,2.1851,2.2092,2.2197,2.2197,2.2197,2.2197,2.2197,2.2197,2.229,2.2402,2.2531,2.2744,2.3047,2.3108,2.3335,2.3754,2.3771,2.4018,2.445,2.4507,2.465,2.4878,2.4679,2.4637,2.4963,2.5005,2.5033,2.5131,2.5131,2.5272,2.5592,2.5605,2.5716,2.5988,2.619,2.6351,2.6445,2.6645,2.6794,2.6794,2.6794,2.6794,2.6794,2.6794,2.6794,2.6808,2.6965,2.6965,2.6864,2.7333,2.742,2.691,2.6794,2.6794,2.6794,2.6794,2.6794,2.6794,2.6794,2.6779,2.6794,2.6753,2.6727,2.6445,2.6165,2.5839,2.5867,2.6455,2.7074,2.713,2.8137,2.9067,2.9252,2.9631,2.9465,2.907,2.838,2.7945,2.742,2.6862,2.6315,2.5978,2.5921,2.5893,2.5702,2.5661,2.5647,2.5729,2.5674,2.5702,2.5975,2.6245,2.6486,2.6686,2.6765,2.6779,2.1614,2.209,2.2665,2.3075,2.3482,2.3519,2.3686,2.3781,2.3358,2.3098,2.2883,2.2363,2.2154,2.2092,2.2073,2.2123,2.2123,2.2123,2.2154,2.2135,2.2197,2.2197,2.2197,2.2197,2.2197,2.2247,2.2259,2.2463,2.2878,2.3292,2.356,2.3577,2.359,2.3813,2.4192,2.4263,2.4494,2.4892,2.492,2.4977,2.4977,2.4977,2.4948,2.5005,2.5005,2.5159,2.5425,2.5467,2.5592,2.5866,2.5866,2.5988,2.6258,2.6283,2.6445,2.6712,2.6779,2.6794,2.6794,2.6794,2.6794,2.6794,2.6794,2.6794,2.6823,2.7215,2.7273,2.6864,2.7343,2.743,2.6948,2.6806,2.6779,2.6794,2.6794,2.6794,2.6794,2.6794,2.6794,2.6794,2.6806,2.6806,2.6753,2.6286,2.6179,2.64,2.7003,2.7703,2.8366,2.9273,3.0088,3.047,3.0394,2.9902,2.885,2.8355,2.7722,2.7286,2.6956,2.6155,2.599,2.5893,2.5975,2.5975,2.6002,2.6002,2.5948,2.5975,2.6056,2.6272,2.6527,2.6753,2.6896,2.6832,2.6832,2.2505,2.274,2.3187,2.3482,2.3641,2.4152,2.441,2.4461,2.3851,2.3553,2.3352,2.2582,2.2197,2.2197,2.2197,2.2197,2.2197,2.2197,2.2197,2.2197,2.2197,2.2197,2.2197,2.2197,2.2371,2.2616,2.2635,2.2909,2.3322,2.3531,2.3754,2.4018,2.406,2.4292,2.4666,2.4736,2.4863,2.4977,2.5005,2.5005,2.5005,2.5005,2.5103,2.5313,2.5313,2.5453,2.5743,2.5743,2.5866,2.6136,2.6149,2.6312,2.6566,2.6633,2.6674,2.6779,2.6794,2.6794,2.6794,2.6794,2.6794,2.6794,2.6794,2.682,2.6823,2.6997,2.7026,2.6948,2.7217,2.7362,2.7233,2.6963,2.6794,2.6779,2.6806,2.6832,2.6794,2.6794,2.6794,2.6806,2.6829,2.6852,2.6878,2.6759,2.689,2.7418,2.8218,2.8973,2.9694,3.0586,3.1293,3.1356,3.1047,3.04,2.9605,2.8868,2.8265,2.7875,2.7507,2.731,2.7133,2.703,2.7082,2.6927,2.6797,2.6642,2.6642,2.6459,2.6539,2.6606,2.6832,2.6963,2.713,2.7052,2.7052,2.3075,2.3224,2.3482,2.374,2.4055,2.4562,2.4849,2.4862,2.4128,2.3806,2.3601,2.2654,2.229,2.2402,2.2402,2.2543,2.2592,2.2371,2.229,2.2432,2.2432,2.2525,2.2622,2.2653,2.2805,2.3095,2.3305,2.3531,2.3813,2.3959,2.4205,2.4494,2.4536,2.4679,2.4948,2.5005,2.5005,2.5005,2.5005,2.5005,2.5005,2.5103,2.53,2.5592,2.5702,2.5839,2.6015,2.6042,2.6192,2.6418,2.6472,2.6566,2.6753,2.6794,2.6794,2.6794,2.6794,2.6794,2.6794,2.6794,2.6794,2.6794,2.682,2.6846,2.6963,2.6989,2.7067,2.7192,2.7357,2.7575,2.7524,2.7306,2.7152,2.7167,2.7167,2.7167,2.7167,2.7167,2.7152,2.7203,2.7225,2.7236,2.7236,2.7308,2.7671,2.8293,2.9215,3.0107,3.0828,3.1702,3.2355,3.2281,3.1622,3.0914,3.0152,2.9417,2.8578,2.8136,2.7974,2.796,2.7987,2.7963,2.7938,2.7839,2.769,2.7519,2.728,2.7078,2.6974,2.6989,2.7041,2.717,2.7258,2.7295,2.7372,2.3261,2.3604,2.3641,2.4091,2.4646,2.4778,2.5028,2.5073,2.4239,2.3872,2.376,2.2737,2.2574,2.2848,2.2909,2.3125,2.3292,2.2684,2.2543,2.2866,2.2896,2.3125,2.3471,2.3429,2.3501,2.3649,2.4047,2.4292,2.4321,2.465,2.4892,2.4977,2.492,2.492,2.5005,2.5005,2.5005,2.5005,2.5005,2.5005,2.5033,2.5313,2.5592,2.5893,2.6109,2.627,2.6297,2.6324,2.6445,2.6727,2.6779,2.6779,2.682,2.6832,2.682,2.682,2.6806,2.6832,2.6846,2.6858,2.6922,2.6922,2.6858,2.7052,2.735,2.7386,2.7499,2.773,2.7864,2.7913,2.7913,2.7929,2.7864,2.7889,2.7765,2.7765,2.7815,2.7864,2.7889,2.7839,2.7839,2.7889,2.7913,2.8029,2.8413,2.9144,3.0033,3.0933,3.1657,3.2534,3.314,3.2945,3.2086,3.1099,3.0541,2.9948,2.902,2.829,2.8189,2.8134,2.8231,2.8231,2.8255,2.8183,2.8061,2.7864,2.7615,2.7418,2.7321,2.7295,2.7335,2.7423,2.7585,2.7695,2.778,2.3641,2.4055,2.4309,2.4562,2.4837,2.5052,2.5218,2.5227,2.453,2.4288,2.4144,2.3492,2.325,2.3352,2.3382,2.3471,2.3577,2.3292,2.3263,2.3382,2.3382,2.3471,2.3607,2.3607,2.3783,2.4105,2.4551,2.4778,2.4793,2.4907,2.5005,2.5005,2.5005,2.5005,2.5005,2.5005,2.5005,2.5005,2.5005,2.5103,2.5313,2.5439,2.573,2.6136,2.6256,2.6404,2.6633,2.6659,2.6686,2.6779,2.6794,2.6794,2.6846,2.7067,2.7067,2.6884,2.7306,2.7433,2.7258,2.7418,2.753,2.753,2.753,2.7605,2.7705,2.773,2.7805,2.7963,2.8134,2.8319,2.8367,2.8574,2.8463,2.7947,2.7889,2.7938,2.7963,2.7938,2.7889,2.7923,2.8134,2.8295,2.8475,2.8812,2.9628,3.0345,3.1168,3.1913,3.2615,3.2872,3.304,3.2635,3.1803,3.1175,3.0586,3.0125,2.9556,2.8975,2.8756,2.8535,2.8559,2.8574,2.8598,2.8511,2.8376,2.8231,2.7972,2.7765,2.762,2.7645,2.7705,2.7879,2.8076,2.8174,2.8207,2.4043,2.4454,2.4682,2.4885,2.5028,2.5465,2.5629,2.554,2.5029,2.4795,2.4652,2.3938,2.3682,2.3842,2.3872,2.3959,2.4118,2.4134,2.4105,2.4076,2.3901,2.3959,2.4076,2.4105,2.4234,2.4565,2.4863,2.5005,2.5005,2.5005,2.5005,2.5005,2.5005,2.5005,2.5005,2.5005,2.5033,2.5159,2.5188,2.5341,2.5578,2.5743,2.5948,2.627,2.6418,2.6592,2.6779,2.6794,2.6794,2.6794,2.6794,2.6858,2.7015,2.7258,2.7335,2.7357,2.758,2.7805,2.7635,2.7755,2.7889,2.7889,2.7889,2.7987,2.8061,2.811,2.8158,2.8367,2.8559,2.8716,2.8779,2.892,2.8826,2.8415,2.8391,2.8367,2.8343,2.8328,2.8367,2.8439,2.8574,2.8802,2.9264,2.9642,3.0615,3.1397,3.176,3.2165,3.2629,3.2613,3.2307,3.194,3.1427,3.0903,3.0552,3.0238,2.9995,2.97,2.9477,2.9159,2.899,2.8936,2.8936,2.8787,2.8654,2.8583,2.8376,2.7997,2.7815,2.7947,2.8134,2.8207,2.8343,2.8503,2.8559,2.449,2.4861,2.4897,2.5123,2.5488,2.6013,2.6233,2.6149,2.5586,2.5339,2.5113,2.427,2.3989,2.4292,2.435,2.4523,2.4907,2.4892,2.485,2.4793,2.4593,2.4565,2.4806,2.4821,2.4863,2.492,2.4977,2.5005,2.5005,2.5005,2.5005,2.5005,2.5005,2.5005,2.5033,2.5005,2.5146,2.5453,2.5494,2.5605,2.5907,2.615,2.6351,2.6431,2.6698,2.6884,2.6974,2.6974,2.6896,2.6858,2.691,2.713,2.7361,2.7452,2.7675,2.783,2.7913,2.7987,2.7963,2.8061,2.8085,2.811,2.811,2.811,2.8463,2.8535,2.8646,2.8936,2.9045,2.9068,2.9052,2.9091,2.9052,2.9091,2.8959,2.8982,2.9091,2.9029,2.8959,2.9021,2.9122,2.9351,2.9943,3.0196,3.0907,3.1596,3.17,3.2012,3.1962,3.1956,3.1424,3.1182,3.1076,3.0891,3.0599,3.0642,3.0393,3.0161,3.0011,2.9859,2.9499,2.938,2.9282,2.9129,2.8974,2.8904,2.8764,2.84,2.8328,2.8543,2.863,2.8559,2.8701,2.8912,2.9028,2.5099,2.5816,2.5851,2.6117,2.6517,2.6722,2.6769,2.6697,2.6116,2.5811,2.5612,2.4997,2.465,2.4793,2.4793,2.4878,2.4977,2.5005,2.5005,2.5005,2.5173,2.5075,2.5005,2.5005,2.5005,2.5033,2.5061,2.5005,2.5005,2.5033,2.5033,2.5005,2.5061,2.5159,2.5327,2.5159,2.53,2.5688,2.5605,2.5757,2.6163,2.6283,2.6563,2.7104,2.7207,2.7372,2.758,2.7605,2.7469,2.7284,2.7509,2.7655,2.7795,2.8018,2.8116,2.8036,2.8439,2.8622,2.8463,2.8598,2.874,2.8779,2.8693,2.8826,2.8912,2.8936,2.9006,2.9114,2.9114,2.9114,2.9114,2.9114,2.9114,2.9114,2.9192,2.9185,2.9114,2.9114,2.9114,2.9114,2.9146,2.9532,3.0188,3.0687,3.109,3.1566,3.1923,3.2071,3.1814,3.1805,3.1533,3.1195,3.103,3.0893,3.0823,3.0907,3.0804,3.058,3.0502,3.0605,3.0208,2.9875,2.9744,2.9611,2.9387,2.9273,2.9129,2.8873,2.9013,2.909,2.9143,2.9127,2.9355,2.9572,2.9579,2.6047,2.653,2.653,2.6701,2.7007,2.7229,2.7343,2.7222,2.6651,2.6352,2.6146,2.5389,2.499,2.5005,2.5005,2.5005,2.5005,2.5005,2.5075,2.5285,2.5536,2.555,2.5425,2.537,2.5397,2.5356,2.537,2.537,2.5384,2.5356,2.5356,2.5397,2.537,2.5495,2.5647,2.5522,2.5605,2.5961,2.5921,2.6138,2.6709,2.6762,2.706,2.7524,2.761,2.772,2.7874,2.8061,2.7978,2.7745,2.7805,2.7987,2.8158,2.8352,2.8463,2.8376,2.8873,2.8967,2.885,2.8982,2.9091,2.9114,2.9114,2.9114,2.9091,2.9114,2.9114,2.9114,2.9114,2.9114,2.9114,2.9114,2.919,2.9412,2.9665,2.9621,2.9192,2.9114,2.9256,2.943,2.9611,2.9975,3.0908,3.1332,3.1588,3.187,3.2037,3.1857,3.1572,3.1681,3.1621,3.1177,3.1066,3.1058,3.1093,3.1188,3.1312,3.1064,3.0985,3.1123,3.0744,3.0351,3.0204,3.0032,2.9793,2.9611,2.9477,2.938,2.938,2.9454,2.9589,2.9772,2.9946,3.0166,3.0166,2.704,2.7108,2.7108,2.7108,2.7276,2.7676,2.7875,2.7761,2.7077,2.6749,2.6492,2.5505,2.5032,2.5005,2.5075,2.5033,2.5005,2.5146,2.5355,2.5578,2.5853,2.5934,2.5975,2.5839,2.5811,2.5797,2.5893,2.5866,2.5811,2.5839,2.5866,2.5811,2.5839,2.5879,2.5948,2.5934,2.6123,2.6404,2.6484,2.6774,2.7255,2.7397,2.757,2.7889,2.8085,2.81,2.8207,2.8367,2.8431,2.8046,2.8036,2.8271,2.855,2.8574,2.8716,2.8943,2.9068,2.9091,2.9091,2.9091,2.9114,2.9114,2.9114,2.9114,2.9114,2.9114,2.9114,2.9114,2.9114,2.9224,2.9505,2.9466,2.9945,3.0334,3.0803,3.0497,2.9802,2.9466,2.9727,3.0323,3.0473,3.1118,3.1868,3.2232,3.2172,3.2212,3.2187,3.1715,3.1445,3.1391,3.1258,3.0921,3.0992,3.1244,3.1349,3.1504,3.1615,3.1615,3.1523,3.1485,3.1064,3.0764,3.0625,3.046,3.023,3.0075,2.993,2.9859,2.9815,2.9946,3.0187,3.0293,3.0398,3.0683,3.0784,2.7229,2.7643,2.761,2.7888,2.8229,2.8392,2.8438,2.8349,2.7277,2.6823,2.6552,2.5548,2.5032,2.5033,2.5285,2.5257,2.5146,2.5495,2.5866,2.6109,2.6163,2.6365,2.6433,2.6218,2.5948,2.5975,2.5921,2.5948,2.5948,2.6056,2.5921,2.6002,2.6123,2.6015,2.627,2.6416,2.6642,2.7049,2.7199,2.7388,2.7705,2.782,2.7978,2.8343,2.8646,2.8803,2.885,2.892,2.892,2.8889,2.8826,2.8803,2.8897,2.8943,2.9006,2.9052,2.9114,2.9114,2.9114,2.9114,2.9114,2.9114,2.9114,2.9114,2.9114,2.9137,2.9137,2.9114,2.913,2.9564,3.0332,3.1361,3.1693,3.1869,3.2117,3.2227,3.1989,3.1863,3.1823,3.2026,3.2124,3.2482,3.3273,3.2758,3.2632,3.2628,3.221,3.1642,3.1412,3.1255,3.1151,3.1004,3.1198,3.1466,3.1523,3.1653,3.1709,3.18,3.18,3.1781,3.1389,3.1162,3.1047,3.0868,3.0642,3.0522,3.046,3.0423,3.0402,3.0605,3.0747,3.0868,3.1024,3.1257,3.1372,2.7908,2.8183,2.8183,2.8327,2.8587,2.8587,2.8683,2.8548,2.7369,2.696,2.6895,2.5821,2.5313,2.5425,2.5605,2.5578,2.5605,2.6068,2.6549,2.6771,2.6852,2.7023,2.7163,2.6881,2.6606,2.6566,2.642,2.6486,2.6721,2.6683,2.6721,2.6823,2.6808,2.6964,2.7041,2.7093,2.7312,2.753,2.7665,2.7824,2.8149,2.8198,2.8383,2.8693,2.8982,2.9114,2.9091,2.9091,2.9114,2.9114,2.9114,2.9114,2.9114,2.9114,2.9114,2.9114,2.9114,2.9114,2.9114,2.9114,2.9114,2.9137,2.9114,2.9236,2.9357,2.9425,2.9582,2.97,2.9858,3.0195,3.1144,3.2034,3.2679,3.3069,3.3364,3.3597,3.3688,3.322,3.2868,3.3084,3.3166,3.3541,3.3713,3.3445,3.3088,3.3043,3.2266,3.1723,3.1674,3.1555,3.1574,3.154,3.1651,3.1744,3.1763,3.1781,3.1763,3.18,3.18,3.18,3.1634,3.1524,3.147,3.1298,3.1142,3.1083,3.1027,3.1027,3.0951,3.0968,3.1086,3.1374,3.1617,3.1747,3.1874,2.8587,2.8587,2.8587,2.8619,2.8683,2.8683,2.8807,2.8768,2.7621,2.7298,2.7354,2.6246,2.5961,2.6069,2.6177,2.6177,2.6363,2.664,2.7119,2.7439,2.7418,2.753,2.7665,2.7519,2.7448,2.7473,2.7152,2.7302,2.7565,2.766,2.7454,2.7775,2.7824,2.77,2.7824,2.7987,2.7963,2.8002,2.811,2.8255,2.855,2.8598,2.8779,2.8982,2.9075,2.9114,2.9114,2.9114,2.9114,2.9114,2.9114,2.9114,2.9114,2.9114,2.9114,2.9114,2.9114,2.9183,2.9266,2.9282,2.9282,2.9266,2.9335,2.9538,2.9832,2.9924,3.0054,3.0375,3.0638,3.1108,3.1807,3.2818,3.3426,3.3872,3.447,3.4895,3.4987,3.4075,3.3911,3.4108,3.4426,3.4718,3.4617,3.4351,3.3863,3.3311,3.2522,3.1886,3.1869,3.1817,3.1799,3.1746,3.1818,3.2037,3.209,3.2056,3.202,3.2126,3.2038,3.2038,3.2056,3.2109,3.2092,3.1821,3.1691,3.1618,3.1564,3.1545,3.1452,3.1338,3.1488,3.1803,3.2037,3.2231,3.2284,2.8587,2.8587,2.8587,2.8748,2.9004,2.9035,2.8938,2.864,2.825,2.7797,2.7437,2.7041,2.6808,2.6912,2.7159,2.7323,2.7399,2.75,2.7615,2.7864,2.7854,2.7913,2.7963,2.7913,2.7978,2.8125,2.7929,2.7864,2.7923,2.7864,2.7913,2.7913,2.7987,2.7987,2.8085,2.8222,2.8415,2.8439,2.8646,2.885,2.8912,2.8959,2.8982,2.9114,2.9114,2.9114,2.9114,2.9114,2.9114,2.9114,2.9114,2.9137,2.9229,2.9229,2.9206,2.9183,2.9236,2.9403,2.9617,2.97,2.9903,3.014,3.0182,3.0225,3.0351,3.0393,3.046,3.0825,3.1506,3.2293,3.3039,3.3964,3.4966,3.5555,3.5744,3.592,3.5945,3.5685,3.5365,3.5467,3.5651,3.5672,3.5403,3.5036,3.4523,3.397,3.3289,3.2491,3.2059,3.1991,3.1923,3.189,3.1856,3.2161,3.2421,3.2403,3.2384,3.2599,3.2632,3.2616,3.2647,3.2791,3.2711,3.2385,3.2179,3.2091,3.2056,3.2038,3.2002,3.1912,3.2073,3.2232,3.2284,3.2336,3.2388,2.8716,2.8876,2.9117,2.9418,2.9645,2.9563,2.9547,2.9407,2.8578,2.8174,2.7989,2.7583,2.7399,2.7525,2.7625,2.7874,2.8085,2.8085,2.8222,2.8439,2.8343,2.8367,2.8415,2.8304,2.8463,2.8669,2.8598,2.8503,2.8487,2.8319,2.8328,2.8527,2.8527,2.8511,2.855,2.8693,2.8803,2.8873,2.9006,2.9114,2.9114,2.9114,2.9114,2.9114,2.9114,2.9114,2.9114,2.9114,2.9236,2.9425,2.947,2.9605,2.9722,2.9772,2.9722,2.9566,2.9677,2.9881,3.0118,3.0182,3.0267,3.0435,3.0518,3.0621,3.0744,3.0808,3.0905,3.1396,3.2417,3.3368,3.3744,3.494,3.5832,3.618,3.6305,3.6305,3.6305,3.6305,3.6346,3.6367,3.6215,3.6086,3.6027,3.5614,3.5108,3.4562,3.3999,3.331,3.2567,3.2538,3.2631,3.2336,3.2354,3.2502,3.2781,3.2779,3.2807,3.3024,3.313,3.3115,3.31,3.316,3.3057,3.2811,3.2668,3.2651,3.2487,3.2453,3.2455,3.2439,3.2422,3.2405,3.2388,3.2423,3.2507,2.9085,2.9498,2.9856,3.0136,3.0263,3.0088,3.0002,2.9851,2.8875,2.8494,2.8682,2.8187,2.7963,2.811,2.8183,2.8343,2.8622,2.8606,2.8764,2.8897,2.8764,2.8803,2.8897,2.885,2.8779,2.8982,2.9006,2.9114,2.8943,2.8756,2.8826,2.8936,2.9052,2.9114,2.9068,2.9006,2.9114,2.9114,2.9114,2.9114,2.9114,2.9114,2.9167,2.922,2.9243,2.9305,2.9493,2.9515,2.9655,2.9837,2.9968,3.0097,3.0435,3.058,3.0439,3.0187,3.0356,3.0497,3.0621,3.0621,3.0683,3.0885,3.0788,3.0965,3.1123,3.1295,3.1408,3.1967,3.2867,3.3815,3.4086,3.5232,3.5973,3.6326,3.6367,3.6451,3.6516,3.6557,3.6658,3.6638,3.6536,3.6457,3.6385,3.6163,3.5685,3.5461,3.4907,3.4566,3.3934,3.3829,3.3722,3.3184,3.2993,3.3016,3.3133,3.3181,3.3263,3.3463,3.351,3.3478,3.3468,3.3439,3.3357,3.3328,3.3386,3.3325,3.3105,3.286,3.283,3.2768,3.264,3.2623,3.2737,3.277,3.2834,3.0056,3.0675,3.0734,3.0645,3.0385,3.0334,2.9841,2.9197,2.9225,2.8996,2.8656,2.8794,2.885,2.8873,2.8889,2.8959,2.9006,2.8982,2.9006,2.9075,2.9006,2.9006,2.9075,2.9075,2.8982,2.9114,2.9114,2.9114,2.9091,2.9006,2.9006,2.9114,2.9114,2.9114,2.9114,2.9114,2.9114,2.9114,2.9114,2.9114,2.9114,2.9137,2.9357,2.9566,2.9744,2.9859,3.0118,3.014,3.0272,3.0372,3.0414,3.0439,3.0559,3.0848,3.0985,3.0865,3.0764,3.0662,3.1001,3.1044,3.1162,3.1408,3.1523,3.1635,3.1617,3.1653,3.1707,3.178,3.2679,3.3524,3.4217,3.4944,3.5614,3.6211,3.6678,3.6781,3.688,3.7001,3.7076,3.7095,3.7058,3.686,3.6721,3.6516,3.6264,3.6092,3.588,3.5545,3.5221,3.4988,3.4605,3.4011,3.3758,3.3767,3.3524,3.357,3.3639,3.3839,3.3839,3.3826,3.38,3.3805,3.3935,3.3954,3.3979,3.3831,3.35,3.3284,3.3229,3.3108,3.2975,3.305,3.3202,3.3202,3.3096,2.9977,3.0061,3.0283,3.0407,3.0445,3.0314,3.0072,2.9654,2.9365,2.9124,2.8897,2.9006,2.9114,2.9114,2.9114,2.9114,2.9114,2.9114,2.9114,2.9114,2.9114,2.9114,2.9114,2.9114,2.9114,2.9137,2.9114,2.9114,2.9114,2.9137,2.9114,2.9114,2.9114,2.9114,2.9114,2.9114,2.9114,2.9114,2.9114,2.9114,2.9183,2.9357,2.9611,2.9815,3.0075,3.0309,3.046,3.0497,3.0625,3.0764,3.0845,3.1007,3.1203,3.1483,3.1661,3.2273,3.2042,3.1796,3.1553,3.1555,3.1685,3.1709,3.18,3.1781,3.18,3.1853,3.2077,3.2421,3.3145,3.3889,3.4713,3.5595,3.617,3.6696,3.7057,3.7229,3.736,3.7452,3.7542,3.7578,3.7578,3.7433,3.7304,3.7251,3.7143,3.704,3.6898,3.668,3.6237,3.5808,3.5335,3.4739,3.4577,3.4547,3.4181,3.3967,3.3923,3.4055,3.4055,3.4055,3.4124,3.4173,3.4216,3.4216,3.4124,3.3967,3.3778,3.3657,3.3532,3.3404,3.3288,3.3361,3.3433,3.3317,3.3321,2.9776,2.9383,3.0011,3.0371,3.0388,3.0249,3.0085,2.9832,2.9328,2.9107,2.9114,2.9114,2.9114,2.9114,2.9114,2.9114,2.9114,2.9114,2.919,2.9213,2.919,2.919,2.9236,2.9236,2.9167,2.9282,2.916,2.9305,2.9448,2.9373,2.9282,2.9114,2.9114,2.9114,2.9114,2.9137,2.9144,2.9335,2.9335,2.9403,2.9544,2.9832,3.0011,3.0208,3.0456,3.0703,3.0788,3.0865,3.1044,3.1181,3.1276,3.1432,3.173,3.2041,3.2392,3.2935,3.3012,3.3026,3.2734,3.2579,3.2321,3.2131,3.1854,3.1819,3.1853,3.1959,3.2346,3.2991,3.4203,3.4882,3.5547,3.6447,3.6898,3.7213,3.7506,3.7684,3.7874,3.8009,3.8061,3.8046,3.8079,3.8145,3.8044,3.8059,3.8008,3.7941,3.7849,3.7736,3.7337,3.6778,3.6388,3.5873,3.5219,3.5118,3.4791,3.4507,3.442,3.4216,3.4216,3.4216,3.4216,3.4216,3.4216,3.4216,3.4216,3.4148,3.3992,3.3921,3.3842,3.3784,3.3698,3.3616,3.3588,3.3504,3.356,2.9753,2.9234,3.0541,3.0683,3.0195,3.0212,2.9785,2.9288,2.9185,2.9183,2.9259,2.916,2.9236,2.9206,2.9282,2.9259,2.9167,2.9114,2.9425,2.9538,2.9403,2.9477,2.9544,2.9499,2.9387,2.9633,2.9499,2.975,3.0059,2.9859,2.9544,2.919,2.9373,2.9206,2.9213,2.9357,2.9499,2.9677,2.9766,2.9962,3.0161,3.0398,3.0584,3.0868,3.1044,3.1257,3.1653,3.1579,3.1579,3.1654,3.1654,3.1866,3.219,3.2571,3.2991,3.3587,3.402,3.4158,3.4194,3.384,3.3597,3.3078,3.261,3.2314,3.2437,3.3036,3.3388,3.3793,3.5083,3.5936,3.647,3.7006,3.7488,3.772,3.7943,3.8194,3.8387,3.8591,3.8624,3.8566,3.8551,3.8579,3.8576,3.8542,3.8527,3.8449,3.8434,3.8315,3.8372,3.7964,3.7692,3.7145,3.6083,3.5615,3.5336,3.4977,3.4401,3.4216,3.4216,3.4216,3.4216,3.4216,3.4209,3.4216,3.4216,3.4216,3.4216,3.4099,3.4049,3.4136,3.4093,3.3941,3.3923,3.3967,3.4005,2.9351,2.92,2.9993,3.0027,2.9548,2.9532,2.9351,2.9199,2.9403,2.9722,2.9924,2.9946,2.9968,2.9946,2.9968,2.9968,2.9968,2.9968,3.0097,3.014,3.0097,3.0081,3.0102,3.0097,3.0075,3.0161,3.0032,3.0016,3.0356,3.0293,3.0204,2.9989,2.9968,2.9968,2.9968,2.9859,3.0032,3.014,3.0225,3.0372,3.0477,3.0747,3.0945,3.1064,3.1466,3.1579,3.1746,3.18,3.1819,3.1839,3.1857,3.2191,3.2664,3.3064,3.3711,3.4504,3.499,3.5359,3.5556,3.5002,3.4158,3.421,3.3898,3.3723,3.3653,3.4374,3.4904,3.5454,3.5987,3.6733,3.7254,3.7678,3.8044,3.8194,3.8373,3.8624,3.8778,3.8942,3.8989,3.8811,3.8869,3.8942,3.897,3.8966,3.8937,3.8909,3.8927,3.8905,3.886,3.8822,3.8451,3.7986,3.6941,3.603,3.5733,3.5033,3.4271,3.424,3.4252,3.4264,3.4257,3.4209,3.4209,3.4209,3.4245,3.4281,3.4281,3.4221,3.4221,3.4257,3.4233,3.4161,3.4221,3.437,3.4397,2.9312,2.9357,2.9815,2.9744,2.9357,2.947,2.9522,2.9566,2.9859,3.0182,3.0497,3.0497,3.0497,3.0497,3.0477,3.0439,3.0414,3.0439,3.0584,3.0605,3.0605,3.0649,3.067,3.0645,3.058,3.0683,3.0601,3.058,3.0965,3.0764,3.0784,3.0845,3.0868,3.0808,3.0418,3.0497,3.0543,3.0662,3.0683,3.0804,3.0905,3.1181,3.1355,3.1413,3.171,3.1856,3.191,3.1928,3.1946,3.1965,3.2071,3.249,3.3051,3.3717,3.4456,3.5392,3.6152,3.6487,3.6636,3.5995,3.5059,3.5315,3.5046,3.5094,3.532,3.5648,3.6143,3.6522,3.6933,3.7431,3.8043,3.8357,3.8502,3.8612,3.8733,3.8927,3.8956,3.9073,3.9073,3.9027,3.9101,3.9087,3.9087,3.9055,3.9055,3.9027,3.9013,3.9013,3.9004,3.8952,3.8822,3.8321,3.7647,3.6811,3.603,3.5405,3.4809,3.4404,3.4404,3.4363,3.4351,3.4328,3.434,3.4404,3.4427,3.4409,3.4446,3.4531,3.4454,3.4351,3.4374,3.4454,3.452,3.4628,3.4668,2.9772,2.9837,3.0272,3.0225,2.9881,3.0267,3.0414,3.033,3.0435,3.0522,3.0642,3.0621,3.0621,3.0625,3.0727,3.0747,3.0767,3.0751,3.0928,3.1181,3.1067,3.1089,3.1128,3.1125,3.112,3.1123,3.1064,3.1181,3.1671,3.1317,3.1372,3.1579,3.1564,3.1357,3.0584,3.0539,3.0723,3.1024,3.1103,3.1334,3.1579,3.1711,3.1766,3.1839,3.193,3.2019,3.2036,3.2036,3.2037,3.2073,3.2144,3.2686,3.3546,3.4215,3.5118,3.6328,3.7059,3.756,3.7892,3.6896,3.6591,3.6583,3.6287,3.6045,3.5971,3.6474,3.7189,3.7502,3.8019,3.8538,3.8844,3.8892,3.8902,3.8946,3.9031,3.9073,3.9101,3.9101,3.9101,3.9101,3.9101,3.9101,3.9101,3.9101,3.9115,3.9115,3.9082,3.9096,3.911,3.9064,3.8985,3.8672,3.8109,3.7342,3.6547,3.5895,3.5328,3.4869,3.4602,3.4583,3.4596,3.4639,3.4639,3.4615,3.4636,3.466,3.4762,3.4889,3.4772,3.4672,3.4732,3.4792,3.486,3.487,3.4889,3.0006,3.0309,3.0723,3.0808,3.0645,3.0539,3.0497,3.0539,3.0784,3.1064,3.1315,3.137,3.1391,3.1413,3.1393,3.1413,3.1507,3.1564,3.1766,3.1765,3.162,3.1712,3.1766,3.1711,3.171,3.1765,3.1656,3.16,3.1982,3.173,3.1785,3.1983,3.1966,3.1803,3.1545,3.1414,3.1526,3.1562,3.1618,3.173,3.1874,3.1966,3.202,3.202,3.209,3.2126,3.2161,3.2179,3.2197,3.2266,3.2387,3.3138,3.4232,3.5029,3.5928,3.7103,3.7895,3.8048,3.8293,3.7968,3.7849,3.7731,3.7596,3.7451,3.7799,3.8085,3.8343,3.8357,3.8652,3.8979,3.9017,3.9017,3.9045,3.9045,3.9087,3.9087,3.9101,3.9101,3.9101,3.9101,3.9101,3.9129,3.9142,3.924,3.9279,3.9279,3.9279,3.9205,3.9192,3.9142,3.9073,3.888,3.8449,3.7754,3.7074,3.6522,3.5807,3.5185,3.4924,3.4811,3.485,3.4917,3.4879,3.4831,3.487,3.4908,3.4982,3.5046,3.5063,3.5035,3.5054,3.5019,3.4982,3.5035,3.5096,3.0418,3.0747,3.1162,3.1334,3.1315,3.1044,3.0945,3.0985,3.122,3.1523,3.1746,3.1819,3.1839,3.1893,3.1966,3.2002,3.2108,3.2126,3.2126,3.2143,3.2161,3.2144,3.2179,3.2196,3.209,3.2161,3.2126,3.2126,3.209,3.2108,3.209,3.2108,3.2144,3.2055,3.1966,3.193,3.1893,3.1893,3.1929,3.1948,3.2019,3.2073,3.2126,3.2144,3.2179,3.2249,3.2318,3.2369,3.2403,3.2588,3.298,3.3711,3.4914,3.573,3.6606,3.7707,3.8426,3.8551,3.87,3.8744,3.8578,3.8548,3.8733,3.8826,3.8931,3.8868,3.8915,3.8966,3.9036,3.9045,3.9087,3.9101,3.9101,3.9101,3.9101,3.9101,3.9101,3.9101,3.9129,3.9129,3.9151,3.9165,3.9245,3.9364,3.9482,3.9489,3.9477,3.9408,3.9331,3.9305,3.9274,3.9133,3.9102,3.8715,3.8022,3.7254,3.6489,3.558,3.5238,3.5029,3.5063,3.5107,3.5063,3.5046,3.5107,3.5176,3.5176,3.5201,3.5242,3.5239,3.5219,3.5179,3.5122,3.5179,3.5266,3.1086,3.1181,3.1617,3.1783,3.1783,3.1727,3.1763,3.18,3.1783,3.1783,3.1837,3.1893,3.193,3.193,3.2037,3.2108,3.2161,3.2179,3.2214,3.2249,3.2284,3.2354,3.2371,3.2371,3.2353,3.2284,3.2266,3.2353,3.2197,3.2353,3.2353,3.2249,3.2301,3.2335,3.2335,3.2266,3.2161,3.209,3.2073,3.2073,3.2108,3.2214,3.2301,3.2353,3.2438,3.2605,3.2718,3.2797,3.2939,3.3108,3.3313,3.4335,3.5162,3.5706,3.6976,3.8083,3.888,3.897,3.9031,3.9031,3.9045,3.8956,3.9013,3.9087,3.9087,3.9073,3.9073,3.9073,3.9073,3.9087,3.9101,3.9101,3.9101,3.9101,3.9101,3.9101,3.9115,3.9129,3.917,3.9178,3.9213,3.9274,3.9464,3.959,3.9705,3.9772,3.9783,3.9838,3.9761,3.963,3.9599,3.9554,3.9569,3.9762,3.9028,3.7918,3.7071,3.6135,3.5485,3.5198,3.5266,3.5289,3.5258,3.5293,3.5395,3.5424,3.5354,3.5369,3.5439,3.5427,3.5367,3.5374,3.5304,3.5374,3.5463,3.1334,3.1693,3.182,3.1912,3.2001,3.2019,3.2001,3.2036,3.2018,3.2019,3.2001,3.2037,3.2109,3.2126,3.2161,3.2232,3.2301,3.2319,3.2336,3.2388,3.2473,3.244,3.244,3.2474,3.2506,3.2588,3.2635,3.2718,3.2892,3.2925,3.2766,3.2685,3.262,3.2716,3.2765,3.2734,3.2454,3.2266,3.2249,3.2266,3.2318,3.2487,3.257,3.2669,3.283,3.3019,3.3126,3.3172,3.3258,3.3302,3.3536,3.442,3.5857,3.6319,3.7193,3.8682,3.9059,3.9101,3.9101,3.9101,3.9115,3.9129,3.9142,3.9101,3.9101,3.911,3.9124,3.9137,3.9173,3.9227,3.9227,3.9213,3.9213,3.9227,3.9227,3.9227,3.9253,3.9318,3.9357,3.9389,3.9408,3.9566,3.9739,3.9805,3.9901,4.0003,4.0101,4.0148,4.0139,3.9994,3.9934,3.9877,3.9898,4.0034,3.9289,3.8235,3.7496,3.6715,3.5971,3.5407,3.5398,3.5412,3.5439,3.5472,3.5474,3.5481,3.5467,3.5488,3.5501,3.5502,3.545,3.5477,3.5496,3.5534,3.5572,3.1693,3.1984,3.2126,3.2318,3.2504,3.2537,3.2537,3.252,3.2387,3.2284,3.2318,3.2488,3.2488,3.2437,3.2588,3.2719,3.2768,3.2802,3.2802,3.2784,3.2739,3.2802,3.277,3.2737,3.2864,3.2972,3.3016,3.3063,3.3273,3.3288,3.3139,3.3016,3.3001,3.309,3.3154,3.3047,3.2876,3.27,3.2636,3.262,3.2718,3.2844,3.2954,3.3029,3.3243,3.3364,3.348,3.3512,3.3536,3.363,3.3889,3.4531,3.5947,3.6663,3.7583,3.8883,3.9087,3.9101,3.9096,3.9219,3.9178,3.9192,3.9266,3.9313,3.9292,3.9298,3.9298,3.9298,3.9338,3.9383,3.9389,3.9389,3.9402,3.9383,3.9383,3.9383,3.9477,3.9549,3.9609,3.9637,3.975,3.9891,4.0002,4.0052,4.012,4.025,4.0302,4.0328,4.0328,4.0266,4.0221,4.0174,4.0182,4.0187,3.9386,3.8684,3.7909,3.7094,3.6126,3.5671,3.5571,3.5508,3.5501,3.5482,3.5489,3.5489,3.5515,3.5495,3.5489,3.5509,3.5534,3.5553,3.5559,3.5565,3.5589,3.2126,3.2197,3.2522,3.2846,3.3169,3.3169,3.3214,3.3273,3.2894,3.267,3.2752,3.3034,3.2986,3.2846,3.3019,3.3139,3.3157,3.3157,3.3142,3.3273,3.3172,3.3157,3.3172,3.3273,3.3232,3.3291,3.335,3.3379,3.3364,3.3433,3.349,3.335,3.3332,3.3404,3.3472,3.3375,3.3302,3.3357,3.3284,3.327,3.3214,3.3273,3.3317,3.3332,3.3419,3.3518,3.373,3.3868,3.3947,3.4111,3.4296,3.4655,3.5875,3.7007,3.8116,3.8808,3.9114,3.9124,3.9219,3.9326,3.9331,3.9389,3.9531,3.9578,3.9549,3.9501,3.9501,3.9513,3.9548,3.9595,3.9606,3.9606,3.9606,3.9606,3.9606,3.9606,3.9641,3.9761,3.988,3.9943,4.0053,4.0185,4.0223,4.0239,4.0285,4.0441,4.0473,4.0473,4.0473,4.043,4.0422,4.0406,4.0386,4.0318,3.9988,3.9246,3.8396,3.7488,3.6469,3.5771,3.5579,3.5515,3.5515,3.5528,3.5528,3.5509,3.5515,3.5515,3.5541,3.5572,3.5596,3.5595,3.5606,3.5612,3.5631,3.2266,3.2587,3.2972,3.3184,3.3276,3.3291,3.3451,3.3666,3.3564,3.3346,3.3187,3.3232,3.3262,3.3217,3.3288,3.3375,3.3346,3.3419,3.3317,3.3346,3.3361,3.3433,3.3332,3.3437,3.348,3.3625,3.368,3.368,3.3689,3.3792,3.3845,3.3689,3.3675,3.373,3.3858,3.377,3.373,3.3845,3.3876,3.3671,3.3433,3.3564,3.3662,3.373,3.381,3.3928,3.4074,3.4099,3.4136,3.4197,3.4216,3.4996,3.6333,3.735,3.8241,3.8956,3.9292,3.9279,3.9331,3.9482,3.9566,3.9561,3.9637,3.9728,3.9742,3.975,3.975,3.9754,3.9786,3.9819,3.984,3.9851,3.9851,3.9851,3.984,3.984,3.984,3.9993,4.0177,4.0258,4.0353,4.0397,4.0406,4.043,4.0481,4.0489,4.0489,4.0489,4.0516,4.0489,4.0477,4.0462,4.0481,4.0365,4.0189,3.9684,3.8748,3.7921,3.6978,3.6279,3.5612,3.5573,3.5578,3.5572,3.5566,3.5566,3.5566,3.5585,3.5598,3.5628,3.5626,3.5643,3.5665,3.5657,3.569,3.2766,3.3001,3.3361,3.3606,3.3703,3.3698,3.381,3.3959,3.3972,3.3876,3.373,3.3684,3.3648,3.3592,3.363,3.3671,3.3671,3.3698,3.3752,3.3725,3.3657,3.3725,3.3684,3.3675,3.3823,3.3959,3.3972,3.3985,3.3998,3.4061,3.4055,3.3985,3.3972,3.4023,3.4191,3.4061,3.4036,3.4173,3.4197,3.3992,3.3657,3.385,3.3972,3.4049,3.4099,3.4216,3.4216,3.4216,3.4216,3.4257,3.4316,3.5301,3.6433,3.7302,3.8227,3.9082,3.9549,3.9585,3.9555,3.9683,3.9829,3.9794,3.9963,4.012,4.0042,4.0032,4.0053,4.0072,4.0148,4.0184,4.0203,4.0203,4.0184,4.0184,4.0203,4.0203,4.0212,4.0257,4.0356,4.0389,4.0457,4.0457,4.0465,4.0465,4.0496,4.0523,4.0523,4.0539,4.0539,4.0534,4.0542,4.0557,4.0545,4.05,4.0362,3.9788,3.895,3.8161,3.7462,3.6524,3.5789,3.5685,3.5639,3.5618,3.5612,3.5602,3.5622,3.5631,3.5645,3.5656,3.5673,3.5665,3.5697,3.5718,3.5723,3.3306,3.3408,3.3703,3.3954,3.4173,3.4185,3.4204,3.4185,3.4197,3.4185,3.4148,3.4148,3.4049,3.4011,3.4055,3.4148,3.4161,3.4061,3.4124,3.4136,3.4136,3.4043,3.4074,3.4148,3.4136,3.4136,3.4148,3.4179,3.4161,3.4197,3.4197,3.4216,3.4216,3.4216,3.4216,3.4216,3.4197,3.4197,3.4216,3.4216,3.4185,3.4216,3.4173,3.4185,3.4216,3.4216,3.4216,3.4216,3.4216,3.4351,3.4562,3.56,3.6494,3.7316,3.8364,3.9228,3.9816,3.9816,3.9819,4.0022,4.0003,4.0033,4.0336,4.0425,4.0304,4.0295,4.0311,4.0345,4.0422,4.0446,4.0465,4.0465,4.0446,4.0446,4.0465,4.0465,4.0473,4.0473,4.0489,4.0496,4.0496,4.0496,4.0504,4.0504,4.0512,4.0531,4.0546,4.0561,4.0583,4.0586,4.0581,4.0622,4.0649,4.0582,4.0503,4.0109,3.9405,3.8646,3.7912,3.6822,3.5961,3.5815,3.5698,3.5664,3.5654,3.5664,3.5659,3.5684,3.5684,3.5693,3.5718,3.5715,3.5728,3.5737,3.5733,3.3465,3.3734,3.4011,3.4161,3.4197,3.4216,3.4216,3.4216,3.4216,3.4216,3.4216,3.4216,3.4161,3.4124,3.4161,3.4216,3.4216,3.4216,3.4216,3.4216,3.4216,3.4216,3.4216,3.4216,3.4216,3.4216,3.4216,3.4216,3.4216,3.4216,3.4216,3.4216,3.4216,3.4216,3.4216,3.4216,3.4216,3.4216,3.4209,3.4209,3.4221,3.4221,3.4216,3.4216,3.4216,3.4216,3.4216,3.4216,3.4347,3.4528,3.4814,3.5785,3.6688,3.744,3.8363,3.9469,4.0033,4.0013,4.0062,4.025,4.0212,4.0177,4.0408,4.0481,4.0425,4.0425,4.043,4.043,4.0481,4.0481,4.0481,4.0481,4.0481,4.0481,4.0481,4.0481,4.0489,4.0489,4.0516,4.0523,4.0531,4.0539,4.0561,4.0561,4.0557,4.0564,4.0586,4.0619,4.0641,4.0629,4.0636,4.0693,4.0746,4.0662,4.0589,4.0584,4.0024,3.9253,3.829,3.7065,3.6207,3.5859,3.5765,3.5718,3.5733,3.5755,3.5751,3.5733,3.5737,3.576,3.5768,3.5788,3.5771,3.5771,3.5771]}]]